[[{"header":{"parameterUnit":"m.s-1","parameterCategory":1,"la1":31.0,"la2":29.5877,"lo1":-88.7671,"lo2":-86.6584,"dy":0.0162,"dx":0.0185,"nx":115,"ny":88,"refTime":"2023-09-17T06:00:00:Z","depth":0,"parameterNumber":2,"parameterNumberName":"U-component_of_WINDS"},"data":[0.0,0.0,0.0,0.0,0.0,0.0,0.0,0.0,0.0,0.0,0.0,0.0,0.0,0.0,0.0,0.0,0.0,0.0,0.0,0.0,0.0,0.0,0.0,0.0,0.0,0.0,0.0,0.0,0.0,0.0,0.0,0.0,0.0,0.0,0.0,0.0,0.0,0.0,0.0,0.0,0.0,0.0,0.0,0.0,0.0,0.0,0.0,0.0,0.0,0.0,0.0,0.0,0.0,0.0,0.0,0.0,0.0,0.0,0.0,0.0,0.0,0.0,0.0,0.0,0.0,0.0,0.0,0.0,0.0,0.0,0.0,0.0,0.0,0.0,0.0,0.0,0.0,0.0,0.0,0.0,0.0,0.0,0.0,0.0,0.0,0.0,0.0,0.0,0.0,0.0,0.0,0.0,0.0,0.0,0.0,0.0,0.0,0.0,0.0,0.0,0.0,0.0,0.0,0.0,0.0,0.0,0.0,0.0,0.0,0.0,0.0,0.0,0.0,0.0,0.0,0.0,0.0,0.0,0.0,0.0,0.0,0.0,0.0,0.0,0.0,0.0,0.0,0.0,0.0,0.0,0.0,0.0,0.0,0.0,0.0,0.0,0.0,0.0,0.0,0.0,0.0,0.0,0.0,0.0,0.0,0.0,0.0,0.0,0.0,0.0,0.0,0.0,0.0,0.0,0.0,0.0,0.0,0.0,0.0,0.0,0.0,0.0,0.0,0.0,0.0,0.0,0.0,0.0,0.0,0.0,0.0,0.0,0.0,0.0,0.0,0.0,0.0,0.0,0.0,0.0,0.0,0.0,0.0,0.0,0.0,0.0,0.0,0.0,0.0,0.0,0.0,0.0,0.0,0.0,0.0,0.0,0.0,0.0,0.0,0.0,0.0,0.0,0.0,0.0,0.0,0.0,0.0,0.0,0.0,0.0,0.0,0.0,0.0,0.0,0.0,0.0,0.0,0.0,0.0,0.0,0.0,0.0,0.0,0.0,0.0,0.0,0.0,0.0,0.0,0.0,0.0,0.0,0.0,0.0,0.0,0.0,0.0,0.0,0.0,0.0,0.0,0.0,0.0,0.0,0.0,0.0,0.0,0.0,0.0,0.0,0.0,0.0,0.0,0.0,0.0,0.0,0.0,0.0,0.0,0.0,0.0,0.0,0.0,0.0,0.0,0.0,0.0,0.0,0.0,0.0,0.0,0.0,0.0,0.0,0.0,0.0,0.0,0.0,0.0,0.0,0.0,0.0,0.0,0.0,0.0,0.0,0.0,0.0,0.0,0.0,0.0,0.0,0.0,0.0,0.0,0.0,0.0,0.0,0.0,0.0,0.0,0.0,0.0,0.0,0.0,0.0,0.0,0.0,0.0,0.0,0.0,0.0,0.0,0.0,0.0,0.0,0.0,0.0,0.0,0.0,0.0,0.0,0.0,0.0,0.0,0.0,0.0,0.0,0.0,0.0,0.0,0.0,0.0,0.0,0.0,0.0,0.0,0.0,0.0,0.0,0.0,0.0,0.0,0.0,0.0,0.0,0.0,0.0,0.0,0.0,0.0,0.0,0.0,0.0,0.0,0.0,0.0,0.0,0.0,0.0,0.0,0.0,0.0,0.0,0.0,0.0,0.0,0.0,0.0,0.0,0.0,0.0,0.0,0.0,0.0,0.0,0.0,0.0,0.0,0.0,0.0,0.0,0.0,0.0,0.0,0.0,0.0,0.0,0.0,0.0,0.0,0.0,0.0,0.0,0.0,0.0,0.0,0.0,0.0,0.0,0.0,0.0,0.0,0.0,0.0,0.0,0.0,0.0,0.0,0.0,0.0,0.0,0.0,0.0,0.0,0.0,0.0,0.0,0.0,0.0,0.0,0.0,0.0,0.0,0.0,0.0,0.0,0.0,0.0,0.0,0.0,0.0,0.0,0.0,0.0,0.0,0.0,0.0,0.0,0.0,0.0,0.0,0.0,0.0,0.0,0.0,0.0,0.0,0.0,0.0,0.0,0.0,0.0,0.0,0.0,0.0,0.0,0.0,0.0,0.0,0.0,0.0,0.0,0.0,0.0,0.0,0.0,0.0,0.0,0.0,0.0,0.0,0.0,0.0,0.0,0.0,0.0,0.0,0.0,0.0,0.0,0.0,0.0,0.0,0.0,0.0,0.0,0.0,0.0,0.0,0.0,0.0,0.0,0.0,0.0,0.0,0.0,0.0,0.0,0.0,0.0,0.0,0.0,0.0,0.0,0.0,0.0,0.0,0.0,0.0,0.0,0.0,0.0,0.0,0.0,0.0,0.0,0.0,0.0,0.0,0.0,0.0,0.0,0.0,0.0,0.0,0.0,0.0,0.0,0.0,0.0,0.0,0.0,0.0,0.0,0.0,0.0,0.0,0.0,0.0,0.0,0.0,0.0,0.0,0.0,0.0,0.0,0.0,0.0,0.0,0.0,0.0,0.0,0.0,0.0,0.0,0.0,0.0,0.0,0.0,0.0,0.0,0.0,0.0,0.0,0.0,0.0,0.0,0.0,0.0,0.0,0.0,0.0,0.0,0.0,0.0,0.0,0.0,0.0,0.0,0.0,0.0,0.0,0.0,0.0,0.0,0.0,0.0,0.0,0.0,0.0,0.0,0.0,0.0,0.0,0.0,0.0,0.0,0.0,0.0,0.0,0.0,0.0,0.0,0.0,0.0,0.0,0.0,0.0,0.0,0.0,0.0,0.0,0.0,0.0,0.0,0.0,0.0,0.0,0.0,0.0,0.0,0.0,0.0,0.0,0.0,0.0,0.0,0.0,0.0,0.0,0.0,0.0,0.0,0.0,0.0,0.0,0.0,0.0,0.0,0.0,0.0,0.0,0.0,0.0,0.0,0.0,0.0,0.0,0.0,0.0,0.0,0.0,0.0,0.0,0.0,0.0,0.0,0.0,0.0,0.0,0.0,0.0,0.0,0.0,0.0,0.0,0.0,0.0,0.0,0.0,0.0,0.0,0.0,0.0,0.0,0.0,0.0,0.0,0.0,0.0,0.0,0.0,0.0,0.0,0.0,0.0,0.0,0.0,0.0,0.0,0.0,0.0,0.0,0.0,0.0,0.0,0.0,0.0,0.0,0.0,0.0,0.0,0.0,0.0,0.0,0.0,0.0,0.0,0.0,0.0,0.0,0.0,0.0,0.0,0.0,0.0,0.0,0.0,0.0,0.0,0.0,0.0,0.0,0.0,0.0,0.0,0.0,0.0,0.0,0.0,0.0,0.0,0.0,0.0,0.0,0.0,0.0,0.0,0.0,0.0,0.0,0.0,0.0,0.0,0.0,0.0,0.0,0.0,0.0,0.0,0.0,0.0,0.0,0.0,0.0,0.0,0.0,0.0,0.0,0.0,0.0,0.0,0.0,0.0,0.0,0.0,0.0,0.0,0.0,0.0,0.0,0.0,0.0,0.0,0.0,0.0,0.0,0.0,0.0,0.0,0.0,0.0,0.0,0.0,0.0,0.0,0.0,0.0,0.0,0.0,0.0,0.0,0.0,0.0,0.0,0.0,0.0,0.0,0.0,0.0,0.0,0.0,0.0,0.0,0.0,0.0,0.0,0.0,0.0,0.0,0.0,0.0,0.0,0.0,0.0,0.0,0.0,0.0,0.0,0.0,0.0,0.0,0.0,0.0,0.0,0.0,0.0,0.0,0.0,0.0,0.0,0.0,0.0,0.0,0.0,0.0,0.0,0.0,0.0,0.0,0.0,0.0,0.0,0.0,0.0,0.0,0.0,0.0,0.0,0.0,0.0,0.0,0.0,0.0,0.0,0.0,0.0,0.0,0.0,0.0,0.0,0.0,0.0,0.0,0.0,0.0,0.0,0.0,0.0,0.0,0.0,0.0,0.0,0.0,0.0,0.0,0.0,0.0,0.0,0.0,0.0,0.0,0.0,0.0,0.0,0.0,0.0,0.0,0.0,0.0,0.0,0.0,0.0,0.0,0.0,0.0,0.0,0.0,0.0,0.0,0.0,0.0,0.0,0.0,0.0,0.0,0.0,0.0,0.0,0.0,0.0,0.0,0.0,0.0,0.0,0.0,0.0,0.0,0.0,0.0,0.0,0.0,0.0,0.0,0.0,0.0,0.0,0.0,0.0,0.0,0.0,0.0,0.0,0.0,0.0,0.0,0.0,0.0,0.0,0.0,0.0,0.0,0.0,0.0,0.0,0.0,0.0,0.0,0.0,0.0,0.0,0.0,0.0,0.0,0.0,0.0,0.0,0.0,0.0,0.0,0.0,0.0,0.0,0.0,0.0,1.0586,0.0,0.0,0.0,0.0,0.0,0.0,0.0,0.0,0.0,0.0,0.0,0.0,0.0,0.0,0.0,0.0,0.0,0.0,0.0,0.0,0.0,0.0,0.0,0.0,0.0,0.0,0.0,0.0,0.0,0.0,0.0,0.0,0.0,0.0,0.0,0.0,0.0,0.0,0.0,0.0,0.0,0.0,0.0,0.0,0.0,0.0,0.0,0.0,0.0,0.0,0.0,0.0,0.0,0.0,0.0,0.0,0.0,0.0,0.0,0.0,0.0,0.0,0.0,0.0,0.0,0.0,0.0,0.0,0.0,0.0,0.0,0.0,0.0,0.0,0.0,0.0,0.0,0.0,0.0,0.0,0.0,0.0,0.0,0.0,0.0,0.0,0.0,0.0,0.0,0.0,0.0,0.0,0.0,0.0,0.0,0.0,0.0,0.0,0.0,0.0,0.0,0.0,0.0,0.0,0.0,0.0,0.0,0.0,0.0,0.0,1.0165,1.0434,1.0434,1.0482,1.0586,0.0,0.0,0.0,0.0,0.0,0.0,0.0,0.0,0.0,0.0,0.0,0.0,0.0,0.0,0.0,0.0,0.0,0.0,0.0,0.0,0.0,0.0,0.0,0.0,0.0,0.0,0.0,0.0,0.0,0.0,0.0,0.0,0.0,0.0,0.0,0.0,0.0,0.0,0.0,0.0,0.0,0.0,0.0,0.0,0.0,0.0,0.0,0.0,0.0,0.0,0.0,0.0,0.0,0.0,0.0,0.0,0.0,0.0,0.0,0.0,0.0,0.0,0.0,0.0,0.0,0.0,0.0,0.0,0.0,0.0,0.0,0.0,0.0,0.0,0.0,0.0,0.0,0.0,0.0,0.0,0.0,0.0,0.0,0.0,0.0,0.0,0.0,0.0,0.0,0.0,0.0,0.0,0.0,0.0,0.0,0.0,0.0,0.0,0.0,0.0,0.0,0.0,0.0,0.0,0.0,0.0,0.0,0.0,0.0,0.0,0.0,0.0,1.0276,1.0387,1.0577,0.0,0.0,0.0,0.0,0.0,0.0,0.0,0.0,0.0,0.0,0.0,0.0,0.0,0.0,0.0,0.0,0.0,0.0,0.0,0.0,0.0,0.0,0.0,0.0,0.0,0.0,0.0,0.0,0.0,0.0,0.0,0.0,0.0,0.0,0.0,0.0,0.0,0.0,0.0,0.0,0.0,0.0,0.0,0.0,0.0,0.0,0.0,0.0,0.0,0.0,0.0,0.0,0.0,0.0,0.0,0.0,0.0,0.0,0.0,0.0,0.0,0.0,0.0,0.0,0.0,0.0,0.0,0.0,0.0,0.0,0.0,0.0,0.0,0.0,0.0,0.0,0.0,0.0,0.0,0.0,0.0,0.0,0.0,0.0,0.0,0.0,0.0,0.0,0.0,0.0,0.0,0.0,0.0,0.0,0.0,0.0,0.0,0.0,0.0,0.0,0.0,0.0,0.0,0.0,0.0,0.0,0.0,0.0,0.0,0.0,0.9504,0.9836,1.0133,0.0,1.0577,0.0,0.0,0.0,0.0,0.0,0.0,0.0,0.0,0.0,0.0,0.0,0.0,0.0,0.0,0.0,0.0,0.0,0.0,0.0,0.0,0.0,0.0,0.0,0.0,0.0,0.0,0.0,0.0,0.0,0.0,0.0,0.0,0.0,0.0,0.0,0.0,0.0,0.0,0.0,0.0,0.0,0.0,0.0,0.0,0.0,0.0,0.0,0.0,0.0,0.0,0.0,0.0,0.0,0.0,0.0,0.0,0.0,0.0,0.0,0.0,0.0,0.0,0.0,0.0,0.0,0.0,0.0,0.0,0.0,0.0,0.0,0.0,0.0,0.0,0.0,0.0,0.0,0.0,0.0,0.0,0.0,0.0,0.0,0.0,0.0,0.0,0.0,0.0,0.0,0.0,0.0,0.0,0.0,0.0,0.0,0.0,0.0,0.0,0.0,0.0,0.0,0.0,0.0,0.0,0.0,0.0,0.0,0.0,0.0,0.0,0.884,0.9488,1.0015,1.0355,0.0,0.0,0.0,0.0,0.0,0.0,0.0,0.0,0.0,0.0,0.0,0.0,0.0,0.0,0.0,0.0,0.0,0.0,0.0,0.0,0.0,0.0,0.0,0.0,0.0,0.0,0.0,0.0,0.0,0.0,0.0,0.0,0.0,0.0,0.0,0.0,0.0,0.0,0.0,0.0,0.0,0.0,0.0,0.0,0.0,0.0,0.0,0.0,0.0,0.0,0.0,0.0,0.0,0.0,0.0,0.0,0.0,0.0,0.0,0.0,0.0,0.0,0.0,0.0,0.0,0.0,0.0,0.0,0.0,0.0,0.0,0.0,0.0,0.0,0.0,0.0,0.0,0.0,0.0,0.0,0.0,0.0,0.0,0.0,0.0,0.0,0.0,0.0,0.0,0.0,0.0,0.0,0.0,0.0,0.0,0.0,0.0,0.0,0.0,0.0,0.0,0.0,0.0,0.0,0.0,0.0,0.0,0.0,0.0,0.0,0.7608,0.8214,0.9129,0.9754,1.0126,1.0222,0.0,0.0,0.0,0.0,0.0,0.0,0.0,0.0,0.0,0.0,0.0,0.0,0.0,0.0,0.0,0.0,0.0,0.0,0.0,0.0,0.0,0.0,0.0,0.0,0.0,0.0,0.0,0.0,0.0,0.0,0.0,0.0,0.0,0.0,0.0,0.0,0.0,0.0,0.0,0.0,0.0,0.0,0.0,0.0,0.0,0.0,0.0,0.0,0.0,0.0,0.0,0.0,0.0,0.0,0.0,0.0,0.0,0.0,0.0,0.0,0.0,0.0,0.0,0.0,0.0,0.0,0.0,0.0,0.0,0.0,0.0,0.0,0.0,0.0,0.0,0.0,0.0,0.0,0.0,0.0,0.0,0.0,0.0,0.0,0.0,0.0,0.0,0.0,0.0,0.0,0.0,0.0,0.0,0.0,0.0,0.0,0.0,0.0,0.0,0.0,0.0,0.0,0.0,0.0,0.0,0.0,0.0,0.0,0.672,0.7068,0.7743,0.8781,0.9284,0.9684,0.0,0.0,0.0,0.0,0.0,0.0,0.0,0.0,0.0,0.0,0.0,0.0,0.0,0.0,0.0,0.0,0.0,0.0,0.0,0.0,0.0,0.0,0.0,0.0,0.0,0.0,0.0,0.0,0.0,0.0,0.0,0.0,0.0,0.0,0.0,0.0,0.0,0.0,0.0,0.0,0.0,0.0,0.0,0.0,0.0,0.0,0.0,0.0,0.0,0.0,0.0,0.0,0.0,0.0,0.0,0.0,0.0,0.0,0.0,0.0,0.0,0.0,0.0,0.0,0.0,0.0,0.0,0.0,0.0,0.0,0.0,0.0,0.0,0.0,0.0,0.0,0.0,0.0,0.0,0.0,0.0,0.0,0.0,0.0,0.0,0.0,0.0,0.0,0.0,0.0,0.0,0.0,0.0,0.0,0.0,0.0,0.0,0.0,0.0,0.0,0.0,0.0,0.0,0.0,0.0,0.0,0.0,0.0,0.0,0.5996,0.679,0.7428,0.7961,0.8662,0.921,0.0,0.0,0.0,0.0,0.0,0.0,0.0,0.0,0.0,0.0,0.0,0.0,0.0,0.0,0.0,0.0,0.0,0.0,0.0,0.0,0.0,0.0,0.0,0.0,0.0,0.0,0.0,0.0,0.0,0.0,0.0,0.0,0.0,0.0,0.0,0.0,0.0,0.0,0.0,0.0,0.0,0.0,0.0,0.0,0.0,0.0,0.0,0.0,0.0,0.0,0.0,0.0,0.0,0.0,0.0,0.0,0.0,0.0,0.0,0.0,0.0,0.0,0.0,0.0,0.0,0.0,0.0,0.0,0.0,0.0,0.0,0.0,0.0,0.0,0.0,0.0,0.0,0.0,0.0,0.0,0.0,0.0,0.0,0.0,0.0,0.0,0.0,0.0,0.0,0.0,0.0,0.0,0.0,0.0,0.0,0.0,0.0,0.0,0.0,0.0,0.0,0.0,0.0,0.0,0.0,0.0,0.0,0.0,0.0,0.5335,0.0,0.6937,0.7146,0.7982,0.8641,0.0,0.0,0.0,0.0,0.0,0.0,0.0,0.0,0.0,0.0,0.0,0.0,0.0,0.0,0.0,0.0,0.0,0.0,0.0,0.0,0.0,0.0,0.0,0.0,0.0,0.0,0.0,0.0,0.0,0.0,0.0,0.0,0.0,0.0,0.0,0.0,0.0,0.0,0.0,0.0,0.0,0.0,0.0,0.0,0.0,0.0,0.0,0.0,0.0,0.0,0.0,0.0,0.0,0.0,0.0,0.0,0.0,0.0,0.0,0.0,0.0,0.0,0.0,0.0,0.0,0.0,0.0,0.0,0.0,0.0,0.0,0.0,0.0,0.0,0.0,0.0,0.0,0.0,0.0,0.0,0.0,0.0,0.0,0.0,0.0,0.0,0.0,0.0,0.0,0.0,0.0,0.0,0.0,0.0,0.0,0.0,0.0,0.0,0.0,0.0,0.0,0.0,0.0,0.0,0.0,0.0,0.0,0.0,0.4233,0.4797,0.5617,0.6161,0.64,0.7207,0.7934,0.0,0.0,0.0,0.0,0.0,0.0,0.0,0.0,0.0,0.0,0.0,0.0,0.0,0.0,0.0,0.0,0.0,0.0,0.0,0.0,0.0,0.0,0.0,0.0,0.0,0.0,0.0,0.0,0.0,0.0,0.0,0.0,0.0,0.0,0.0,0.0,0.0,0.0,0.0,0.0,0.0,0.0,0.0,0.0,0.0,0.0,0.0,0.0,0.0,0.0,0.0,0.0,0.0,0.0,0.0,0.0,0.0,0.0,0.0,0.0,0.0,0.0,0.0,0.0,0.0,0.0,0.0,0.0,0.0,0.0,0.0,0.0,0.0,0.0,0.0,0.0,0.0,0.0,0.0,0.0,0.0,0.0,0.0,0.0,0.0,0.0,0.0,0.0,0.0,0.0,0.0,0.0,0.0,0.0,0.0,0.0,0.0,0.0,0.0,0.0,0.0,0.0,0.0,0.0,0.0,0.0,0.0,0.0,0.0,0.4078,0.4586,0.5067,0.5488,0.612,0.6826,0.0,0.0,0.0,0.0,0.0,0.0,0.0,0.0,0.0,0.0,0.0,0.0,0.0,0.0,0.0,0.0,0.0,0.0,0.0,0.0,0.0,0.0,0.0,0.0,0.0,0.0,0.0,0.0,0.0,0.0,0.0,0.0,0.0,0.0,0.0,0.0,0.0,0.0,0.0,0.0,0.0,0.0,0.0,0.0,0.0,0.0,0.0,0.0,0.0,0.0,0.0,0.0,0.0,0.0,0.0,0.0,0.0,0.0,0.0,0.0,0.0,0.0,0.0,0.0,0.0,0.0,0.0,0.0,0.0,0.0,0.0,0.0,0.0,0.0,0.0,0.0,0.0,0.0,0.0,0.0,0.0,0.0,0.0,0.0,0.0,0.0,0.0,0.0,0.0,0.0,0.0,0.0,0.0,0.0,0.0,0.0,0.0,0.0,0.0,0.0,0.0,0.0,0.0,0.0,0.0,0.0,0.0,0.0,0.0,0.2526,0.3475,0.418,0.464,0.5217,0.5913,0.6718,0.0,0.0,0.0,0.0,0.0,0.0,0.0,0.0,0.0,0.0,0.0,0.0,0.0,0.0,0.0,0.0,0.0,0.0,0.0,0.0,0.0,0.0,0.0,0.0,0.0,0.0,0.0,0.0,0.0,0.0,0.0,0.0,0.0,0.0,0.0,0.0,0.0,0.0,0.0,0.0,0.0,0.0,0.0,0.0,0.0,0.0,0.0,0.0,0.0,0.0,0.0,0.0,0.0,0.0,0.0,0.0,0.0,0.0,0.0,0.0,0.0,0.0,0.0,0.0,0.0,0.0,0.0,0.0,0.0,0.0,0.0,0.0,0.0,0.0,0.0,0.0,0.0,0.0,0.0,0.0,0.0,0.0,0.0,0.0,0.0,0.0,0.0,0.0,0.0,0.0,0.0,0.0,0.0,0.0,0.0,0.0,0.0,0.0,0.0,0.0,0.0,0.0,0.0,0.0,0.0,0.0,0.0,0.0,0.0256,0.2175,0.334,0.3761,0.4416,0.5133,0.0,0.0,0.0,0.0,0.0,0.0,0.0,0.0,0.0,0.0,0.0,0.0,0.0,0.0,0.0,0.0,0.0,0.0,0.0,0.0,0.0,0.0,0.0,0.0,0.0,0.0,0.0,0.0,0.0,0.0,0.0,0.0,0.0,0.0,0.0,0.0,0.0,0.0,0.0,0.0,0.0,0.0,0.0,0.0,0.0,0.0,0.0,0.0,0.0,0.0,0.0,0.0,0.0,0.0,0.0,0.0,0.0,0.0,0.0,0.0,0.0,0.0,0.0,0.0,0.0,0.0,0.0,0.0,0.0,0.0,0.0,0.0,0.0,0.0,0.0,0.0,0.0,0.0,0.0,0.0,0.0,0.0,0.0,0.0,0.0,0.0,0.0,0.0,0.0,0.0,0.0,0.0,0.0,0.0,0.0,0.0,0.0,0.0,0.0,0.0,0.0,0.0,0.0,0.0,0.0,0.0,0.0,0.0,0.0,-0.1114,-0.0156,0.1008,0.2302,0.2987,0.3754,0.0,0.0,0.0,0.0,0.0,0.0,0.0,0.0,0.0,0.0,0.0,0.0,0.0,0.0,0.0,0.0,0.0,0.0,0.0,0.0,0.0,0.0,0.0,0.0,0.0,0.0,0.0,0.0,0.0,0.0,0.0,0.0,0.0,0.0,0.0,0.0,0.0,0.0,0.0,0.0,0.0,0.0,0.0,0.0,0.0,0.0,0.0,0.0,0.0,0.0,0.0,0.0,0.0,0.0,0.0,0.0,0.0,0.0,0.0,0.0,0.0,0.0,0.0,0.0,0.0,0.0,0.0,0.0,0.0,0.0,0.0,0.0,0.0,0.0,0.0,0.0,0.0,0.0,0.0,0.0,0.0,0.0,0.0,0.0,0.0,0.0,0.0,0.0,0.0,0.0,0.0,0.0,0.0,0.0,0.0,0.0,0.0,0.0,0.0,0.0,0.0,0.0,0.0,0.0,0.0,0.0,0.0,0.0,-0.2857,-0.262,-0.2217,-0.138,-0.008,0.1323,0.247,0.0,0.0,0.0,0.0,0.0,0.0,0.0,0.0,0.0,0.0,0.0,0.0,0.0,0.0,0.0,0.0,0.0,0.0,0.0,0.0,0.0,0.0,0.0,0.0,0.0,0.0,0.0,0.0,0.0,0.0,0.0,0.0,0.0,0.0,0.0,0.0,0.0,0.0,0.0,0.0,0.0,0.0,0.0,0.0,0.0,0.0,0.0,0.0,0.0,0.0,0.0,0.0,0.0,0.0,0.0,0.0,0.0,0.0,0.0,0.0,0.0,0.0,0.0,0.0,0.0,0.0,0.0,0.0,0.0,0.0,0.0,0.0,0.0,0.0,0.0,0.0,0.0,0.0,0.0,0.0,0.0,0.0,0.0,0.0,0.0,0.0,0.0,0.0,0.0,0.0,0.0,0.0,0.0,0.0,0.0,0.0,0.0,0.0,0.0,0.0,0.0,0.0,0.0,0.0,0.0,0.0,0.0,0.0,-0.4294,-0.4063,-0.3986,-0.3595,-0.2813,-0.051,0.1212,0.0,0.0,0.0,0.0,0.0,0.0,0.0,0.0,0.0,0.0,0.0,0.0,0.0,0.0,0.0,0.0,0.0,0.0,0.0,0.0,0.0,0.0,0.0,0.0,0.0,0.0,0.0,0.0,0.0,0.0,0.0,0.0,0.0,0.0,0.0,0.0,0.0,0.0,0.0,0.0,0.0,0.0,0.0,0.0,0.0,0.0,0.0,0.0,0.0,0.0,0.0,0.0,0.0,0.0,0.0,0.0,0.0,0.0,0.0,0.0,0.0,0.0,0.0,0.0,0.0,0.0,0.0,0.0,0.0,0.0,0.0,0.0,0.0,0.0,0.0,0.0,0.0,0.0,0.0,0.0,0.0,0.0,0.0,0.0,0.0,0.0,0.0,0.0,0.0,0.0,0.0,0.0,0.0,0.0,0.0,0.0,0.0,0.0,0.0,0.0,0.0,0.0,0.0,0.0,0.0,0.0,0.0,0.0,-0.4971,-0.5072,-0.4957,-0.4767,-0.4482,-0.2163,-0.0441,0.0,0.0,0.0,0.0,0.0,0.0,0.0,0.0,0.0,0.0,0.0,0.0,0.0,0.0,0.0,0.0,0.0,0.0,0.0,0.0,0.0,0.0,0.0,0.0,0.0,0.0,0.0,0.0,0.0,0.0,0.0,0.0,0.0,0.0,0.0,0.0,0.0,0.0,0.0,0.0,0.0,0.0,0.0,0.0,0.0,0.0,0.0,0.0,2.1074,0.0,0.0,0.0,0.0,0.0,0.0,0.0,0.0,0.0,0.0,0.0,0.0,0.0,0.0,0.0,0.0,0.0,0.0,0.0,0.0,0.0,0.0,0.0,0.0,0.0,0.0,0.0,0.0,0.0,0.0,0.0,0.0,0.0,0.0,0.0,0.0,0.0,0.0,0.0,0.0,0.0,0.0,0.0,0.0,0.0,0.0,0.0,0.0,0.0,0.0,0.0,0.0,0.0,0.0,0.0,0.0,0.0,0.0,0.0,-0.6357,-0.6379,-0.6587,-0.6416,-0.5777,-0.4302,-0.2729,0.0,0.0,0.0,0.0,0.0,0.0,0.0,0.0,0.0,0.0,0.0,0.0,0.0,0.0,0.0,0.0,0.0,0.0,0.0,0.0,0.0,0.0,0.0,0.0,0.0,0.0,0.0,0.0,0.0,0.0,0.0,0.0,0.0,0.0,0.0,0.0,0.0,0.0,0.0,0.0,0.0,0.0,0.0,0.0,0.0,0.0,0.0,0.0,0.0,0.0,0.0,0.0,0.0,0.0,0.0,0.0,0.0,0.0,0.0,0.0,0.0,0.0,0.0,0.0,0.0,0.0,0.0,0.0,0.0,0.0,0.0,0.0,0.0,0.0,0.0,0.0,0.0,0.0,0.0,0.0,0.0,0.0,0.0,0.0,0.0,0.0,0.0,0.0,0.0,0.0,0.0,0.0,0.0,0.0,0.0,0.0,0.0,0.0,0.0,0.0,0.0,0.0,0.0,0.0,0.0,0.0,0.0,-0.7549,-0.7754,-0.7599,-0.8146,-0.7971,-0.6945,-0.64,-0.5061,-0.283,0.0,0.0,0.0,0.0,0.0,0.0,0.0,0.0,0.0,0.0,0.0,0.0,0.0,0.0,0.0,0.0,0.0,0.0,0.0,0.0,0.0,0.0,0.0,0.0,0.0,0.0,0.0,0.0,0.0,0.0,0.0,0.0,0.0,0.0,0.0,0.0,0.0,0.0,1.9873,2.1094,0.0,0.0,0.0,0.0,0.0,0.0,0.0,0.0,2.2996,0.0,0.0,0.0,0.0,0.0,0.0,0.0,0.0,0.0,0.0,0.0,0.0,0.0,0.0,0.0,0.0,0.0,0.0,0.0,0.0,0.0,0.0,0.0,0.0,0.0,0.0,0.0,0.0,0.0,0.0,0.0,0.0,0.0,0.0,0.0,0.0,0.0,0.0,0.0,0.0,0.0,0.0,0.0,0.0,0.0,0.0,0.0,0.0,0.0,0.0,0.0,0.0,0.0,0.0,0.0,0.0,-0.7401,-0.7824,-0.7977,-0.7852,-0.8421,-0.8419,-0.7787,-0.7365,-0.6523,-0.5133,0.0,0.0,0.0,0.0,0.0,0.0,0.0,0.0,0.0,0.0,0.0,0.0,0.0,0.0,0.0,0.0,0.0,0.0,0.0,0.0,0.0,0.0,0.0,0.0,0.0,0.0,0.0,0.0,0.0,0.0,0.0,0.0,0.0,0.0,0.0,0.0,0.0,0.0,0.0,2.1206,2.1628,0.0,0.0,0.0,0.0,0.0,0.0,0.0,0.0,2.402,0.0,0.0,0.0,0.0,0.0,0.0,0.0,0.0,0.0,0.0,0.0,0.0,0.0,0.0,0.0,0.0,0.0,0.0,0.0,0.0,0.0,0.0,0.0,0.0,0.0,0.0,0.0,0.0,0.0,0.0,0.0,0.0,0.0,0.0,0.0,0.0,0.0,0.0,0.0,0.0,0.0,0.0,0.0,0.0,0.0,0.0,0.0,0.0,0.0,0.0,0.0,0.0,0.0,0.0,0.0,-0.8654,-0.9179,-0.9451,-0.9467,-0.9836,-0.9627,-0.8785,-0.8157,-0.7238,0.0,0.0,0.0,0.0,0.0,0.0,0.0,0.0,0.0,0.0,0.0,0.0,0.0,0.0,0.0,0.0,0.0,0.0,0.0,0.0,0.0,0.0,0.0,0.0,0.0,0.0,0.0,0.0,0.0,0.0,0.0,0.0,0.0,0.0,0.0,0.0,0.0,0.0,0.0,0.0,2.1344,2.2017,2.2133,0.0,0.0,0.0,0.0,0.0,0.0,2.4787,2.4928,0.0,0.0,0.0,0.0,0.0,0.0,0.0,0.0,0.0,0.0,0.0,0.0,0.0,0.0,0.0,0.0,0.0,0.0,0.0,0.0,0.0,0.0,0.0,0.0,0.0,0.0,0.0,0.0,0.0,0.0,0.0,0.0,0.0,0.0,0.0,0.0,0.0,0.0,0.0,0.0,0.0,0.0,0.0,0.0,0.0,0.0,0.0,0.0,0.0,0.0,0.0,0.0,0.0,0.0,0.0,-0.9904,-1.0474,-1.0807,-1.091,-1.1109,-1.0672,-0.9563,-0.8723,-0.7665,0.0,0.0,0.0,0.0,0.0,0.0,0.0,0.0,0.0,0.0,0.0,0.0,0.0,0.0,0.0,0.0,0.0,0.0,0.0,0.0,0.0,0.0,0.0,0.0,0.0,0.0,0.0,0.0,0.0,0.0,0.0,0.0,0.0,0.0,0.0,0.0,0.0,0.0,0.0,0.0,0.0,2.2328,2.2434,2.2796,0.0,0.0,0.0,0.0,2.5542,2.5708,0.0,0.0,0.0,0.0,0.0,0.0,0.0,0.0,0.0,0.0,0.0,0.0,0.0,0.0,0.0,0.0,0.0,0.0,0.0,0.0,0.0,0.0,0.0,0.0,0.0,0.0,0.0,0.0,0.0,0.0,0.0,0.0,0.0,0.0,0.0,0.0,0.0,0.0,0.0,0.0,0.0,0.0,0.0,0.0,0.0,0.0,0.0,0.0,0.0,0.0,0.0,0.0,0.0,0.0,0.0,0.0,-1.0576,-1.0833,-1.0953,-1.092,-1.1104,-1.0716,-0.9702,-0.8952,-0.7948,0.0,0.0,0.0,0.0,0.0,0.0,0.0,0.0,0.0,0.0,0.0,0.0,0.0,0.0,0.0,0.0,0.0,0.0,0.0,0.0,0.0,0.0,0.0,0.0,0.0,0.0,0.0,0.0,0.0,0.0,0.0,0.0,0.0,0.0,0.0,0.0,0.0,0.0,0.0,0.0,0.0,2.2074,2.2604,2.3339,2.3896,0.0,0.0,2.5107,2.564,2.5708,0.0,0.0,0.0,0.0,0.0,0.0,0.0,0.0,0.0,0.0,0.0,0.0,0.0,0.0,0.0,0.0,0.0,0.0,0.0,0.0,0.0,0.0,0.0,0.0,0.0,0.0,0.0,0.0,0.0,0.0,0.0,0.0,0.0,0.0,0.0,0.0,0.0,0.0,0.0,0.0,0.0,0.0,0.0,0.0,0.0,0.0,0.0,0.0,0.0,0.0,0.0,0.0,0.0,0.0,0.0,-1.1558,-1.2068,-1.2456,-1.2684,-1.2797,-1.2458,-1.1888,-1.1096,-0.9718,-0.8484,0.0,0.0,0.0,0.0,0.0,0.0,0.0,0.0,0.0,0.0,0.0,0.0,0.0,0.0,0.0,0.0,0.0,0.0,0.0,0.0,0.0,0.0,0.0,0.0,0.0,0.0,0.0,0.0,0.0,0.0,0.0,0.0,0.0,0.0,0.0,0.0,0.0,0.0,0.0,0.0,0.0,0.0,2.2595,2.3446,0.0,0.0,0.0,2.5659,2.6332,0.0,0.0,0.0,0.0,0.0,0.0,0.0,0.0,0.0,0.0,0.0,0.0,0.0,0.0,0.0,0.0,0.0,0.0,0.0,0.0,0.0,0.0,0.0,0.0,0.0,0.0,0.0,0.0,0.0,0.0,0.0,0.0,0.0,0.0,0.0,0.0,0.0,0.0,0.0,0.0,0.0,0.0,0.0,0.0,0.0,0.0,0.0,0.0,0.0,0.0,0.0,0.0,0.0,0.0,0.0,0.0,0.0,-1.3266,-1.3687,-1.4063,-1.4358,-1.3619,-1.2872,-1.2199,-1.0417,0.0,0.0,0.0,0.0,0.0,0.0,0.0,0.0,0.0,0.0,0.0,0.0,0.0,0.0,0.0,0.0,0.0,0.0,0.0,0.0,0.0,0.0,0.0,0.0,0.0,0.0,0.0,1.1364,0.0,0.0,0.0,0.0,0.0,0.0,0.0,0.0,0.0,0.0,0.0,0.0,0.0,0.0,2.127,2.2582,2.3663,2.4662,0.0,0.0,2.6284,2.706,2.6738,2.624,0.0,0.0,0.0,0.0,0.0,0.0,0.0,0.0,0.0,0.0,0.0,0.0,0.0,0.0,0.0,0.0,0.0,0.0,0.0,0.0,0.0,0.0,0.0,0.0,0.0,0.0,0.0,0.0,0.0,0.0,0.0,0.0,0.0,0.0,0.0,0.0,0.0,0.0,0.0,0.0,0.0,0.0,0.0,0.0,0.0,0.0,0.0,0.0,0.0,0.0,0.0,0.0,0.0,0.0,0.0,-1.3736,-1.3859,-1.4183,-1.4617,-1.3876,-1.3142,-1.2455,-1.0785,-0.9313,0.0,0.0,0.0,0.0,0.0,0.0,0.0,0.0,0.0,0.0,0.0,0.0,0.0,0.0,0.0,0.0,0.0,0.0,0.0,0.0,0.0,0.0,0.0,0.0,0.0,0.0,0.0,0.0,0.0,0.0,0.0,0.0,0.0,0.0,0.0,0.0,0.0,0.0,0.0,0.0,0.0,2.1434,2.2473,2.4315,2.5708,0.0,0.0,2.709,2.7575,2.6949,2.624,2.5776,0.0,0.0,0.0,0.0,0.0,0.0,0.0,0.0,0.0,0.0,0.0,0.0,0.0,0.0,0.0,0.0,0.0,0.0,0.0,0.0,0.0,0.0,0.0,0.0,0.0,0.0,0.0,0.0,0.0,0.0,0.0,0.0,0.0,0.0,0.0,0.0,0.0,0.0,0.0,0.0,0.0,0.0,0.0,0.0,0.0,0.0,0.0,0.0,0.0,0.0,0.0,0.0,0.0,-1.3961,-1.4783,-1.5173,-1.5569,-1.5862,-1.4994,-1.4188,-1.3641,-1.1538,-0.9982,0.0,0.0,0.0,0.0,0.0,0.0,0.0,0.0,0.0,0.0,0.0,0.0,0.0,0.0,0.0,0.0,0.0,0.0,0.0,0.0,0.0,0.0,0.0,0.0,0.0,0.0,0.0,0.0,1.3049,1.3911,1.4218,0.0,0.0,0.0,0.0,0.0,0.0,0.0,0.0,0.0,0.0,2.063,2.2034,2.3736,0.0,0.0,2.6305,2.6689,2.6881,2.6377,2.584,2.5391,2.4134,0.0,0.0,0.0,0.0,0.0,0.0,0.0,0.0,0.0,0.0,0.0,0.0,0.0,0.0,0.0,0.0,0.0,0.0,0.0,0.0,0.0,0.0,0.0,0.0,0.0,0.0,0.0,0.0,0.0,0.0,0.0,0.0,0.0,0.0,0.0,0.0,0.0,0.0,0.0,0.0,0.0,0.0,0.0,0.0,0.0,0.0,0.0,0.0,0.0,0.0,0.0,0.0,-1.4522,-1.5414,-1.5996,-1.6478,-1.6834,-1.5751,-1.4934,-1.4384,-1.2167,-1.0534,0.0,0.0,0.0,0.0,0.0,0.0,0.0,0.0,0.0,0.0,0.0,0.0,0.0,0.0,0.0,0.0,0.0,0.0,0.0,0.0,0.0,0.0,0.0,0.0,0.0,0.0,0.0,0.0,1.2824,1.3749,1.3952,0.0,0.0,0.0,0.0,0.0,0.0,0.0,0.0,0.0,0.0,2.0136,2.1653,2.3212,2.4612,2.5592,2.6034,2.6248,2.6221,2.582,2.5342,2.4799,0.0,0.0,0.0,0.0,0.0,0.0,0.0,0.0,0.0,0.0,0.0,0.0,0.0,0.0,0.0,0.0,0.0,0.0,0.0,0.0,0.0,0.0,0.0,0.0,0.0,0.0,0.0,0.0,0.0,0.0,-1.4819,0.0,0.0,0.0,0.0,0.0,0.0,0.0,0.0,0.0,0.0,0.0,0.0,0.0,0.0,0.0,0.0,0.0,0.0,0.0,0.0,0.0,0.0,-1.4522,-1.5391,-1.6009,-1.6585,-1.7147,-1.6026,-1.5195,-1.4668,-1.2471,-1.0867,-0.988,0.0,0.0,0.0,0.0,0.0,0.0,0.0,0.0,0.0,0.0,0.0,0.0,0.0,0.0,0.0,0.0,0.0,0.0,0.0,0.0,0.0,0.0,0.0,0.0,0.0,0.0,1.1041,1.2509,1.3481,0.0,0.0,0.0,0.0,0.0,0.0,0.0,0.0,0.0,0.0,1.8585,2.02,2.1317,2.2981,2.4454,2.5574,2.5895,2.5938,2.5708,2.5352,2.4818,0.0,0.0,0.0,0.0,0.0,0.0,0.0,0.0,0.0,0.0,0.0,0.0,0.0,0.0,0.0,0.0,0.0,0.0,0.0,0.0,0.0,0.0,0.0,0.0,0.0,0.0,0.0,-1.5317,-1.5101,0.0,0.0,0.0,0.0,0.0,0.0,0.0,0.0,0.0,0.0,0.0,-1.385,-1.3722,0.0,0.0,0.0,0.0,0.0,0.0,0.0,0.0,0.0,0.0,0.0,0.0,-1.4616,-1.5635,-1.6266,-1.6872,-1.7415,-1.6524,-1.5647,-1.4913,-1.3039,-1.1163,-0.929,0.0,0.0,0.0,0.0,0.0,0.0,0.0,0.0,0.0,0.0,0.0,0.0,0.0,0.0,0.0,0.0,0.0,0.0,0.0,0.0,0.0,0.0,0.0,0.0,0.0,1.0003,0.0,0.0,0.0,0.0,0.0,0.0,0.0,0.0,0.0,0.0,0.0,1.5927,1.6713,1.7994,1.9232,2.0156,2.1681,2.302,0.0,0.0,0.0,0.0,0.0,0.0,0.0,0.0,0.0,0.0,0.0,0.0,0.0,0.0,2.3113,2.2422,2.256,2.2756,2.2756,0.0,0.0,0.0,0.0,0.0,0.0,0.0,0.0,0.0,0.0,0.0,0.0,0.0,0.0,-1.5461,0.0,-1.5092,0.0,0.0,0.0,0.0,0.0,0.0,0.0,0.0,-1.4603,-1.4828,-1.4948,-1.4783,-1.4767,0.0,-1.4761,-1.4496,0.0,0.0,0.0,0.0,0.0,0.0,0.0,0.0,-1.4917,-1.5952,-1.656,-1.7069,-1.7404,-1.6616,-1.5752,-1.4857,-1.2879,-1.0916,-0.907,-0.8381,-0.7933,0.0,0.0,0.0,0.0,0.0,0.0,0.0,0.0,0.0,0.0,0.0,0.0,0.0,0.0,0.0,0.0,0.0,0.0,0.0,0.0,0.0,0.0,0.0,1.0026,0.0,0.0,0.0,0.0,0.0,0.0,0.0,0.0,0.0,1.4734,1.5388,1.6021,1.6627,1.7523,1.8409,1.9222,0.0,0.0,0.0,0.0,0.0,0.0,0.0,2.3763,2.3594,2.3935,2.431,2.4443,2.4206,2.4118,2.4414,0.0,0.0,2.3603,2.376,2.4062,2.4075,2.4189,2.4302,2.4383,2.4598,2.4823,0.0,0.0,0.0,0.0,0.0,0.0,0.0,0.0,-1.6097,-1.5786,0.0,-1.5355,0.0,0.0,0.0,0.0,0.0,-1.4803,0.0,0.0,-1.5327,-1.5591,-1.5835,-1.5828,-1.5835,-1.5841,-1.5828,-1.5791,-1.5755,-1.4723,0.0,0.0,0.0,0.0,0.0,0.0,-1.5427,-1.627,-1.6891,-1.7224,-1.7212,-1.6389,-1.5503,-1.4553,-1.2078,-1.0253,-0.9273,-0.877,-0.8461,-0.8311,-0.7664,0.0,0.0,0.0,0.0,0.0,0.0,0.0,0.0,0.0,0.0,0.0,0.0,0.0,0.0,0.0,0.0,0.0,0.0,0.0,0.0,0.8898,0.0,0.0,0.0,0.0,0.0,0.0,0.0,0.0,0.0,0.0,1.5351,1.5671,1.6035,1.6653,0.0,0.0,0.0,0.0,2.0853,2.2342,2.2681,2.284,2.3174,2.3577,2.3701,2.3279,0.0,0.0,2.5698,2.5776,2.5796,2.5796,2.6191,2.6226,2.5385,2.5527,2.5757,2.5786,2.5786,2.5884,2.6083,2.6156,2.6218,-1.6876,0.0,0.0,0.0,0.0,-1.6872,-1.6837,-1.6965,-1.6663,-1.6421,-1.6207,-1.6162,0.0,0.0,0.0,0.0,0.0,0.0,-1.5889,-1.5936,-1.6199,-1.6486,-1.6785,-1.6553,-1.6567,-1.6785,-1.6553,-1.6453,-1.6415,-1.6119,-1.5598,-1.4897,0.0,0.0,0.0,0.0,-1.5628,-1.6284,-1.6904,-1.7291,-1.7473,-1.6825,-1.5619,-1.3849,-1.1798,-1.0478,-0.9979,-0.9346,-0.8869,-0.8594,-0.8124,0.0,0.0,0.0,0.0,0.0,0.0,0.0,0.0,0.0,0.0,0.0,0.0,0.0,0.0,0.0,0.0,0.0,0.0,0.0,0.8156,0.8769,0.9364,0.0,0.0,0.0,0.0,0.0,0.0,0.0,0.0,0.0,1.5942,1.6116,1.6384,0.0,0.0,1.7729,1.8323,1.9462,2.0667,2.1858,2.2644,0.0,0.0,2.4104,2.4681,2.4541,2.5884,2.6998,2.7115,2.7353,2.7559,2.7559,2.791,2.8096,2.7871,2.7412,2.7246,2.7471,2.7559,2.7559,2.7663,2.7663,2.7679,-1.7282,-1.7462,-1.7105,-1.7127,-1.7379,-1.7166,-1.7105,-1.7128,-1.6977,-1.6784,-1.6573,-1.658,-1.6591,-1.657,-1.6392,0.0,0.0,0.0,-1.6531,-1.6658,-1.6826,-1.7066,-1.7353,-1.7134,-1.7173,-1.7367,-1.7268,-1.7209,-1.7215,-1.7215,-1.6907,-1.6253,0.0,0.0,-1.5508,-1.5677,-1.5976,-1.6446,-1.6917,-1.7112,-1.7034,-1.5956,-1.4601,-1.2989,-1.1388,-1.0416,-1.0102,-0.9548,-0.9189,-0.8984,-0.8698,-0.8084,0.0,0.0,0.0,0.0,0.0,0.0,0.0,0.0,0.0,0.0,0.0,0.2877,0.0,0.0,0.0,0.0,0.7694,0.8145,0.8556,0.8802,0.0,0.0,0.0,0.0,0.0,0.0,0.0,1.4347,1.4999,1.5631,1.6359,1.6571,1.6797,1.7152,1.7298,1.7537,1.8083,0.0,2.0533,2.1715,2.2859,2.3747,2.411,2.497,2.5776,2.6304,2.7334,2.823,2.8435,2.867,2.8816,2.8855,2.9031,2.9228,2.9394,2.9004,2.8689,2.8806,2.8799,2.8826,2.8826,2.8809,2.8826,-1.7565,-1.758,-1.7389,-1.7316,-1.7308,-1.7315,-1.7246,-1.7139,-1.7139,-1.7013,-1.6767,-1.6774,-1.6767,-1.674,-1.6742,0.0,-1.6774,-1.6807,-1.6999,-1.728,-1.7306,-1.7447,-1.7675,-1.7675,-1.7682,-1.7655,-1.7916,-1.8022,-1.8049,-1.8049,-1.7909,-1.7609,-1.6802,-1.638,-1.6302,-1.6301,-1.6405,-1.6588,-1.6856,-1.6691,-1.6064,-1.431,-1.2969,-1.2108,-1.0927,-1.0142,-0.9812,-0.9552,-0.9407,-0.9357,-0.9257,-0.8823,-0.7927,0.0,0.0,0.0,0.0,0.0,0.0,0.0,0.0,0.0,0.0,0.0,0.0,0.0,0.0,0.0,0.8121,0.0,0.8851,0.8939,0.0,0.0,0.0,1.0808,1.1891,1.2871,1.3886,1.498,0.0,0.0,1.6723,1.7073,1.7254,1.7306,1.7237,1.7399,1.7932,1.9212,2.0571,2.1934,2.3262,2.4442,2.5265,2.6094,2.7057,2.8103,2.874,2.915,2.952,2.9676,2.9696,2.9696,2.9696,2.9785,3.0185,3.0185,3.0155,2.9764,2.9706,2.9706,2.9706,2.9706,2.9706,-1.8258,-1.8265,-1.8218,-1.7895,-1.7447,-1.7447,-1.7466,-1.7505,-1.7479,-1.7453,-1.7401,-1.7368,-1.7274,-1.708,-1.7301,-1.7375,-1.7414,-1.7596,-1.7889,-1.819,-1.8197,-1.823,-1.827,-1.8297,-1.8277,-1.8283,-1.835,-1.839,-1.8384,-1.8384,-1.8233,-1.7881,-1.7475,-1.6944,-1.6329,-1.6291,-1.6098,-1.5721,-1.597,-1.5756,-1.5065,-1.3854,-1.2833,-1.2038,-1.0811,-1.0054,-0.9881,-0.9584,-0.9356,-0.9268,-0.9228,-0.882,-0.7936,-0.7113,0.0,0.0,0.0,0.0,0.0,0.0,0.0,0.0,0.0,0.3052,0.461,0.0,0.6908,0.0,0.8302,0.8685,0.8766,0.8816,0.0,0.0,0.98,1.0753,1.2033,1.3203,1.4473,1.5825,1.6464,1.7023,1.7616,1.7762,1.7896,1.815,1.8177,1.8358,1.8931,2.0004,2.1269,2.2672,2.3921,2.5118,2.63,2.7489,2.8506,2.9188,2.9619,2.9932,3.0039,3.037,3.0576,3.0576,3.0605,3.0654,3.0722,3.0732,3.0693,3.0596,3.0576,3.0595,3.0586,3.0595,3.0566,-1.8497,-1.8497,-1.8497,-1.8285,-1.7935,-1.7935,-1.7976,-1.7983,-1.8016,-1.7983,-1.7983,-1.7989,-1.7923,-1.7789,-1.7943,-1.7989,-1.8003,-1.817,-1.833,-1.849,-1.8497,-1.8497,-1.8497,-1.8497,-1.8497,-1.8497,-1.8624,-1.8593,-1.846,-1.8614,-1.8375,-1.7782,-1.7542,-1.6919,-1.5939,-1.5796,-1.5461,-1.4888,-1.4816,-1.4623,-1.4246,-1.3079,-1.2179,-1.158,-1.038,-0.9654,-0.957,-0.9329,-0.9144,-0.9066,-0.9148,-0.8792,-0.7936,-0.7249,-0.6157,0.0,0.0,0.0,0.0,0.0,0.0,0.0,0.0,0.0,0.0,0.0,0.7047,0.8226,0.8689,0.8937,0.9005,0.8986,0.9048,0.9262,0.9911,1.083,1.2112,1.341,1.4794,1.6299,1.6955,1.7562,1.8141,1.8329,1.8463,1.8664,1.8825,1.8946,1.9171,2.0134,2.1408,2.2917,2.4372,2.5901,2.7519,2.876,2.956,2.9824,3.0215,3.0508,3.0508,3.0713,3.0928,3.0928,3.0928,3.0928,3.0928,3.0928,3.0928,3.0928,3.0928,3.0928,3.0928,3.0928,3.0928,-1.8625,-1.8604,-1.8604,-1.8632,-1.8632,-1.8632,-1.8564,-1.8497,-1.8497,-1.8497,-1.8497,-1.8497,-1.8497,-1.8497,-1.8497,-1.851,-1.8544,-1.8544,-1.8564,-1.8604,-1.8604,-1.8604,-1.8604,-1.8604,-1.8604,-1.8583,-1.8773,-1.8715,-1.8338,-1.8584,-1.8252,-1.741,-1.7124,-1.6408,-1.5248,-1.4957,-1.455,-1.3991,-1.352,-1.3297,-1.3333,-1.2069,-1.1224,-1.0864,-0.9781,-0.9134,-0.9122,-0.8947,-0.8852,-0.8855,-0.9026,-0.8735,-0.7906,-0.7313,-0.6264,0.0,-0.347,0.0,0.0,0.0,0.0,0.0,0.0,0.0,0.0,0.5899,0.7216,0.8822,0.9138,0.9264,0.94,0.9288,0.9326,0.956,1.0139,1.0989,1.2206,1.3571,1.5046,1.6632,1.7325,1.792,1.854,1.8831,1.895,1.8963,1.9187,1.9282,1.9178,2.0054,2.1348,2.2909,2.4839,2.6939,2.869,2.9772,3.0264,3.0322,3.0586,3.0918,3.0898,3.0908,3.0928,3.0928,3.0928,3.0928,3.0928,3.0928,3.0928,3.0928,3.0928,3.0928,3.0928,3.0928,3.0928,-1.9227,-1.9227,-1.9234,-1.9234,-1.9227,-1.9227,-1.896,-1.8497,-1.8497,-1.8497,-1.8497,-1.8497,-1.8497,-1.8497,-1.8497,-1.8617,-1.881,-1.8844,-1.8971,-1.9256,-1.9227,-1.9234,-1.9227,-1.9234,-1.9083,-1.884,-1.8857,-1.8593,-1.8,-1.7829,-1.739,-1.6692,-1.6212,-1.5385,-1.423,0.0,0.0,0.0,-1.2311,-1.1877,-1.16,-1.1043,-1.0451,-0.9752,-0.9231,0.0,-0.8651,-0.8584,-0.8567,-0.8567,-0.8621,0.0,0.0,0.0,0.0,0.0,0.0,0.0,0.0,0.0,0.0,0.0,0.1477,0.2595,0.4376,0.6577,0.8314,0.919,0.9323,0.9379,0.9403,0.9357,0.9398,0.9456,1.0117,1.1069,1.2324,1.3688,1.5269,1.7124,1.788,1.8494,1.9099,1.9281,1.9308,1.9314,1.9361,1.9448,1.962,2.0451,2.1576,2.3011,2.576,2.8209,2.9489,3.0257,3.0684,3.0781,3.081,3.0918,3.0928,3.0928,3.0928,3.0928,3.0928,3.0928,3.0928,3.0928,3.0928,3.0928,3.0928,3.0928,3.0928,3.0928,3.0928,-1.9395,0.0,-1.9395,-1.9395,0.0,-1.9395,-1.9227,-1.8953,-1.8925,-1.8918,-1.8953,-1.8953,-1.8925,-1.8953,-1.8946,-1.9027,-1.9145,-1.8966,-1.8981,-1.9149,-1.8975,-1.8894,-1.8894,-1.8894,-1.8742,-1.8402,-1.8402,-1.7935,-1.705,-1.6856,-1.6319,-1.5367,-1.4969,-1.424,-1.3163,-1.2339,-1.1892,-1.1819,-1.1338,-1.1022,-1.0842,-1.0476,-1.0015,-0.95,0.0,0.0,0.0,0.0,0.0,0.0,0.0,0.0,0.0,0.0,0.0,-0.5471,-0.4362,-0.3139,-0.1813,-0.1164,-0.0357,0.0831,0.2237,0.369,0.5088,0.7028,0.846,0.9176,0.9405,0.9523,0.9591,0.9598,0.9598,0.9631,1.0233,1.1148,1.2281,1.3668,1.5278,1.6944,1.7918,1.8661,1.9307,1.9395,1.9468,1.9589,1.9615,1.9716,1.9993,2.0557,2.1693,2.3762,2.6333,2.8507,2.9444,3.017,3.0733,3.0859,3.0928,3.0928,3.0928,3.0928,3.0928,3.0928,3.0928,3.0928,3.0928,3.0928,3.0928,3.0928,3.0928,3.0928,3.0928,3.0928,3.0928,-1.9395,-1.9395,-1.9395,-1.9395,-1.9395,-1.9395,-1.9395,-1.9395,0.0,0.0,0.0,-1.9395,-1.9395,-1.9395,-1.9336,-1.9307,-1.9307,-1.891,-1.87,-1.8642,-1.8298,-1.8123,-1.8058,-1.8058,-1.7912,-1.7578,-1.7525,-1.6938,-1.5852,-1.5669,-1.5046,-1.3984,-1.3622,-1.3033,-1.2195,-1.1153,-1.0732,-1.0943,-1.0612,-1.0406,-1.0436,-1.0043,-0.9737,-0.955,-0.9051,-0.8777,-0.875,-0.8628,-0.8564,-0.8564,-0.8682,-0.8571,-0.8221,-0.7853,-0.7043,-0.576,-0.4706,-0.3447,-0.1924,-0.1235,-0.0319,0.0989,0.3039,0.4747,0.5967,0.7301,0.8358,0.9062,0.9433,0.9696,0.9808,0.9788,0.9788,0.9822,1.0395,1.1148,1.2139,1.364,1.5219,1.6762,1.7824,1.8661,1.9314,1.9448,1.9526,1.9746,1.9833,2.001,2.0359,2.0826,2.2081,2.4575,2.658,2.8164,2.9215,2.9991,3.0489,3.0859,3.0928,3.0928,3.0928,3.0928,3.0928,3.0928,3.0928,3.0928,3.0928,3.0928,3.0928,3.0928,3.0957,3.1006,3.1006,3.1064,3.1123,-1.9395,-1.9395,-1.9395,-1.9395,-1.9395,-1.9395,-1.9395,-1.9395,-1.9395,-1.9395,-1.9395,-1.9395,-1.9395,-1.9395,-1.912,-1.8968,-1.891,-1.8315,-1.7906,-1.7684,-1.7355,-1.705,-1.6779,-1.6779,-1.6632,-1.6349,-1.6083,-1.554,-1.4803,-1.4003,-1.335,-1.2895,-1.2359,-1.1866,-1.1415,-1.0729,-1.0357,-1.0417,-1.0193,-0.9961,-0.9727,-0.9677,-0.9526,-0.9281,-0.9169,-0.9032,-0.8854,-0.8858,-0.8848,-0.8848,-0.8869,-0.8784,-0.8607,-0.8082,-0.7259,-0.6096,-0.4928,-0.3565,-0.2019,-0.1277,-0.0121,0.1677,0.2972,0.4355,0.6109,0.7536,0.8615,0.9212,0.9573,0.9795,0.9788,0.9788,0.9788,0.9849,1.0395,1.1182,1.2118,1.3614,1.5189,1.6762,1.7824,1.8625,1.926,1.9579,1.974,1.9833,2.0074,2.0348,2.092,2.1619,2.2828,2.4714,2.6244,2.7675,2.8977,2.9942,3.045,3.0859,3.0889,3.0928,3.0928,3.0928,3.0928,3.0928,3.0928,3.0928,3.0928,3.0928,3.0957,3.0957,3.1182,3.1416,3.1435,3.1689,3.1866,-1.9395,-1.9395,-1.9395,-1.9395,-1.9395,-1.9395,-1.9395,-1.9395,-1.9395,-1.9395,-1.9395,-1.9395,-1.9395,-1.9359,-1.9062,-1.8816,-1.859,-1.7789,-1.7173,-1.6708,-1.6207,-1.5787,-1.548,-1.5451,-1.5337,-1.5075,-1.4738,-1.4118,-1.331,-1.2715,-1.2178,-1.1665,-1.1209,-1.091,-1.0759,-1.0274,-1.0035,-1.0031,-0.9935,-0.9773,-0.9612,-0.9612,-0.9503,-0.9315,-0.9305,-0.9274,-0.9184,-0.9181,-0.9181,-0.9178,-0.9153,-0.9069,-0.8816,-0.8279,-0.7405,-0.6216,-0.5012,-0.3652,-0.2054,-0.0821,0.0398,0.1633,0.2834,0.4145,0.5701,0.7228,0.8388,0.9034,0.9518,0.9788,0.9788,0.9788,0.9788,0.9788,1.0395,1.1088,1.1993,1.34,1.4922,1.6319,1.7473,1.8443,1.9243,1.9595,1.9953,2.0214,2.0521,2.0817,2.1094,2.1558,2.2496,2.424,2.5654,2.6991,2.8391,2.9313,3.0001,3.0548,3.0801,3.0898,3.0928,3.0928,3.0928,3.0928,3.0928,3.0928,3.0937,3.1094,3.1191,3.1269,3.1572,3.1826,3.1914,3.2207,3.2324,-1.9395,-1.9395,-1.9395,-1.9395,-1.9395,-1.9395,-1.9359,-1.9278,-1.9272,-1.9243,-1.9191,-1.9243,-1.9278,-1.9243,-1.8794,-1.8386,-1.7977,-1.7026,-1.6201,-1.555,-1.4873,-1.4366,-1.4003,-1.3973,-1.3849,-1.3644,-1.3306,-1.2766,-1.2053,-1.1635,-1.1152,-1.0607,-1.0334,-1.0183,-1.0156,-0.9943,-0.9788,-0.9788,-0.9788,-0.9768,-0.9659,-0.9659,-0.9598,-0.9493,-0.9479,-0.9479,-0.9479,-0.9483,-0.9483,-0.9483,-0.9509,-0.9336,-0.9016,-0.8459,-0.7553,-0.6202,-0.4957,-0.3513,-0.1788,-0.0401,0.071,0.148,0.2588,0.3881,0.5297,0.686,0.8086,0.8821,0.943,0.9788,0.9788,0.9788,0.9788,0.9822,1.0304,1.094,1.1692,1.3045,1.4535,1.5877,1.7168,1.8287,1.9175,1.9744,2.0214,2.0712,2.0975,2.1096,2.1109,2.1393,2.2205,2.3417,2.4841,2.6211,2.7521,2.86,2.9431,3.0147,3.0548,3.0772,3.0859,3.0928,3.0928,3.0928,3.0928,3.0986,3.1035,3.1269,3.1504,3.1641,3.2012,3.2355,3.248,3.2705,3.2842,-1.9395,-1.9395,-1.9395,-1.9395,-1.9395,-1.9395,-1.9214,-1.8968,-1.8939,-1.8765,-1.8509,-1.8823,-1.891,-1.8823,-1.8006,-1.7473,-1.7026,-1.5817,-1.4808,-1.3938,-1.3225,-1.2629,-1.2144,-1.2088,-1.2053,-1.2023,-1.1722,-1.1541,-1.136,-1.0759,-1.0274,-0.9943,-0.9852,-0.9852,-0.9852,-0.9822,-0.9788,-0.9788,-0.9788,-0.9785,-0.9771,-0.9771,-0.9765,-0.9751,-0.9748,-0.9751,-0.9731,-0.9751,-0.9778,-0.9781,-0.9741,-0.9593,-0.9233,-0.8696,-0.7634,-0.6014,-0.4676,-0.299,-0.0895,-0.0216,0.0463,0.1418,0.2188,0.342,0.5204,0.6641,0.7867,0.876,0.943,0.9788,0.9788,0.9788,0.9788,0.9822,1.0152,1.0607,1.1371,1.2509,1.3986,1.5805,1.7133,1.8365,1.9421,2.0187,2.0695,2.0969,2.1062,2.1102,2.1102,2.1362,2.1702,2.2449,2.3682,2.5248,2.671,2.7933,2.8868,2.9745,3.0245,3.0557,3.0801,3.0928,3.0928,3.0928,3.0928,3.1006,3.1299,3.1494,3.165,3.206,3.2441,3.2832,3.3174,3.3259,3.323,-1.9395,-1.9395,-1.9395,-1.9395,-1.9366,-1.9185,-1.8917,-1.859,-1.8373,-1.8023,-1.7584,-1.7502,-1.7789,-1.8233,-1.7326,-1.6649,-1.6072,-1.4862,-1.3759,-1.2801,-1.2144,-1.1635,-1.1243,-1.1212,-1.1212,-1.1182,-1.0849,-1.0698,-1.0637,-1.0213,-0.994,-0.9822,-0.9788,-0.9788,-0.9788,-0.9788,-0.9788,-0.9788,-0.9788,-0.9788,-0.9788,-0.9788,-0.9788,-0.9788,-0.9788,-0.9788,-0.9788,-0.9788,-0.9788,-0.9788,-0.9606,-0.9271,-0.8784,-0.7989,-0.6858,-0.5354,-0.3541,-0.1911,-0.0587,-0.0185,0.0339,0.1172,0.2005,0.3175,0.4684,0.6396,0.7742,0.8541,0.9335,0.9788,0.9788,0.9788,0.9788,0.9849,1.0095,1.0583,1.136,1.2399,1.3817,1.5606,1.7039,1.8301,1.9495,2.0437,2.0937,2.1089,2.1102,2.1102,2.1102,2.1235,2.1418,2.1859,2.2762,2.4023,2.5584,2.7052,2.8182,2.9153,2.9951,3.048,3.0791,3.0928,3.0928,3.0928,3.0928,3.1055,3.1435,3.1777,3.2031,3.2451,3.2851,3.3191,3.3357,3.3386,3.3386,-1.9395,-1.9395,-1.9395,-1.9336,-1.9243,-1.8917,-1.8467,-1.8006,-1.7584,-1.7056,-1.6467,-1.6053,-1.6201,-1.6603,-1.6201,-1.561,-1.4862,-1.3789,-1.2771,-1.1816,-1.1269,-1.0846,-1.0547,-1.0547,-1.0516,-1.0486,-1.0304,-1.0183,-1.0122,-0.9943,-0.9788,-0.9788,-0.9788,-0.9788,-0.9788,-0.9788,-0.9788,-0.9788,-0.9788,-0.9788,-0.9788,-0.9788,-0.9788,-0.9788,-0.9788,-0.9788,-0.9788,-0.9788,-0.9761,-0.967,-0.9339,-0.8848,-0.8144,-0.7194,-0.5876,-0.4186,-0.2311,-0.0987,-0.0401,-0.0124,0.0278,0.0957,0.1851,0.2959,0.4375,0.6059,0.7436,0.8352,0.918,0.967,0.9788,0.9788,0.9805,0.9873,1.0097,1.0559,1.1363,1.2283,1.3527,1.5378,1.6767,1.8263,1.9644,2.0623,2.1096,2.1102,2.1102,2.1102,2.1102,2.1102,2.1204,2.1457,2.1985,2.3005,2.4548,2.6081,2.7431,2.8549,2.944,3.0206,3.0665,3.0801,3.0928,3.0928,3.0928,3.1172,3.165,3.2071,3.2413,3.2842,3.3193,3.3367,3.3377,3.3386,3.3386,-1.9395,-1.9395,-1.9395,-1.9178,-1.8903,-1.8532,-1.7889,-1.7026,-1.6443,-1.5822,-1.514,-1.457,-1.4147,-1.3993,-1.4386,-1.4152,-1.332,-1.2595,-1.1812,-1.0936,-1.0516,-1.0183,-0.9849,-0.9819,-0.9849,-0.991,-0.9913,-0.9852,-0.9852,-0.9822,-0.9788,-0.9788,-0.9788,-0.9788,-0.9788,-0.9788,-0.9788,-0.9788,-0.9788,-0.9788,-0.9788,-0.9788,-0.9788,-0.9788,-0.9788,-0.9788,-0.9788,-0.9788,-0.964,-0.9335,-0.8973,-0.8394,-0.7475,-0.6462,-0.4739,-0.2465,-0.1173,-0.0432,-0.0093,0.0,0.0278,0.0957,0.1666,0.2713,0.4255,0.5726,0.7077,0.8269,0.9019,0.9534,0.9795,0.9825,0.9873,0.9991,1.0008,1.0451,1.1199,1.1964,1.3176,1.4947,1.6598,1.8299,2.0271,2.0874,2.1071,2.1102,2.1102,2.1102,2.1102,2.1102,2.1141,2.1204,2.1544,2.223,2.386,2.5333,2.6614,2.7822,2.8868,2.9726,3.0245,3.0645,3.0801,3.0928,3.0928,3.1231,3.1885,3.2334,3.2656,3.2998,3.323,3.3386,3.3386,3.3386,3.3386,-1.9395,-1.9395,-1.9149,-1.8881,-1.8502,-1.7795,-1.6962,-1.6042,-1.5219,-1.4391,-1.3584,-1.3105,-1.2625,-1.2169,-1.238,-1.2444,-1.2238,-1.1605,-1.1001,-1.0486,-1.0126,-0.9913,-0.9822,-0.9788,-0.9788,-0.9788,-0.9788,-0.9788,-0.9788,-0.9788,-0.9788,-0.9788,-0.9788,-0.9788,-0.9788,-0.9788,-0.9788,-0.9788,-0.9788,-0.9788,-0.9788,-0.9788,-0.9788,-0.9788,-0.9788,-0.9788,-0.9788,-0.9582,-0.9335,-0.897,-0.8302,-0.7444,-0.6399,-0.471,-0.3051,-0.1543,-0.0833,-0.034,0.0,0.0,0.0278,0.0957,0.1604,0.2591,0.4037,0.5665,0.7132,0.8119,0.9196,0.9816,1.0011,0.9998,1.0001,1.0161,1.0202,1.0411,1.1108,1.1922,1.317,1.4935,1.708,1.9256,2.0176,2.0894,2.1077,2.1102,2.1102,2.1102,2.1102,2.1102,2.1102,2.1134,2.1418,2.1954,2.2894,2.4463,2.5906,2.7203,2.8343,2.9451,3.0206,3.0645,3.0859,3.0928,3.0928,3.125,3.1915,3.2607,3.293,3.3133,3.3386,3.3386,3.3386,3.3386,3.3386,-1.9156,-1.9039,-1.8706,-1.835,-1.786,-1.6938,-1.5959,-1.4917,-1.3968,-1.3071,-1.2298,-1.1907,-1.1454,-1.1031,-1.0967,-1.1031,-1.1122,-1.0759,-1.0456,-1.0156,-0.9883,-0.9788,-0.9788,-0.9788,-0.9788,-0.9788,-0.9788,-0.9788,-0.9788,-0.9788,-0.9788,-0.9788,-0.9788,-0.9788,-0.9788,-0.9788,-0.9788,-0.9788,-0.9788,-0.9788,-0.9788,-0.9788,-0.9849,-0.9825,-0.9774,-0.9686,-0.9643,-0.9335,-0.8882,-0.8302,-0.7444,-0.6278,-0.4803,-0.3051,-0.1666,-0.0926,-0.0525,-0.0247,0.0,0.0,0.0278,0.0932,0.1647,0.2612,0.4057,0.5807,0.7154,0.8246,0.9243,1.0024,1.0255,1.0221,1.0204,1.0331,1.038,1.0537,1.1062,1.1902,1.3349,1.5347,1.7716,1.9475,2.0323,2.0831,2.1046,2.1102,2.1102,2.1102,2.1102,2.1102,2.1102,2.1102,2.126,2.1639,2.2331,2.3503,2.5202,2.6567,2.7984,2.9155,3.0089,3.0528,3.0859,3.0889,3.1103,3.1436,3.1963,3.2725,3.3084,3.3308,3.3386,3.3386,3.3386,3.3386,3.3386,-1.8677,-1.8327,-1.8029,-1.749,-1.685,-1.5895,-1.4827,-1.3665,-1.2651,-1.1903,-1.1329,-1.0967,-1.0668,-1.0365,-1.0365,-1.0183,-1.0065,-1.0213,-1.0156,-0.9849,-0.9822,-0.9788,-0.9788,-0.9788,-0.9788,-0.9788,-0.9788,-0.9788,-0.9788,-0.9792,-0.9792,-0.9798,-0.9815,-0.9832,-0.9808,-0.9836,-0.9819,-0.9829,-0.9869,-0.9825,-0.9795,-0.9829,-0.9896,-0.9939,-0.9676,-0.9401,-0.9242,-0.8937,-0.8306,-0.7408,-0.6388,-0.4838,-0.291,-0.1611,-0.0866,-0.0527,-0.0186,0.0,0.0,0.0,0.0281,0.0976,0.1672,0.2851,0.4439,0.5956,0.7373,0.8579,0.9417,1.004,1.0391,1.048,1.0477,1.0493,1.0493,1.0685,1.1157,1.1868,1.3378,1.5949,1.8033,1.9296,2.0004,2.0704,2.1071,2.1102,2.1102,2.1102,2.1102,2.1102,2.1102,2.1102,2.1166,2.1393,2.1891,2.2536,2.427,2.5937,2.7452,2.874,2.9706,3.0313,3.0733,3.0869,3.1055,3.1387,3.1807,3.249,3.2949,3.3174,3.324,3.3357,3.3386,3.3386,3.3386,-1.7743,-1.7385,-1.6879,-1.629,-1.558,-1.4451,-1.3435,-1.2595,-1.1661,-1.0997,-1.0607,-1.0274,-1.0035,-0.997,-0.997,-0.9883,-0.9822,-0.9913,-0.9883,-0.9829,-0.9795,-0.9792,-0.9795,-0.9795,-0.9788,-0.9788,-0.9788,-0.9792,-0.9798,-0.9798,-0.9836,-0.9927,-0.995,-1.0036,-1.012,-1.0137,-1.0137,-1.0137,-1.0137,-1.0169,-1.0137,-1.0134,-1.0032,-0.9778,-0.9472,-0.8974,-0.8245,-0.8051,-0.7515,-0.6534,-0.5271,-0.3621,-0.1812,-0.0955,-0.0509,-0.0191,-0.0064,0.0,0.0,0.0,0.0287,0.1024,0.1888,0.3108,0.4632,0.634,0.779,0.8892,0.9719,1.0389,1.0579,1.0649,1.0643,1.0649,1.0649,1.0689,1.1035,1.2136,1.3964,1.6116,1.7802,1.9002,1.9941,2.0666,2.1046,2.1102,2.1102,2.1102,2.1102,2.1102,2.1102,2.1102,2.1141,2.1172,2.1607,2.2167,2.341,2.5102,2.665,2.8233,2.9194,3.0001,3.0431,3.084,3.1035,3.1357,3.1758,3.2158,3.2607,3.2978,3.3125,3.322,3.3338,3.3386,3.3377,-1.6591,-1.6201,-1.5521,-1.4897,-1.4277,-1.314,-1.2294,-1.1631,-1.0906,-1.0425,-1.0122,-0.991,-0.9825,-0.9866,-0.9876,-0.991,-0.9988,-0.9961,-0.9992,-0.9961,-0.9822,-0.9819,-0.9876,-0.9971,-0.9992,-0.9992,-0.9992,-0.9992,-0.9961,-0.9995,-1.0011,-1.0092,-1.0103,-1.0178,-1.0305,-1.0312,-1.0312,-1.0312,-1.0305,-1.0213,-1.0114,-1.0082,-0.9854,-0.9412,-0.8936,-0.8186,-0.7277,-0.6695,-0.6049,-0.5163,-0.38,-0.2224,-0.0935,-0.0516,-0.0226,0.0,0.0,0.0,0.0,0.0,0.0486,0.1233,0.2209,0.3516,0.5061,0.6829,0.8174,0.9187,1.0058,1.0616,1.0664,1.0717,1.0721,1.0717,1.0714,1.082,1.1214,1.2396,1.3997,1.5819,1.7378,1.8676,1.9705,2.0482,2.0951,2.1039,2.1102,2.1102,2.1102,2.1102,2.1102,2.1102,2.1102,2.1197,2.1387,2.1978,2.2668,2.417,2.579,2.7375,2.874,2.949,3.003,3.0538,3.0869,3.1191,3.1582,3.1846,3.2226,3.2559,3.2871,3.3027,3.3125,3.3328,3.3377,-1.5254,-1.4843,-1.3998,-1.343,-1.2994,-1.2108,-1.1399,-1.0842,-1.0472,-1.0185,-0.99,-0.989,-0.9913,-1.0011,-1.0028,-1.0124,-1.0249,-1.0243,-1.0261,-1.0168,-1.0022,-0.9951,-1.0032,-1.0171,-1.025,-1.0239,-1.0278,-1.0284,-1.0257,-1.0261,-1.0287,-1.0318,-1.029,-1.0335,-1.0344,-1.0346,-1.0305,-1.0287,-1.027,-1.0043,-0.971,-0.9672,-0.9372,-0.8807,-0.8091,-0.724,-0.6203,-0.4912,-0.4041,-0.3634,-0.2107,-0.1006,-0.0486,-0.0162,0.0,0.0,0.0,0.0,0.0,0.026,0.0783,0.1515,0.2638,0.4007,0.5708,0.7239,0.8607,0.96,1.0303,1.0674,1.0717,1.0721,1.0721,1.0721,1.0721,1.0986,1.1681,1.2593,1.3801,1.5238,1.6866,1.8387,1.945,2.0221,2.0729,2.1014,2.1102,2.1102,2.1102,2.1102,2.1102,2.1102,2.1102,2.1134,2.126,2.1607,2.2292,2.3129,2.4656,2.6156,2.7924,2.8829,2.9608,3.0117,3.0615,3.0966,3.1318,3.1532,3.1786,3.209,3.2383,3.2646,3.2851,3.3008,3.3152,-1.3495,-1.293,-1.2475,-1.2113,-1.1716,-1.1099,-1.0756,-1.0562,-1.0392,-1.0231,-1.0154,-1.0158,-1.0168,-1.0215,-1.0219,-1.0246,-1.0322,-1.0325,-1.0312,-1.0301,-1.0212,-1.0178,-1.0215,-1.0259,-1.0322,-1.0325,-1.0339,-1.0312,-1.0312,-1.0335,-1.0348,-1.0436,-1.0439,-1.0493,-1.0552,-1.0326,-1.0244,-1.0179,-0.9946,-0.964,-0.93,-0.9198,-0.8766,-0.7898,-0.7135,-0.6117,-0.4835,-0.2957,-0.1947,-0.1833,-0.1131,-0.0466,-0.0166,0.0,0.0,0.0,0.0,0.0,0.0,0.0333,0.0834,0.1638,0.3105,0.4649,0.6138,0.7846,0.9084,0.9957,1.0489,1.0721,1.0721,1.0721,1.0721,1.0721,1.0721,1.0886,1.1413,1.2107,1.3186,1.4847,1.6381,1.7872,1.922,2.0119,2.0697,2.0976,2.1102,2.1102,2.1102,2.1102,2.1102,2.1102,2.1102,2.1102,2.1197,2.145,2.1828,2.2299,2.3433,2.4656,2.652,2.8104,2.8888,2.9618,3.0049,3.0447,3.0809,3.1101,3.1385,3.152,3.1901,3.2173,3.2294,3.2411,3.2604,-1.2194,-1.187,-1.1443,-1.118,-1.1036,-1.0607,-1.0395,-1.0412,-1.0331,-1.0312,-1.0312,-1.0312,-1.0346,-1.0365,-1.0368,-1.0409,-1.046,-1.0466,-1.047,-1.047,-1.047,-1.0432,-1.0402,-1.0419,-1.0466,-1.0466,-1.046,-1.047,-1.047,-1.0463,-1.051,-1.0539,-1.0425,-1.0409,-1.0402,-0.9987,-0.9721,-0.9649,-0.9253,-0.8784,-0.8448,-0.8112,-0.7479,-0.661,-0.5774,-0.46,-0.2991,-0.1581,-0.0875,-0.0774,-0.0505,-0.0202,0.0,0.0,0.0,0.0,0.0,0.0,0.0,0.0438,0.1144,0.2119,0.3629,0.5171,0.6711,0.8282,0.9419,1.009,1.0489,1.0688,1.0721,1.0721,1.0721,1.0721,1.0721,1.092,1.1383,1.2136,1.3218,1.4656,1.6121,1.7582,1.9194,1.9966,2.0545,2.0951,2.1102,2.1102,2.1102,2.1102,2.1102,2.1102,2.1102,2.1102,2.1102,2.1292,2.1481,2.1922,2.2512,2.3651,2.5117,2.6983,2.7864,2.8591,2.9283,2.9862,3.0104,3.0348,3.0563,3.0813,3.129,3.1484,3.1523,3.16,3.1812,-1.1294,-1.1313,-1.0727,-1.059,-1.07,-1.0453,-1.0364,-1.0335,-1.0376,-1.0383,-1.0383,-1.0366,-1.0422,-1.055,-1.0521,-1.0588,-1.0667,-1.0673,-1.069,-1.068,-1.0673,-1.059,-1.0538,-1.0616,-1.0663,-1.0677,-1.0711,-1.0631,-1.0571,-1.0591,-1.0571,-1.0399,-1.0174,-1.005,-0.9791,-0.9253,-0.8917,-0.8581,-0.8046,-0.7512,-0.7078,-0.6541,-0.591,-0.5141,-0.403,-0.2857,-0.1581,-0.0707,-0.0438,-0.0438,-0.0135,0.0,0.0,0.0,0.0,0.0,0.0,0.0,0.0,0.0774,0.1615,0.269,0.4066,0.5642,0.7278,0.8584,0.9555,1.0256,1.0522,1.0688,1.0721,1.0721,1.0721,1.0721,1.0721,1.1052,1.1714,1.2363,1.328,1.467,1.6061,1.7486,1.8752,1.9686,2.0329,2.0982,2.1102,2.1102,2.1102,2.1102,2.1102,2.1102,2.1102,2.1102,2.1102,2.1102,2.1292,2.1544,2.2017,2.288,2.3891,2.5362,2.6437,2.7284,2.7984,2.8591,2.9064,2.9339,2.9654,2.9945,3.0298,3.0392,3.0449,3.0562,3.0732,-1.0769,-1.0549,-1.0387,-1.0376,-1.0392,-1.0427,-1.0446,-1.0456,-1.0571,-1.0599,-1.0619,-1.0619,-1.0633,-1.0663,-1.066,-1.0661,-1.0681,-1.0721,-1.0721,-1.0721,-1.0721,-1.0707,-1.0637,-1.0644,-1.0681,-1.0684,-1.0721,-1.0555,-1.0389,-1.0256,-1.0157,-0.9857,-0.9455,-0.9186,-0.8853,-0.8151,-0.7514,-0.7011,-0.6546,-0.601,-0.5441,-0.497,-0.4367,-0.3631,-0.2455,-0.148,-0.0774,-0.0303,-0.0101,0.0,0.0,0.0,0.0,0.0,0.0,0.0,0.0,0.0101,0.0438,0.1077,0.1985,0.3093,0.467,0.6278,0.7746,0.892,0.9824,1.0422,1.0684,1.0721,1.0721,1.0721,1.0721,1.0721,1.0721,1.0986,1.1681,1.2177,1.3058,1.4399,1.5829,1.7254,1.8848,1.9717,2.0354,2.0912,2.1102,2.1102,2.1102,2.1102,2.1102,2.1102,2.1102,2.1102,2.1102,2.1102,2.1166,2.1299,2.167,2.1954,2.2966,2.3798,2.4871,2.5829,2.6658,2.7233,2.7744,2.8391,2.8725,2.9,2.9207,2.9248,2.9319,2.9462,2.9515,-1.0512,-1.0414,-1.0378,-1.0422,-1.0493,-1.0565,-1.0599,-1.0612,-1.0647,-1.0721,-1.0721,-1.0721,-1.0721,-1.0721,-1.0721,-1.0717,-1.0721,-1.0721,-1.0721,-1.0654,-1.0555,-1.0455,-1.0422,-1.0323,-1.0289,-1.0422,-1.0455,-1.019,-0.9821,-0.9622,-0.9386,-0.8887,-0.8351,-0.7884,-0.7481,-0.6711,-0.5977,-0.5406,-0.4871,-0.4368,-0.3831,-0.3261,-0.269,-0.2051,-0.1211,-0.064,-0.0303,-0.0101,0.0,0.0,0.0,0.0,0.0,0.0,0.0,0.0,0.0,0.0,0.0572,0.1212,0.2186,0.363,0.524,0.6811,0.8215,0.9422,1.009,1.0555,1.0721,1.0721,1.0721,1.0721,1.0721,1.0721,1.0721,1.1019,1.1681,1.2239,1.3153,1.4656,1.6148,1.7636,1.89,1.9807,2.0418,2.1014,2.1071,2.1102,2.1102,2.1102,2.1102,2.1102,2.1102,2.1102,2.1102,2.1102,2.1102,2.1172,2.1299,2.1425,2.1859,2.2598,2.334,2.4263,2.5186,2.5737,2.6316,2.703,2.7551,2.7668,2.7797,2.7969,2.8094,2.8119,2.8133,-1.0419,-1.0527,-1.0527,-1.0602,-1.0707,-1.0714,-1.0711,-1.0714,-1.0721,-1.0721,-1.0721,-1.0721,-1.0721,-1.0688,-1.0621,-1.0588,-1.0522,-1.0522,-1.0422,-1.0389,-1.009,-0.999,-0.9888,-0.9655,-0.9389,-0.9758,-0.9824,-0.9486,-0.8984,-0.8681,-0.8179,-0.7612,-0.6913,-0.6343,-0.5839,-0.5037,-0.4301,-0.3798,-0.3328,-0.2891,-0.2454,-0.1884,-0.1245,-0.074,-0.0538,-0.0303,0.0,0.0,0.0,0.0,0.0,0.0,0.0,0.0,0.0,0.0,0.0,0.0,0.0875,0.1548,0.269,0.4368,0.5772,0.7276,0.8751,0.9688,1.0256,1.0555,1.0721,1.0721,1.0721,1.0721,1.0721,1.0721,1.0721,1.1049,1.171,1.24,1.3506,1.5075,1.6473,1.7861,1.9086,2.0094,2.0602,2.1014,2.1046,2.1102,2.1102,2.1102,2.1102,2.1102,2.1102,2.1102,2.1102,2.1102,2.1102,2.1102,2.1141,2.1141,2.1172,2.167,2.2411,2.288,2.3651,2.4294,2.4856,2.5409,2.5845,2.6097,2.6349,2.6532,2.6631,2.6692,2.6748,-1.066,-1.065,-1.0683,-1.0697,-1.0684,-1.0721,-1.0721,-1.0721,-1.0688,-1.0684,-1.0684,-1.0688,-1.0654,-1.0588,-1.0356,-1.0123,-0.9894,-0.9861,-0.9824,-0.9724,-0.9422,-0.9253,-0.9017,-0.8515,-0.8084,-0.7884,-0.8184,-0.8182,-0.7679,-0.7178,-0.6675,-0.6111,-0.5274,-0.4602,-0.4164,-0.3461,-0.2791,-0.2354,-0.2019,-0.175,-0.138,-0.0976,-0.0606,0.0,0.0,0.0,0.0,0.0,0.0,0.0,0.0,0.0,0.0,0.0,0.0,0.0,0.0303,0.0673,0.138,0.2354,0.3632,0.5076,0.6514,0.7746,0.8948,0.9755,1.0356,1.0588,1.0721,1.0721,1.0721,1.0721,1.0721,1.0721,1.0754,1.1019,1.171,1.2462,1.3538,1.5238,1.6662,1.8054,1.9252,2.0221,2.0697,2.1014,2.1071,2.1102,2.1102,2.1102,2.1102,2.1102,2.1102,2.1102,2.1102,2.1102,2.1102,2.1102,2.1102,2.1102,2.1109,2.1141,2.1544,2.2104,2.2543,2.3098,2.3565,2.3969,2.4371,2.481,2.4972,2.5103,2.5257,2.5402,2.5402,-1.0721,-1.0721,-1.0721,-1.0721,-1.0721,-1.0721,-1.0721,-1.0651,-1.0522,-1.0422,-1.0389,-1.0259,-1.0057,-0.9884,-0.9721,-0.9455,-0.9189,-0.9125,-0.9023,-0.8784,-0.8448,-0.8015,-0.7712,-0.7176,-0.6443,-0.5908,-0.5973,-0.6243,-0.6042,-0.5607,-0.5037,-0.44,-0.3629,-0.3025,-0.2622,-0.2153,-0.1581,-0.1144,-0.1043,-0.0875,0.0,0.0,0.0,0.0,0.0,0.0,0.0,0.0,0.0,0.0,0.0,0.0,0.0,0.0168,0.0269,0.0337,0.064,0.1245,0.2119,0.3193,0.4469,0.6079,0.7383,0.8484,0.9452,1.0153,1.0489,1.0654,1.0721,1.0721,1.0721,1.0721,1.0721,1.0721,1.0721,1.1082,1.171,1.2396,1.3763,1.5396,1.6893,1.8291,1.9584,2.0354,2.0824,2.1014,2.1071,2.1102,2.1102,2.1102,2.1102,2.1102,2.1102,2.1102,2.1102,2.1102,2.1102,2.1102,2.1102,2.1102,2.1102,2.1102,2.1141,2.1418,2.1796,2.223,2.2449,2.288,2.3199,2.351,2.3728,2.3945,2.4015,2.4084,2.4139,-1.0721,-1.0721,-1.0721,-1.0654,-1.0588,-1.0588,-1.0555,-1.0422,-1.0123,-0.9957,-0.9924,-0.9558,-0.9186,-0.8914,-0.8681,-0.8451,-0.8187,-0.8087,-0.7815,-0.7512,-0.7078,-0.6579,-0.6042,-0.5473,-0.4836,-0.403,-0.3696,-0.3731,-0.4234,-0.3932,-0.3429,-0.2925,-0.2252,-0.1715,-0.1413,-0.1144,-0.0707,-0.0505,-0.0404,-0.0269,0.0,0.0,0.0,0.0,0.0,0.0,0.0,0.0,0.0,0.0,0.0,0.0,0.0,0.0339,0.0577,0.078,0.1148,0.1951,0.2992,0.4164,0.5506,0.7051,0.8184,0.922,0.9921,1.0386,1.0688,1.0721,1.0721,1.0721,1.0721,1.0721,1.0721,1.0721,1.0754,1.0986,1.171,1.2561,1.3829,1.5429,1.706,1.8489,1.9749,2.0507,2.0982,2.1007,2.1102,2.1102,2.1102,2.1102,2.1102,2.1102,2.1102,2.1102,2.1102,2.1102,2.1102,2.1102,2.1102,2.1102,2.1102,2.1102,2.1134,2.1172,2.1292,2.167,2.1765,2.1853,2.223,2.2543,2.2668,2.2856,2.305,2.3113,2.3106,-1.0721,-1.0717,-1.0688,-1.0522,-1.0256,-1.0226,-1.0057,-0.9761,-0.9386,-0.9253,-0.905,-0.8515,-0.8146,-0.7879,-0.7383,-0.7018,-0.665,-0.638,-0.6178,-0.5941,-0.5441,-0.4938,-0.4469,-0.3833,-0.3266,-0.2561,-0.2123,-0.2321,-0.263,-0.226,-0.1985,-0.1682,-0.1213,-0.0707,-0.0709,-0.044,-0.0135,0.0,0.0,0.0,0.0,0.0,0.0,0.0,0.0,0.0,0.0,0.0,0.0,0.0,0.0,0.0,0.0,0.0384,0.0942,0.1525,0.2189,0.2992,0.411,0.5398,0.6644,0.7965,0.8987,0.9694,1.0232,1.0572,1.0772,1.0721,1.0727,1.0741,1.0748,1.0724,1.0721,1.0721,1.0721,1.1085,1.171,1.2462,1.3763,1.5494,1.7157,1.8547,1.9877,2.0507,2.1071,2.1071,2.1102,2.1102,2.1102,2.1102,2.1102,2.1102,2.1102,2.1102,2.1102,2.1102,2.1102,2.1102,2.1102,2.1102,2.1102,2.1102,2.1102,2.1134,2.1197,2.1229,2.1355,2.145,2.1488,2.167,2.1954,2.2111,2.2205,2.2205,2.223,-1.0054,-1.0389,-1.0223,-0.9921,-0.9585,-0.9585,-0.9253,-0.8751,-0.8348,-0.7948,-0.7545,-0.7047,-0.661,-0.6176,-0.5642,-0.5274,-0.4973,-0.4774,-0.447,-0.4202,-0.3767,-0.3329,-0.2825,-0.2424,-0.1956,-0.1394,-0.1091,-0.0994,-0.1129,-0.1153,-0.0976,-0.0911,-0.0509,-0.0273,0.0,0.0,0.0,0.0,0.0,0.0,0.0,0.0,0.0,0.0,0.0,0.0,0.0,0.0,0.0,0.0,0.0,0.0,0.0,0.0771,0.1368,0.266,0.3571,0.4473,0.5399,0.6765,0.7954,0.8987,0.9838,1.0367,1.07,1.0856,1.0962,1.1009,1.0894,1.0823,1.0792,1.0765,1.0731,1.0724,1.0755,1.1199,1.1725,1.2458,1.3567,1.5391,1.719,1.8579,1.9845,2.057,2.1039,2.1102,2.1102,2.1102,2.1102,2.1102,2.1102,2.1102,2.1102,2.1102,2.1102,2.1102,2.1102,2.1102,2.1102,2.1102,2.1102,2.1102,2.1102,2.1102,2.1134,2.1134,2.1102,2.1166,2.1292,2.1299,2.1299,2.1513,2.167,2.1576,2.1576,-0.8914,-0.9253,-0.9289,-0.9053,-0.8681,-0.8515,-0.8046,-0.7479,-0.6978,-0.6477,-0.5875,-0.5339,-0.4705,-0.4235,-0.3899,-0.3698,-0.3431,-0.3297,-0.2935,-0.2566,-0.2266,-0.1968,-0.1601,-0.1296,-0.1027,0.0,-0.0449,-0.0382,-0.0277,-0.0276,-0.0409,-0.0374,-0.0206,0.0,0.0,0.0,0.0,0.0,0.0,0.0,0.0,0.0,0.0,0.0,0.0,0.0,0.0,0.0,0.0,0.0,0.0,0.0391,0.0746,0.1244,0.2203,0.3514,0.4701,0.5898,0.6931,0.8099,0.92,0.9951,1.054,1.0842,1.1066,1.1196,1.1193,1.1159,1.1063,1.0975,1.0948,1.0897,1.089,1.086,1.0829,1.1263,1.1762,1.2567,1.3715,1.5554,1.7249,1.8612,1.9775,2.0602,2.1014,2.1071,2.1102,2.1102,2.1102,2.1102,2.1102,2.1102,2.1102,2.1102,2.1102,2.1102,2.1102,2.1102,2.1102,2.1102,2.1102,2.1102,2.1102,2.1102,2.1102,2.1102,2.1102,2.1102,2.1102,2.1166,2.1197,2.1134,2.1166,2.1102,2.1102,-0.7212,-0.6744,-0.7676,-0.7846,-0.7514,-0.6878,-0.641,-0.5943,-0.5274,-0.4804,-0.43,-0.3462,-0.2858,-0.2525,-0.2494,-0.2395,-0.2291,-0.1918,-0.1766,-0.1574,-0.1339,-0.1035,-0.0763,-0.0591,0.0,0.0,0.0,0.0,0.0,0.0,0.0,0.0,0.0,0.0,0.0,0.0,0.0,0.0,0.0,0.0,0.0,0.0,0.0,0.0,0.0,0.0,0.0,0.0,0.0,0.0109,0.0434,0.0904,0.1372,0.1986,0.3068,0.4507,0.5767,0.7058,0.8403,0.912,0.9744,1.0414,1.088,1.116,1.1243,1.123,1.121,1.124,1.1185,1.1155,1.1148,1.1162,1.106,1.1026,1.107,1.1381,1.1959,1.2777,1.4026,1.5774,1.7313,1.8708,1.9775,2.0634,2.1014,2.1071,2.1102,2.1102,2.1102,2.1102,2.1102,2.1102,2.1102,2.1102,2.1102,2.1102,2.1102,2.1102,2.1102,2.1102,2.1102,2.1102,2.1102,2.1102,2.1102,2.1102,2.1102,2.1102,2.1102,2.1102,2.1102,2.1102,2.1102,2.1102,2.1102,-0.554,-0.5138,-0.5103,-0.5339,-0.5808,-0.5305,-0.4769,-0.4234,-0.3731,-0.3161,-0.2624,-0.1984,-0.1649,-0.1552,-0.1496,-0.1398,-0.1161,-0.0998,-0.0831,-0.0625,-0.0418,0.0,0.0,0.0,0.0,0.0,0.0,0.0,0.0,0.0,0.0,0.0,0.0,0.0,0.0,0.0,0.0,0.0,0.0,0.0,0.0,0.0,0.0,0.0,0.0,0.0,0.0,0.0,0.0,0.0547,0.0985,0.1604,0.2295,0.3025,0.4223,0.564,0.6837,0.814,0.9371,0.9998,1.0451,1.1054,1.1376,1.143,1.1409,1.143,1.144,1.1426,1.1383,1.1307,1.1332,1.1254,1.1172,1.1176,1.13,1.154,1.2184,1.2979,1.4227,1.5914,1.7412,1.883,1.9769,2.0672,2.0919,2.1102,2.1102,2.1102,2.1102,2.1102,2.1102,2.1102,2.1102,2.1102,2.1102,2.1102,2.1102,2.1102,2.1102,2.1102,2.1102,2.1102,2.1102,2.1102,2.1102,2.1102,2.1102,2.1102,2.1102,2.1102,2.1102,2.1102,2.1102,2.1102,2.1102,-0.3899,-0.3462,-0.296,-0.3295,-0.4068,-0.3697,-0.3228,-0.2724,-0.2388,-0.189,-0.1253,-0.0948,-0.0781,-0.0785,-0.0756,-0.0657,-0.0485,-0.0349,-0.0211,0.0,0.0,0.0,0.0,0.0,0.0,0.0,0.0,0.0,0.0,0.0,0.0,0.0,0.0,0.0,0.0,0.0,0.0,0.0,0.0,0.0,0.0,0.0,0.0,0.0,0.0,0.0,0.0,0.0657,0.1021,0.1422,0.2005,0.2805,0.3606,0.4514,0.564,0.6837,0.7962,0.901,0.9951,1.0639,1.1034,1.1432,1.155,1.1592,1.158,1.158,1.1572,1.1582,1.1504,1.1453,1.1447,1.1385,1.1383,1.1365,1.1308,1.1542,1.239,1.3287,1.46,1.6025,1.756,1.9181,1.9833,2.0672,2.0919,2.1102,2.1102,2.1102,2.1102,2.1102,2.1102,2.1102,2.1102,2.1102,2.1102,2.1102,2.1102,2.1102,2.1102,2.1102,2.1102,2.1102,2.1102,2.1102,2.1102,2.1102,2.1102,2.1102,2.1102,2.1102,2.1102,2.1102,2.1102,2.1102,2.1102,-0.2354,-0.1683,-0.1649,-0.2086,-0.2622,-0.1951,-0.1683,-0.165,-0.1315,-0.0985,-0.0583,-0.024,0.0,0.0,0.0,0.0,0.0,0.0,0.0,0.0,0.0,0.0,0.0,0.0,0.0,0.0,0.0,0.0,0.0,0.0,0.0,0.0,0.0,0.0,0.0,0.0,0.0,0.0,0.0,0.0,0.0,0.0,0.0,0.0,0.0511,0.0693,0.0802,0.1458,0.1932,0.2369,0.346,0.4332,0.5168,0.6255,0.7344,0.8437,0.8979,0.9846,1.0825,1.1296,1.1508,1.158,1.158,1.158,1.158,1.158,1.158,1.1616,1.1589,1.1589,1.156,1.1553,1.1558,1.1518,1.1423,1.173,1.2556,1.3604,1.4896,1.6287,1.8022,1.9563,2.0118,2.064,2.0951,2.1102,2.1102,2.1102,2.1102,2.1102,2.1102,2.1102,2.1102,2.1102,2.1102,2.1102,2.1102,2.1102,2.1102,2.1102,2.1102,2.1102,2.1102,2.1102,2.1102,2.1102,2.1102,2.1102,2.1102,2.1102,2.1102,2.1102,2.1102,2.1102,2.1102,-0.1346,-0.0875,-0.0875,-0.0875,-0.0908,-0.0909,-0.0875,-0.0809,-0.0544,0.0,-0.0174,-0.0035,0.0,0.0,0.0,0.0,0.0,0.0,0.0,0.0,0.0,0.0,0.0,0.0,0.0,0.0,0.0,0.0,0.0,0.0,0.0,0.0,0.0,0.0,0.0,0.0,0.0,0.0,0.0,0.0,0.0,0.0255,0.0438,0.0474,0.1057,0.1385,0.1531,0.2405,0.3133,0.3715,0.4879,0.5967,0.6801,0.7887,0.876,0.9524,1.0029,1.0681,1.126,1.1548,1.158,1.158,1.158,1.158,1.158,1.158,1.158,1.158,1.158,1.158,1.1577,1.1573,1.1592,1.1592,1.1616,1.2002,1.2732,1.3899,1.5147,1.6648,1.8278,1.9728,2.0579,2.0755,2.1007,2.1102,2.1102,2.1102,2.1102,2.1102,2.1102,2.1102,2.1102,2.1102,2.1102,2.1102,2.1102,2.1102,2.1102,2.1102,2.1102,2.1102,2.1102,2.1102,2.1102,2.1102,2.1102,2.1102,2.1102,2.1102,2.1102,2.1102,2.1102,2.1102,2.1102,-0.0572,-0.0337,-0.0338,-0.0203,-0.0034,-0.0237,-0.034,-0.0308,0.0,0.0,0.0,0.0,0.0,0.0,0.0,0.0,0.0,0.0,0.0,0.0,0.0,0.0,0.0,0.0,0.0,0.0,0.0,0.0,0.0,0.0,0.0,0.0,0.0146,0.0,0.0,0.0,0.0,0.0,0.0,0.0,0.0511,0.0766,0.1094,0.1386,0.1895,0.2477,0.295,0.3678,0.4623,0.5424,0.644,0.7564,0.8432,0.9266,0.9957,1.0429,1.0825,1.1296,1.1512,1.1584,1.158,1.158,1.158,1.158,1.158,1.158,1.158,1.158,1.158,1.158,1.158,1.158,1.158,1.158,1.1868,1.2216,1.3005,1.4174,1.5598,1.708,1.8631,1.9965,2.0951,2.0954,2.1071,2.1102,2.1102,2.1102,2.1102,2.1102,2.1102,2.1102,2.1102,2.1102,2.1102,2.1102,2.1102,2.1102,2.1102,2.1102,2.1102,2.1102,2.1102,2.1102,2.1102,2.1102,2.1102,2.1102,2.1102,2.1102,2.1102,2.1102,2.1102,2.1102,2.1102,0.0,0.0,0.0,0.0,0.0,0.0,0.0,0.0,0.0,0.0,0.0,0.0,0.0,0.0,0.0,0.0,0.0,0.0,0.0,0.0,0.0,0.0,0.0,0.0,0.0,0.0,0.0,0.0,0.0,0.0,0.0,0.0,0.0,0.0693,0.062,0.0656,0.062,0.0729,0.0729,0.0948,0.1313,0.1714,0.215,0.2623,0.3278,0.404,0.4658,0.5421,0.6402,0.7312,0.8292,0.9088,0.9846,1.0609,1.09,1.1116,1.14,1.1508,1.158,1.158,1.158,1.158,1.158,1.158,1.158,1.158,1.158,1.158,1.158,1.158,1.158,1.158,1.158,1.1763,1.1979,1.2581,1.3396,1.4606,1.6093,1.7629,1.9277,2.0514,2.1181,2.1323,2.1136,2.1102,2.1102,2.1102,2.1102,2.1102,2.1102,2.1102,2.1102,2.1102,2.1102,2.1102,2.1102,2.1102,2.1102,2.1102,2.1102,2.1102,2.1102,2.1102,2.1102,2.1102,2.1102,2.1102,2.1102,2.1102,2.1102,2.1102,2.1102,2.1102,2.1102,0.0,0.0,0.0,0.0,0.0,0.0,0.0,0.0,0.0,0.0,0.0,0.0,0.0,0.0,0.0,0.0,0.0,0.0,0.0,0.0,0.0,0.0,0.0,0.0,0.0,0.0,0.0,0.0,0.0,0.0255,0.0657,0.0,0.1313,0.1422,0.164,0.1821,0.1785,0.1677,0.164,0.1931,0.2514,0.3096,0.3569,0.4186,0.5021,0.5784,0.6398,0.7016,0.789,0.8724,0.9554,1.0242,1.0645,1.1149,1.1404,1.1404,1.1548,1.158,1.158,1.158,1.158,1.158,1.158,1.158,1.158,1.158,1.158,1.158,1.158,1.158,1.158,1.158,1.1655,1.1835,1.2158,1.2939,1.3821,1.5257,1.6752,1.8643,2.0265,2.0887,2.154,2.1395,2.1182,2.1136,2.1102,2.1102,2.1102,2.1102,2.1102,2.1102,2.1102,2.1102,2.1102,2.1102,2.1102,2.1102,2.1102,2.1102,2.1102,2.1102,2.1102,2.1102,2.1102,2.1102,2.1102,2.1102,2.1102,2.1102,2.1102,2.1102,2.1102,2.1102,2.1102,0.0,0.0,0.0,0.0,0.0,0.0,0.0,0.0,0.0,0.0,0.0,0.0,0.0,0.0,0.0,0.0,0.0,0.0,0.0,0.0,0.0,0.0,0.0,0.0146,0.0,0.0255,0.0438,0.0,0.0766,0.1094,0.1495,0.1895,0.2295,0.2622,0.2986,0.3458,0.3786,0.3531,0.3349,0.3348,0.393,0.4731,0.5385,0.5929,0.6837,0.7451,0.803,0.861,0.9157,0.9846,1.057,1.0858,1.1152,1.1476,1.158,1.1584,1.1584,1.158,1.158,1.158,1.158,1.158,1.158,1.158,1.158,1.158,1.158,1.158,1.158,1.158,1.158,1.1616,1.1727,1.1835,1.2545,1.3253,1.4564,1.5943,1.7774,1.9727,2.0805,2.14,2.1614,2.1405,2.1223,2.1142,2.1102,2.1102,2.1102,2.1102,2.1102,2.1102,2.1102,2.1102,2.1102,2.1102,2.1102,2.1102,2.1102,2.1102,2.1102,2.1102,2.1102,2.1102,2.1102,2.1102,2.1102,2.1102,2.1102,2.1102,2.1102,2.1102,2.1102,2.1102,2.1102,0.0,0.0,0.0,0.0,0.0,0.0,0.0,0.0,0.0,0.0,0.0,0.0,0.0,0.0,0.0,0.0,0.0,0.0,0.0,0.0,0.0,0.0,0.0,0.0474,0.0729,0.0876,0.1167,0.164,0.1968,0.2368,0.2804,0.3095,0.364,0.4149,0.4766,0.5274,0.5673,0.6034,0.5708,0.5563,0.5747,0.6511,0.7381,0.7779,0.843,0.9116,0.9696,1.0059,1.0317,1.0789,1.108,1.1257,1.144,1.1584,1.1584,1.158,1.158,1.158,1.158,1.158,1.158,1.158,1.158,1.158,1.158,1.158,1.158,1.158,1.158,1.158,1.158,1.176,1.1939,1.2366,1.3043,1.407,1.5416,1.7102,1.9228,2.0839,2.1439,2.1951,2.1958,2.1764,2.1509,2.1276,2.1189,2.1196,2.1109,2.1109,2.1102,2.1102,2.1102,2.1102,2.1102,2.1102,2.1102,2.1102,2.1102,2.1102,2.1102,2.1102,2.1102,2.1102,2.1102,2.1102,2.1102,2.1102,2.1102,2.1102,2.1102,2.1102,2.1102,2.1102,2.1102,0.0,0.0,0.0,0.0,0.0,0.0,0.0,0.0,0.0,0.0,0.0,0.0,0.0,0.0,0.0,0.0,0.0,0.0,0.0,0.0,0.0,0.0584,0.0657,0.124,0.1458,0.1677,0.2113,0.295,0.3532,0.3968,0.4331,0.4731,0.5276,0.5963,0.6507,0.7016,0.7559,0.8066,0.8247,0.7774,0.7596,0.8179,0.8941,0.9335,0.984,1.0167,1.0603,1.075,1.1005,1.1368,1.144,1.1512,1.158,1.158,1.158,1.158,1.158,1.158,1.158,1.158,1.158,1.158,1.158,1.158,1.158,1.158,1.158,1.158,1.1616,1.1616,1.1724,1.1939,1.2295,1.2936,1.3678,1.499,1.6336,1.8541,2.0717,2.1495,2.2098,2.2223,2.2245,2.2058,2.181,2.1636,2.1529,2.1442,2.1203,2.1136,2.1109,2.1102,2.1102,2.1102,2.1102,2.1102,2.1102,2.1102,2.1102,2.1102,2.1102,2.1102,2.1102,2.1102,2.1102,2.1102,2.1102,2.1102,2.1102,2.1102,2.1102,2.1102,2.1102,2.1102,2.1102,0.0,0.0,0.0,0.0,0.0,0.0,0.0,0.0,0.0,0.0109,0.0219,0.0,0.0,0.0,0.0,0.0182,0.0255,0.0,0.0,0.0,0.0948,0.1203,0.1567,0.2186,0.2768,0.3131,0.4039,0.484,0.5348,0.582,0.6219,0.6652,0.727,0.7668,0.821,0.8719,0.908,0.9513,1.0095,0.9918,0.9302,0.9776,1.0101,1.0458,1.075,1.1074,1.1145,1.1257,1.14,1.1548,1.1584,1.1584,1.158,1.158,1.158,1.158,1.158,1.158,1.158,1.158,1.158,1.158,1.158,1.158,1.158,1.158,1.158,1.1616,1.1871,1.1943,1.2119,1.2334,1.3039,1.3714,1.488,1.619,1.808,2.0248,2.1581,2.223,2.2549,2.2484,2.2445,2.2311,2.2031,2.1823,2.1743,2.1602,2.1402,2.1182,2.1149,2.1102,2.1102,2.1102,2.1102,2.1102,2.1102,2.1102,2.1102,2.1102,2.1102,2.1102,2.1102,2.1102,2.1102,2.1102,2.1102,2.1102,2.1102,2.1102,2.1102,2.1102,2.1102,2.1116,2.1142,0.0,0.0,0.0,0.0,0.0,0.0,0.0,0.0,0.0146,0.0401,0.073,0.0438,0.0219,0.0,0.0,0.0,0.0693,0.0948,0.1131,0.1495,0.1895,0.2368,0.295,0.3531,0.4367,0.5238,0.6108,0.6688,0.7234,0.7634,0.8102,0.8752,0.9041,0.9294,0.9807,1.0059,1.0167,1.0491,1.0861,1.1021,1.1021,1.1086,1.1008,1.1188,1.1404,1.158,1.158,1.158,1.158,1.158,1.158,1.158,1.158,1.158,1.158,1.158,1.158,1.158,1.158,1.158,1.158,1.158,1.158,1.158,1.158,1.158,1.158,1.1763,1.2015,1.2298,1.2477,1.3043,1.3785,1.4875,1.6185,1.7559,1.9727,2.1575,2.2201,2.2825,2.2792,2.2699,2.2612,2.2485,2.2311,2.2064,2.1903,2.1729,2.1562,2.1395,2.1256,2.1162,2.1102,2.1102,2.1071,2.1102,2.1102,2.1102,2.1102,2.1102,2.1102,2.1102,2.1102,2.1102,2.1102,2.1102,2.1102,2.1102,2.1102,2.1122,2.1102,2.1109,2.1142,2.1162,2.1203,0.0,0.0,0.0,0.0,0.0,0.0328,0.0474,0.0547,0.0839,0.1167,0.1458,0.1458,0.124,0.1022,0.0,0.1531,0.1713,0.1895,0.2223,0.2586,0.3387,0.3859,0.4511,0.5456,0.6437,0.7234,0.7919,0.8394,0.8721,0.9155,0.9479,0.9696,1.0062,1.032,1.0651,1.0844,1.0977,1.1273,1.1391,1.1484,1.156,1.1533,1.1486,1.1548,1.1544,1.158,1.158,1.158,1.158,1.158,1.159,1.1594,1.158,1.158,1.158,1.158,1.158,1.158,1.158,1.158,1.158,1.158,1.158,1.158,1.158,1.158,1.1655,1.1763,1.2051,1.2513,1.2868,1.3821,1.4702,1.6357,1.7805,1.935,2.1201,2.1925,2.2448,2.2756,2.2873,2.2833,2.282,2.2686,2.2612,2.2398,2.2251,2.2097,2.177,2.1582,2.1422,2.1296,2.1196,2.1077,2.1077,2.1071,2.1102,2.1102,2.1102,2.1102,2.1102,2.1102,2.1102,2.1102,2.1102,2.1102,2.1102,2.1102,2.1149,2.1162,2.1122,2.1116,2.1182,2.1296,2.1416]},{"header":{"parameterUnit":"m.s-1","parameterCategory":1,"la1":31.0,"la2":29.5877,"lo1":-88.7671,"lo2":-86.6584,"dy":0.0162,"dx":0.0185,"nx":115,"ny":88,"refTime":"2023-09-17T06:00:00:Z","depth":0,"parameterNumber":3,"parameterNumberName":"V-component_of_WINDS"},"data":[0.0,0.0,0.0,0.0,0.0,0.0,0.0,0.0,0.0,0.0,0.0,0.0,0.0,0.0,0.0,0.0,0.0,0.0,0.0,0.0,0.0,0.0,0.0,0.0,0.0,0.0,0.0,0.0,0.0,0.0,0.0,0.0,0.0,0.0,0.0,0.0,0.0,0.0,0.0,0.0,0.0,0.0,0.0,0.0,0.0,0.0,0.0,0.0,0.0,0.0,0.0,0.0,0.0,0.0,0.0,0.0,0.0,0.0,0.0,0.0,0.0,0.0,0.0,0.0,0.0,0.0,0.0,0.0,0.0,0.0,0.0,0.0,0.0,0.0,0.0,0.0,0.0,0.0,0.0,0.0,0.0,0.0,0.0,0.0,0.0,0.0,0.0,0.0,0.0,0.0,0.0,0.0,0.0,0.0,0.0,0.0,0.0,0.0,0.0,0.0,0.0,0.0,0.0,0.0,0.0,0.0,0.0,0.0,0.0,0.0,0.0,0.0,0.0,0.0,0.0,0.0,0.0,0.0,0.0,0.0,0.0,0.0,0.0,0.0,0.0,0.0,0.0,0.0,0.0,0.0,0.0,0.0,0.0,0.0,0.0,0.0,0.0,0.0,0.0,0.0,0.0,0.0,0.0,0.0,0.0,0.0,0.0,0.0,0.0,0.0,0.0,0.0,0.0,0.0,0.0,0.0,0.0,0.0,0.0,0.0,0.0,0.0,0.0,0.0,0.0,0.0,0.0,0.0,0.0,0.0,0.0,0.0,0.0,0.0,0.0,0.0,0.0,0.0,0.0,0.0,0.0,0.0,0.0,0.0,0.0,0.0,0.0,0.0,0.0,0.0,0.0,0.0,0.0,0.0,0.0,0.0,0.0,0.0,0.0,0.0,0.0,0.0,0.0,0.0,0.0,0.0,0.0,0.0,0.0,0.0,0.0,0.0,0.0,0.0,0.0,0.0,0.0,0.0,0.0,0.0,0.0,0.0,0.0,0.0,0.0,0.0,0.0,0.0,0.0,0.0,0.0,0.0,0.0,0.0,0.0,0.0,0.0,0.0,0.0,0.0,0.0,0.0,0.0,0.0,0.0,0.0,0.0,0.0,0.0,0.0,0.0,0.0,0.0,0.0,0.0,0.0,0.0,0.0,0.0,0.0,0.0,0.0,0.0,0.0,0.0,0.0,0.0,0.0,0.0,0.0,0.0,0.0,0.0,0.0,0.0,0.0,0.0,0.0,0.0,0.0,0.0,0.0,0.0,0.0,0.0,0.0,0.0,0.0,0.0,0.0,0.0,0.0,0.0,0.0,0.0,0.0,0.0,0.0,0.0,0.0,0.0,0.0,0.0,0.0,0.0,0.0,0.0,0.0,0.0,0.0,0.0,0.0,0.0,0.0,0.0,0.0,0.0,0.0,0.0,0.0,0.0,0.0,0.0,0.0,0.0,0.0,0.0,0.0,0.0,0.0,0.0,0.0,0.0,0.0,0.0,0.0,0.0,0.0,0.0,0.0,0.0,0.0,0.0,0.0,0.0,0.0,0.0,0.0,0.0,0.0,0.0,0.0,0.0,0.0,0.0,0.0,0.0,0.0,0.0,0.0,0.0,0.0,0.0,0.0,0.0,0.0,0.0,0.0,0.0,0.0,0.0,0.0,0.0,0.0,0.0,0.0,0.0,0.0,0.0,0.0,0.0,0.0,0.0,0.0,0.0,0.0,0.0,0.0,0.0,0.0,0.0,0.0,0.0,0.0,0.0,0.0,0.0,0.0,0.0,0.0,0.0,0.0,0.0,0.0,0.0,0.0,0.0,0.0,0.0,0.0,0.0,0.0,0.0,0.0,0.0,0.0,0.0,0.0,0.0,0.0,0.0,0.0,0.0,0.0,0.0,0.0,0.0,0.0,0.0,0.0,0.0,0.0,0.0,0.0,0.0,0.0,0.0,0.0,0.0,0.0,0.0,0.0,0.0,0.0,0.0,0.0,0.0,0.0,0.0,0.0,0.0,0.0,0.0,0.0,0.0,0.0,0.0,0.0,0.0,0.0,0.0,0.0,0.0,0.0,0.0,0.0,0.0,0.0,0.0,0.0,0.0,0.0,0.0,0.0,0.0,0.0,0.0,0.0,0.0,0.0,0.0,0.0,0.0,0.0,0.0,0.0,0.0,0.0,0.0,0.0,0.0,0.0,0.0,0.0,0.0,0.0,0.0,0.0,0.0,0.0,0.0,0.0,0.0,0.0,0.0,0.0,0.0,0.0,0.0,0.0,0.0,0.0,0.0,0.0,0.0,0.0,0.0,0.0,0.0,0.0,0.0,0.0,0.0,0.0,0.0,0.0,0.0,0.0,0.0,0.0,0.0,0.0,0.0,0.0,0.0,0.0,0.0,0.0,0.0,0.0,0.0,0.0,0.0,0.0,0.0,0.0,0.0,0.0,0.0,0.0,0.0,0.0,0.0,0.0,0.0,0.0,0.0,0.0,0.0,0.0,0.0,0.0,0.0,0.0,0.0,0.0,0.0,0.0,0.0,0.0,0.0,0.0,0.0,0.0,0.0,0.0,0.0,0.0,0.0,0.0,0.0,0.0,0.0,0.0,0.0,0.0,0.0,0.0,0.0,0.0,0.0,0.0,0.0,0.0,0.0,0.0,0.0,0.0,0.0,0.0,0.0,0.0,0.0,0.0,0.0,0.0,0.0,0.0,0.0,0.0,0.0,0.0,0.0,0.0,0.0,0.0,0.0,0.0,0.0,0.0,0.0,0.0,0.0,0.0,0.0,0.0,0.0,0.0,0.0,0.0,0.0,0.0,0.0,0.0,0.0,0.0,0.0,0.0,0.0,0.0,0.0,0.0,0.0,0.0,0.0,0.0,0.0,0.0,0.0,0.0,0.0,0.0,0.0,0.0,0.0,0.0,0.0,0.0,0.0,0.0,0.0,0.0,0.0,0.0,0.0,0.0,0.0,0.0,0.0,0.0,0.0,0.0,0.0,0.0,0.0,0.0,0.0,0.0,0.0,0.0,0.0,0.0,0.0,0.0,0.0,0.0,0.0,0.0,0.0,0.0,0.0,0.0,0.0,0.0,0.0,0.0,0.0,0.0,0.0,0.0,0.0,0.0,0.0,0.0,0.0,0.0,0.0,0.0,0.0,0.0,0.0,0.0,0.0,0.0,0.0,0.0,0.0,0.0,0.0,0.0,0.0,0.0,0.0,0.0,0.0,0.0,0.0,0.0,0.0,0.0,0.0,0.0,0.0,0.0,0.0,0.0,0.0,0.0,0.0,0.0,0.0,0.0,0.0,0.0,0.0,0.0,0.0,0.0,0.0,0.0,0.0,0.0,0.0,0.0,0.0,0.0,0.0,0.0,0.0,0.0,0.0,0.0,0.0,0.0,0.0,0.0,0.0,0.0,0.0,0.0,0.0,0.0,0.0,0.0,0.0,0.0,0.0,0.0,0.0,0.0,0.0,0.0,0.0,0.0,0.0,0.0,0.0,0.0,0.0,0.0,0.0,0.0,0.0,0.0,0.0,0.0,0.0,0.0,0.0,0.0,0.0,0.0,0.0,0.0,0.0,0.0,0.0,0.0,0.0,0.0,0.0,0.0,0.0,0.0,0.0,0.0,0.0,0.0,0.0,0.0,0.0,0.0,0.0,0.0,0.0,0.0,0.0,0.0,0.0,0.0,0.0,0.0,0.0,0.0,0.0,0.0,0.0,0.0,0.0,0.0,0.0,0.0,0.0,0.0,0.0,0.0,0.0,0.0,0.0,0.0,0.0,0.0,0.0,0.0,0.0,0.0,0.0,0.0,0.0,0.0,0.0,0.0,0.0,0.0,0.0,0.0,0.0,0.0,0.0,0.0,0.0,0.0,0.0,0.0,0.0,0.0,0.0,0.0,0.0,0.0,0.0,0.0,0.0,0.0,0.0,0.0,0.0,0.0,0.0,0.0,0.0,0.0,0.0,0.0,0.0,0.0,0.0,0.0,0.0,0.0,0.0,0.0,0.0,0.0,0.0,0.0,0.0,0.0,0.0,0.0,0.0,0.0,0.0,0.0,0.0,0.0,0.0,0.0,0.0,0.0,0.0,0.0,0.0,0.0,0.0,0.0,0.0,0.0,0.0,0.0,0.0,0.0,0.0,0.0,0.0,0.0,0.0,0.0,0.0,0.0,0.0,0.0,0.0,0.0,0.0,0.0,0.0,0.0,0.0,0.0,0.0,0.0,0.0,0.0,0.0,0.0,0.0,0.0,0.0,0.0,0.0,0.0,0.0,0.0,0.0,0.0,2.8987,0.0,0.0,0.0,0.0,0.0,0.0,0.0,0.0,0.0,0.0,0.0,0.0,0.0,0.0,0.0,0.0,0.0,0.0,0.0,0.0,0.0,0.0,0.0,0.0,0.0,0.0,0.0,0.0,0.0,0.0,0.0,0.0,0.0,0.0,0.0,0.0,0.0,0.0,0.0,0.0,0.0,0.0,0.0,0.0,0.0,0.0,0.0,0.0,0.0,0.0,0.0,0.0,0.0,0.0,0.0,0.0,0.0,0.0,0.0,0.0,0.0,0.0,0.0,0.0,0.0,0.0,0.0,0.0,0.0,0.0,0.0,0.0,0.0,0.0,0.0,0.0,0.0,0.0,0.0,0.0,0.0,0.0,0.0,0.0,0.0,0.0,0.0,0.0,0.0,0.0,0.0,0.0,0.0,0.0,0.0,0.0,0.0,0.0,0.0,0.0,0.0,0.0,0.0,0.0,0.0,0.0,0.0,0.0,0.0,0.0,2.9158,2.9062,2.9062,2.9045,2.8987,0.0,0.0,0.0,0.0,0.0,0.0,0.0,0.0,0.0,0.0,0.0,0.0,0.0,0.0,0.0,0.0,0.0,0.0,0.0,0.0,0.0,0.0,0.0,0.0,0.0,0.0,0.0,0.0,0.0,0.0,0.0,0.0,0.0,0.0,0.0,0.0,0.0,0.0,0.0,0.0,0.0,0.0,0.0,0.0,0.0,0.0,0.0,0.0,0.0,0.0,0.0,0.0,0.0,0.0,0.0,0.0,0.0,0.0,0.0,0.0,0.0,0.0,0.0,0.0,0.0,0.0,0.0,0.0,0.0,0.0,0.0,0.0,0.0,0.0,0.0,0.0,0.0,0.0,0.0,0.0,0.0,0.0,0.0,0.0,0.0,0.0,0.0,0.0,0.0,0.0,0.0,0.0,0.0,0.0,0.0,0.0,0.0,0.0,0.0,0.0,0.0,0.0,0.0,0.0,0.0,0.0,0.0,0.0,0.0,0.0,0.0,0.0,2.9119,2.9079,2.9011,0.0,0.0,0.0,0.0,0.0,0.0,0.0,0.0,0.0,0.0,0.0,0.0,0.0,0.0,0.0,0.0,0.0,0.0,0.0,0.0,0.0,0.0,0.0,0.0,0.0,0.0,0.0,0.0,0.0,0.0,0.0,0.0,0.0,0.0,0.0,0.0,0.0,0.0,0.0,0.0,0.0,0.0,0.0,0.0,0.0,0.0,0.0,0.0,0.0,0.0,0.0,0.0,0.0,0.0,0.0,0.0,0.0,0.0,0.0,0.0,0.0,0.0,0.0,0.0,0.0,0.0,0.0,0.0,0.0,0.0,0.0,0.0,0.0,0.0,0.0,0.0,0.0,0.0,0.0,0.0,0.0,0.0,0.0,0.0,0.0,0.0,0.0,0.0,0.0,0.0,0.0,0.0,0.0,0.0,0.0,0.0,0.0,0.0,0.0,0.0,0.0,0.0,0.0,0.0,0.0,0.0,0.0,0.0,0.0,0.0,2.9359,2.9291,2.9169,0.0,2.9011,0.0,0.0,0.0,0.0,0.0,0.0,0.0,0.0,0.0,0.0,0.0,0.0,0.0,0.0,0.0,0.0,0.0,0.0,0.0,0.0,0.0,0.0,0.0,0.0,0.0,0.0,0.0,0.0,0.0,0.0,0.0,0.0,0.0,0.0,0.0,0.0,0.0,0.0,0.0,0.0,0.0,0.0,0.0,0.0,0.0,0.0,0.0,0.0,0.0,0.0,0.0,0.0,0.0,0.0,0.0,0.0,0.0,0.0,0.0,0.0,0.0,0.0,0.0,0.0,0.0,0.0,0.0,0.0,0.0,0.0,0.0,0.0,0.0,0.0,0.0,0.0,0.0,0.0,0.0,0.0,0.0,0.0,0.0,0.0,0.0,0.0,0.0,0.0,0.0,0.0,0.0,0.0,0.0,0.0,0.0,0.0,0.0,0.0,0.0,0.0,0.0,0.0,0.0,0.0,0.0,0.0,0.0,0.0,0.0,0.0,2.9546,2.9365,2.9189,2.9091,0.0,0.0,0.0,0.0,0.0,0.0,0.0,0.0,0.0,0.0,0.0,0.0,0.0,0.0,0.0,0.0,0.0,0.0,0.0,0.0,0.0,0.0,0.0,0.0,0.0,0.0,0.0,0.0,0.0,0.0,0.0,0.0,0.0,0.0,0.0,0.0,0.0,0.0,0.0,0.0,0.0,0.0,0.0,0.0,0.0,0.0,0.0,0.0,0.0,0.0,0.0,0.0,0.0,0.0,0.0,0.0,0.0,0.0,0.0,0.0,0.0,0.0,0.0,0.0,0.0,0.0,0.0,0.0,0.0,0.0,0.0,0.0,0.0,0.0,0.0,0.0,0.0,0.0,0.0,0.0,0.0,0.0,0.0,0.0,0.0,0.0,0.0,0.0,0.0,0.0,0.0,0.0,0.0,0.0,0.0,0.0,0.0,0.0,0.0,0.0,0.0,0.0,0.0,0.0,0.0,0.0,0.0,0.0,0.0,0.0,2.9887,2.9746,2.9458,2.9257,2.9151,2.9117,0.0,0.0,0.0,0.0,0.0,0.0,0.0,0.0,0.0,0.0,0.0,0.0,0.0,0.0,0.0,0.0,0.0,0.0,0.0,0.0,0.0,0.0,0.0,0.0,0.0,0.0,0.0,0.0,0.0,0.0,0.0,0.0,0.0,0.0,0.0,0.0,0.0,0.0,0.0,0.0,0.0,0.0,0.0,0.0,0.0,0.0,0.0,0.0,0.0,0.0,0.0,0.0,0.0,0.0,0.0,0.0,0.0,0.0,0.0,0.0,0.0,0.0,0.0,0.0,0.0,0.0,0.0,0.0,0.0,0.0,0.0,0.0,0.0,0.0,0.0,0.0,0.0,0.0,0.0,0.0,0.0,0.0,0.0,0.0,0.0,0.0,0.0,0.0,0.0,0.0,0.0,0.0,0.0,0.0,0.0,0.0,0.0,0.0,0.0,0.0,0.0,0.0,0.0,0.0,0.0,0.0,0.0,0.0,3.0079,3.0019,2.9872,2.9584,2.9389,2.9259,0.0,0.0,0.0,0.0,0.0,0.0,0.0,0.0,0.0,0.0,0.0,0.0,0.0,0.0,0.0,0.0,0.0,0.0,0.0,0.0,0.0,0.0,0.0,0.0,0.0,0.0,0.0,0.0,0.0,0.0,0.0,0.0,0.0,0.0,0.0,0.0,0.0,0.0,0.0,0.0,0.0,0.0,0.0,0.0,0.0,0.0,0.0,0.0,0.0,0.0,0.0,0.0,0.0,0.0,0.0,0.0,0.0,0.0,0.0,0.0,0.0,0.0,0.0,0.0,0.0,0.0,0.0,0.0,0.0,0.0,0.0,0.0,0.0,0.0,0.0,0.0,0.0,0.0,0.0,0.0,0.0,0.0,0.0,0.0,0.0,0.0,0.0,0.0,0.0,0.0,0.0,0.0,0.0,0.0,0.0,0.0,0.0,0.0,0.0,0.0,0.0,0.0,0.0,0.0,0.0,0.0,0.0,0.0,0.0,3.0231,3.0083,2.9932,2.9774,2.9598,2.9433,0.0,0.0,0.0,0.0,0.0,0.0,0.0,0.0,0.0,0.0,0.0,0.0,0.0,0.0,0.0,0.0,0.0,0.0,0.0,0.0,0.0,0.0,0.0,0.0,0.0,0.0,0.0,0.0,0.0,0.0,0.0,0.0,0.0,0.0,0.0,0.0,0.0,0.0,0.0,0.0,0.0,0.0,0.0,0.0,0.0,0.0,0.0,0.0,0.0,0.0,0.0,0.0,0.0,0.0,0.0,0.0,0.0,0.0,0.0,0.0,0.0,0.0,0.0,0.0,0.0,0.0,0.0,0.0,0.0,0.0,0.0,0.0,0.0,0.0,0.0,0.0,0.0,0.0,0.0,0.0,0.0,0.0,0.0,0.0,0.0,0.0,0.0,0.0,0.0,0.0,0.0,0.0,0.0,0.0,0.0,0.0,0.0,0.0,0.0,0.0,0.0,0.0,0.0,0.0,0.0,0.0,0.0,0.0,0.0,3.0355,0.0,3.0049,2.998,2.9789,2.9584,0.0,0.0,0.0,0.0,0.0,0.0,0.0,0.0,0.0,0.0,0.0,0.0,0.0,0.0,0.0,0.0,0.0,0.0,0.0,0.0,0.0,0.0,0.0,0.0,0.0,0.0,0.0,0.0,0.0,0.0,0.0,0.0,0.0,0.0,0.0,0.0,0.0,0.0,0.0,0.0,0.0,0.0,0.0,0.0,0.0,0.0,0.0,0.0,0.0,0.0,0.0,0.0,0.0,0.0,0.0,0.0,0.0,0.0,0.0,0.0,0.0,0.0,0.0,0.0,0.0,0.0,0.0,0.0,0.0,0.0,0.0,0.0,0.0,0.0,0.0,0.0,0.0,0.0,0.0,0.0,0.0,0.0,0.0,0.0,0.0,0.0,0.0,0.0,0.0,0.0,0.0,0.0,0.0,0.0,0.0,0.0,0.0,0.0,0.0,0.0,0.0,0.0,0.0,0.0,0.0,0.0,0.0,0.0,3.0607,3.0504,3.0304,3.0198,3.0188,2.9946,2.9741,0.0,0.0,0.0,0.0,0.0,0.0,0.0,0.0,0.0,0.0,0.0,0.0,0.0,0.0,0.0,0.0,0.0,0.0,0.0,0.0,0.0,0.0,0.0,0.0,0.0,0.0,0.0,0.0,0.0,0.0,0.0,0.0,0.0,0.0,0.0,0.0,0.0,0.0,0.0,0.0,0.0,0.0,0.0,0.0,0.0,0.0,0.0,0.0,0.0,0.0,0.0,0.0,0.0,0.0,0.0,0.0,0.0,0.0,0.0,0.0,0.0,0.0,0.0,0.0,0.0,0.0,0.0,0.0,0.0,0.0,0.0,0.0,0.0,0.0,0.0,0.0,0.0,0.0,0.0,0.0,0.0,0.0,0.0,0.0,0.0,0.0,0.0,0.0,0.0,0.0,0.0,0.0,0.0,0.0,0.0,0.0,0.0,0.0,0.0,0.0,0.0,0.0,0.0,0.0,0.0,0.0,0.0,0.0,0.0,3.0589,3.0457,3.0381,3.0348,3.0167,3.0015,0.0,0.0,0.0,0.0,0.0,0.0,0.0,0.0,0.0,0.0,0.0,0.0,0.0,0.0,0.0,0.0,0.0,0.0,0.0,0.0,0.0,0.0,0.0,0.0,0.0,0.0,0.0,0.0,0.0,0.0,0.0,0.0,0.0,0.0,0.0,0.0,0.0,0.0,0.0,0.0,0.0,0.0,0.0,0.0,0.0,0.0,0.0,0.0,0.0,0.0,0.0,0.0,0.0,0.0,0.0,0.0,0.0,0.0,0.0,0.0,0.0,0.0,0.0,0.0,0.0,0.0,0.0,0.0,0.0,0.0,0.0,0.0,0.0,0.0,0.0,0.0,0.0,0.0,0.0,0.0,0.0,0.0,0.0,0.0,0.0,0.0,0.0,0.0,0.0,0.0,0.0,0.0,0.0,0.0,0.0,0.0,0.0,0.0,0.0,0.0,0.0,0.0,0.0,0.0,0.0,0.0,0.0,0.0,0.0,3.1657,3.1567,3.1482,3.1397,3.097,3.0685,3.0539,0.0,0.0,0.0,0.0,0.0,0.0,0.0,0.0,0.0,0.0,0.0,0.0,0.0,0.0,0.0,0.0,0.0,0.0,0.0,0.0,0.0,0.0,0.0,0.0,0.0,0.0,0.0,0.0,0.0,0.0,0.0,0.0,0.0,0.0,0.0,0.0,0.0,0.0,0.0,0.0,0.0,0.0,0.0,0.0,0.0,0.0,0.0,0.0,0.0,0.0,0.0,0.0,0.0,0.0,0.0,0.0,0.0,0.0,0.0,0.0,0.0,0.0,0.0,0.0,0.0,0.0,0.0,0.0,0.0,0.0,0.0,0.0,0.0,0.0,0.0,0.0,0.0,0.0,0.0,0.0,0.0,0.0,0.0,0.0,0.0,0.0,0.0,0.0,0.0,0.0,0.0,0.0,0.0,0.0,0.0,0.0,0.0,0.0,0.0,0.0,0.0,0.0,0.0,0.0,0.0,0.0,0.0,0.0,3.3515,3.3464,3.3349,3.3166,3.2317,3.1736,0.0,0.0,0.0,0.0,0.0,0.0,0.0,0.0,0.0,0.0,0.0,0.0,0.0,0.0,0.0,0.0,0.0,0.0,0.0,0.0,0.0,0.0,0.0,0.0,0.0,0.0,0.0,0.0,0.0,0.0,0.0,0.0,0.0,0.0,0.0,0.0,0.0,0.0,0.0,0.0,0.0,0.0,0.0,0.0,0.0,0.0,0.0,0.0,0.0,0.0,0.0,0.0,0.0,0.0,0.0,0.0,0.0,0.0,0.0,0.0,0.0,0.0,0.0,0.0,0.0,0.0,0.0,0.0,0.0,0.0,0.0,0.0,0.0,0.0,0.0,0.0,0.0,0.0,0.0,0.0,0.0,0.0,0.0,0.0,0.0,0.0,0.0,0.0,0.0,0.0,0.0,0.0,0.0,0.0,0.0,0.0,0.0,0.0,0.0,0.0,0.0,0.0,0.0,0.0,0.0,0.0,0.0,0.0,0.0,3.5197,3.5839,3.5532,3.4259,3.3931,3.3108,0.0,0.0,0.0,0.0,0.0,0.0,0.0,0.0,0.0,0.0,0.0,0.0,0.0,0.0,0.0,0.0,0.0,0.0,0.0,0.0,0.0,0.0,0.0,0.0,0.0,0.0,0.0,0.0,0.0,0.0,0.0,0.0,0.0,0.0,0.0,0.0,0.0,0.0,0.0,0.0,0.0,0.0,0.0,0.0,0.0,0.0,0.0,0.0,0.0,0.0,0.0,0.0,0.0,0.0,0.0,0.0,0.0,0.0,0.0,0.0,0.0,0.0,0.0,0.0,0.0,0.0,0.0,0.0,0.0,0.0,0.0,0.0,0.0,0.0,0.0,0.0,0.0,0.0,0.0,0.0,0.0,0.0,0.0,0.0,0.0,0.0,0.0,0.0,0.0,0.0,0.0,0.0,0.0,0.0,0.0,0.0,0.0,0.0,0.0,0.0,0.0,0.0,0.0,0.0,0.0,0.0,0.0,0.0,3.4609,3.6331,3.7591,3.7748,3.6758,3.5659,3.4247,0.0,0.0,0.0,0.0,0.0,0.0,0.0,0.0,0.0,0.0,0.0,0.0,0.0,0.0,0.0,0.0,0.0,0.0,0.0,0.0,0.0,0.0,0.0,0.0,0.0,0.0,0.0,0.0,0.0,0.0,0.0,0.0,0.0,0.0,0.0,0.0,0.0,0.0,0.0,0.0,0.0,0.0,0.0,0.0,0.0,0.0,0.0,0.0,0.0,0.0,0.0,0.0,0.0,0.0,0.0,0.0,0.0,0.0,0.0,0.0,0.0,0.0,0.0,0.0,0.0,0.0,0.0,0.0,0.0,0.0,0.0,0.0,0.0,0.0,0.0,0.0,0.0,0.0,0.0,0.0,0.0,0.0,0.0,0.0,0.0,0.0,0.0,0.0,0.0,0.0,0.0,0.0,0.0,0.0,0.0,0.0,0.0,0.0,0.0,0.0,0.0,0.0,0.0,0.0,0.0,0.0,0.0,0.0,3.5287,3.7102,3.8741,3.9603,3.9607,3.7399,3.5272,0.0,0.0,0.0,0.0,0.0,0.0,0.0,0.0,0.0,0.0,0.0,0.0,0.0,0.0,0.0,0.0,0.0,0.0,0.0,0.0,0.0,0.0,0.0,0.0,0.0,0.0,0.0,0.0,0.0,0.0,0.0,0.0,0.0,0.0,0.0,0.0,0.0,0.0,0.0,0.0,0.0,0.0,0.0,0.0,0.0,0.0,0.0,0.0,0.0,0.0,0.0,0.0,0.0,0.0,0.0,0.0,0.0,0.0,0.0,0.0,0.0,0.0,0.0,0.0,0.0,0.0,0.0,0.0,0.0,0.0,0.0,0.0,0.0,0.0,0.0,0.0,0.0,0.0,0.0,0.0,0.0,0.0,0.0,0.0,0.0,0.0,0.0,0.0,0.0,0.0,0.0,0.0,0.0,0.0,0.0,0.0,0.0,0.0,0.0,0.0,0.0,0.0,0.0,0.0,0.0,0.0,0.0,0.0,3.5513,3.7885,3.8963,3.9538,3.9532,3.8455,3.6736,0.0,0.0,0.0,0.0,0.0,0.0,0.0,0.0,0.0,0.0,0.0,0.0,0.0,0.0,0.0,0.0,0.0,0.0,0.0,0.0,0.0,0.0,0.0,0.0,0.0,0.0,0.0,0.0,0.0,0.0,0.0,0.0,0.0,0.0,0.0,0.0,0.0,0.0,0.0,0.0,0.0,0.0,0.0,0.0,0.0,0.0,0.0,0.0,3.6547,0.0,0.0,0.0,0.0,0.0,0.0,0.0,0.0,0.0,0.0,0.0,0.0,0.0,0.0,0.0,0.0,0.0,0.0,0.0,0.0,0.0,0.0,0.0,0.0,0.0,0.0,0.0,0.0,0.0,0.0,0.0,0.0,0.0,0.0,0.0,0.0,0.0,0.0,0.0,0.0,0.0,0.0,0.0,0.0,0.0,0.0,0.0,0.0,0.0,0.0,0.0,0.0,0.0,0.0,0.0,0.0,0.0,0.0,0.0,3.6997,3.9171,4.0444,4.0946,4.0626,3.9886,3.8125,0.0,0.0,0.0,0.0,0.0,0.0,0.0,0.0,0.0,0.0,0.0,0.0,0.0,0.0,0.0,0.0,0.0,0.0,0.0,0.0,0.0,0.0,0.0,0.0,0.0,0.0,0.0,0.0,0.0,0.0,0.0,0.0,0.0,0.0,0.0,0.0,0.0,0.0,0.0,0.0,0.0,0.0,0.0,0.0,0.0,0.0,0.0,0.0,0.0,0.0,0.0,0.0,0.0,0.0,0.0,0.0,0.0,0.0,0.0,0.0,0.0,0.0,0.0,0.0,0.0,0.0,0.0,0.0,0.0,0.0,0.0,0.0,0.0,0.0,0.0,0.0,0.0,0.0,0.0,0.0,0.0,0.0,0.0,0.0,0.0,0.0,0.0,0.0,0.0,0.0,0.0,0.0,0.0,0.0,0.0,0.0,0.0,0.0,0.0,0.0,0.0,0.0,0.0,0.0,0.0,0.0,0.0,3.6692,3.8763,4.0385,4.203,4.262,4.2067,4.1284,3.9442,3.6472,0.0,0.0,0.0,0.0,0.0,0.0,0.0,0.0,0.0,0.0,0.0,0.0,0.0,0.0,0.0,0.0,0.0,0.0,0.0,0.0,0.0,0.0,0.0,0.0,0.0,0.0,0.0,0.0,0.0,0.0,0.0,0.0,0.0,0.0,0.0,0.0,0.0,0.0,3.5991,3.7188,0.0,0.0,0.0,0.0,0.0,0.0,0.0,0.0,3.988,0.0,0.0,0.0,0.0,0.0,0.0,0.0,0.0,0.0,0.0,0.0,0.0,0.0,0.0,0.0,0.0,0.0,0.0,0.0,0.0,0.0,0.0,0.0,0.0,0.0,0.0,0.0,0.0,0.0,0.0,0.0,0.0,0.0,0.0,0.0,0.0,0.0,0.0,0.0,0.0,0.0,0.0,0.0,0.0,0.0,0.0,0.0,0.0,0.0,0.0,0.0,0.0,0.0,0.0,0.0,0.0,3.5007,3.7513,3.9316,4.0396,4.1976,4.2813,4.2793,4.2035,4.0751,3.8822,0.0,0.0,0.0,0.0,0.0,0.0,0.0,0.0,0.0,0.0,0.0,0.0,0.0,0.0,0.0,0.0,0.0,0.0,0.0,0.0,0.0,0.0,0.0,0.0,0.0,0.0,0.0,0.0,0.0,0.0,0.0,0.0,0.0,0.0,0.0,0.0,0.0,0.0,0.0,3.7529,3.7985,0.0,0.0,0.0,0.0,0.0,0.0,0.0,0.0,4.1657,0.0,0.0,0.0,0.0,0.0,0.0,0.0,0.0,0.0,0.0,0.0,0.0,0.0,0.0,0.0,0.0,0.0,0.0,0.0,0.0,0.0,0.0,0.0,0.0,0.0,0.0,0.0,0.0,0.0,0.0,0.0,0.0,0.0,0.0,0.0,0.0,0.0,0.0,0.0,0.0,0.0,0.0,0.0,0.0,0.0,0.0,0.0,0.0,0.0,0.0,0.0,0.0,0.0,0.0,0.0,3.6307,3.8792,4.0734,4.2053,4.3251,4.3538,4.2819,4.2088,4.0531,0.0,0.0,0.0,0.0,0.0,0.0,0.0,0.0,0.0,0.0,0.0,0.0,0.0,0.0,0.0,0.0,0.0,0.0,0.0,0.0,0.0,0.0,0.0,0.0,0.0,0.0,0.0,0.0,0.0,0.0,0.0,0.0,0.0,0.0,0.0,0.0,0.0,0.0,0.0,0.0,3.8704,3.9313,3.927,0.0,0.0,0.0,0.0,0.0,0.0,4.3041,4.323,0.0,0.0,0.0,0.0,0.0,0.0,0.0,0.0,0.0,0.0,0.0,0.0,0.0,0.0,0.0,0.0,0.0,0.0,0.0,0.0,0.0,0.0,0.0,0.0,0.0,0.0,0.0,0.0,0.0,0.0,0.0,0.0,0.0,0.0,0.0,0.0,0.0,0.0,0.0,0.0,0.0,0.0,0.0,0.0,0.0,0.0,0.0,0.0,0.0,0.0,0.0,0.0,0.0,0.0,0.0,3.7786,4.014,4.2072,4.3557,4.4453,4.4239,4.2912,4.2054,4.0134,0.0,0.0,0.0,0.0,0.0,0.0,0.0,0.0,0.0,0.0,0.0,0.0,0.0,0.0,0.0,0.0,0.0,0.0,0.0,0.0,0.0,0.0,0.0,0.0,0.0,0.0,0.0,0.0,0.0,0.0,0.0,0.0,0.0,0.0,0.0,0.0,0.0,0.0,0.0,0.0,0.0,4.0593,4.0734,4.0757,0.0,0.0,0.0,0.0,4.4296,4.4584,0.0,0.0,0.0,0.0,0.0,0.0,0.0,0.0,0.0,0.0,0.0,0.0,0.0,0.0,0.0,0.0,0.0,0.0,0.0,0.0,0.0,0.0,0.0,0.0,0.0,0.0,0.0,0.0,0.0,0.0,0.0,0.0,0.0,0.0,0.0,0.0,0.0,0.0,0.0,0.0,0.0,0.0,0.0,0.0,0.0,0.0,0.0,0.0,0.0,0.0,0.0,0.0,0.0,0.0,0.0,0.0,3.9386,4.1237,4.2639,4.3594,4.4434,4.4529,4.3762,4.2345,4.0417,0.0,0.0,0.0,0.0,0.0,0.0,0.0,0.0,0.0,0.0,0.0,0.0,0.0,0.0,0.0,0.0,0.0,0.0,0.0,0.0,0.0,0.0,0.0,0.0,0.0,0.0,0.0,0.0,0.0,0.0,0.0,0.0,0.0,0.0,0.0,0.0,0.0,0.0,0.0,0.0,0.0,4.0975,4.1577,4.1997,4.229,0.0,0.0,4.3487,4.4465,4.4584,0.0,0.0,0.0,0.0,0.0,0.0,0.0,0.0,0.0,0.0,0.0,0.0,0.0,0.0,0.0,0.0,0.0,0.0,0.0,0.0,0.0,0.0,0.0,0.0,0.0,0.0,0.0,0.0,0.0,0.0,0.0,0.0,0.0,0.0,0.0,0.0,0.0,0.0,0.0,0.0,0.0,0.0,0.0,0.0,0.0,0.0,0.0,0.0,0.0,0.0,0.0,0.0,0.0,0.0,0.0,3.8028,4.0017,4.1715,4.2992,4.3814,4.4358,4.4271,4.359,4.2196,4.0348,0.0,0.0,0.0,0.0,0.0,0.0,0.0,0.0,0.0,0.0,0.0,0.0,0.0,0.0,0.0,0.0,0.0,0.0,0.0,0.0,0.0,0.0,0.0,0.0,0.0,0.0,0.0,0.0,0.0,0.0,0.0,0.0,0.0,0.0,0.0,0.0,0.0,0.0,0.0,0.0,0.0,0.0,4.3175,4.3408,0.0,0.0,0.0,4.4499,4.5667,0.0,0.0,0.0,0.0,0.0,0.0,0.0,0.0,0.0,0.0,0.0,0.0,0.0,0.0,0.0,0.0,0.0,0.0,0.0,0.0,0.0,0.0,0.0,0.0,0.0,0.0,0.0,0.0,0.0,0.0,0.0,0.0,0.0,0.0,0.0,0.0,0.0,0.0,0.0,0.0,0.0,0.0,0.0,0.0,0.0,0.0,0.0,0.0,0.0,0.0,0.0,0.0,0.0,0.0,0.0,0.0,0.0,4.0602,4.2047,4.328,4.4273,4.4547,4.4341,4.3619,4.2572,0.0,0.0,0.0,0.0,0.0,0.0,0.0,0.0,0.0,0.0,0.0,0.0,0.0,0.0,0.0,0.0,0.0,0.0,0.0,0.0,0.0,0.0,0.0,0.0,0.0,0.0,0.0,3.5634,0.0,0.0,0.0,0.0,0.0,0.0,0.0,0.0,0.0,0.0,0.0,0.0,0.0,0.0,4.2777,4.4741,4.4975,4.5304,0.0,0.0,4.5582,4.687,4.6312,4.5449,0.0,0.0,0.0,0.0,0.0,0.0,0.0,0.0,0.0,0.0,0.0,0.0,0.0,0.0,0.0,0.0,0.0,0.0,0.0,0.0,0.0,0.0,0.0,0.0,0.0,0.0,0.0,0.0,0.0,0.0,0.0,0.0,0.0,0.0,0.0,0.0,0.0,0.0,0.0,0.0,0.0,0.0,0.0,0.0,0.0,0.0,0.0,0.0,0.0,0.0,0.0,0.0,0.0,0.0,0.0,4.1352,4.234,4.357,4.5072,4.5387,4.5178,4.444,4.397,4.2227,0.0,0.0,0.0,0.0,0.0,0.0,0.0,0.0,0.0,0.0,0.0,0.0,0.0,0.0,0.0,0.0,0.0,0.0,0.0,0.0,0.0,0.0,0.0,0.0,0.0,0.0,0.0,0.0,0.0,0.0,0.0,0.0,0.0,0.0,0.0,0.0,0.0,0.0,0.0,0.0,0.0,4.4437,4.5886,4.6772,4.7225,0.0,0.0,4.6921,4.7701,4.6619,4.5449,4.4702,0.0,0.0,0.0,0.0,0.0,0.0,0.0,0.0,0.0,0.0,0.0,0.0,0.0,0.0,0.0,0.0,0.0,0.0,0.0,0.0,0.0,0.0,0.0,0.0,0.0,0.0,0.0,0.0,0.0,0.0,0.0,0.0,0.0,0.0,0.0,0.0,0.0,0.0,0.0,0.0,0.0,0.0,0.0,0.0,0.0,0.0,0.0,0.0,0.0,0.0,0.0,0.0,0.0,3.9562,4.1964,4.3297,4.4504,4.5581,4.5976,4.6047,4.5866,4.5534,4.4339,0.0,0.0,0.0,0.0,0.0,0.0,0.0,0.0,0.0,0.0,0.0,0.0,0.0,0.0,0.0,0.0,0.0,0.0,0.0,0.0,0.0,0.0,0.0,0.0,0.0,0.0,0.0,0.0,3.979,4.0117,3.9263,0.0,0.0,0.0,0.0,0.0,0.0,0.0,0.0,0.0,0.0,4.5202,4.6984,4.7156,0.0,0.0,4.6672,4.6227,4.65,4.5686,4.4756,4.3978,4.1749,0.0,0.0,0.0,0.0,0.0,0.0,0.0,0.0,0.0,0.0,0.0,0.0,0.0,0.0,0.0,0.0,0.0,0.0,0.0,0.0,0.0,0.0,0.0,0.0,0.0,0.0,0.0,0.0,0.0,0.0,0.0,0.0,0.0,0.0,0.0,0.0,0.0,0.0,0.0,0.0,0.0,0.0,0.0,0.0,0.0,0.0,0.0,0.0,0.0,0.0,0.0,0.0,3.99,4.2278,4.3874,4.5195,4.625,4.6651,4.6919,4.7049,4.7046,4.6317,0.0,0.0,0.0,0.0,0.0,0.0,0.0,0.0,0.0,0.0,0.0,0.0,0.0,0.0,0.0,0.0,0.0,0.0,0.0,0.0,0.0,0.0,0.0,0.0,0.0,0.0,0.0,0.0,4.0212,4.0215,3.886,0.0,0.0,0.0,0.0,0.0,0.0,0.0,0.0,0.0,0.0,4.6171,4.7719,4.7525,4.7278,4.7444,4.6488,4.5693,4.5415,4.4722,4.3893,4.2899,0.0,0.0,0.0,0.0,0.0,0.0,0.0,0.0,0.0,0.0,0.0,0.0,0.0,0.0,0.0,0.0,0.0,0.0,0.0,0.0,0.0,0.0,0.0,0.0,0.0,0.0,0.0,0.0,0.0,0.0,2.9844,0.0,0.0,0.0,0.0,0.0,0.0,0.0,0.0,0.0,0.0,0.0,0.0,0.0,0.0,0.0,0.0,0.0,0.0,0.0,0.0,0.0,0.0,3.99,4.2286,4.3911,4.5489,4.703,4.7465,4.7738,4.7882,4.844,4.8024,4.6481,0.0,0.0,0.0,0.0,0.0,0.0,0.0,0.0,0.0,0.0,0.0,0.0,0.0,0.0,0.0,0.0,0.0,0.0,0.0,0.0,0.0,0.0,0.0,0.0,0.0,0.0,3.9644,3.9225,3.8944,0.0,0.0,0.0,0.0,0.0,0.0,0.0,0.0,0.0,0.0,4.6144,4.7589,4.802,4.8113,4.7865,4.7409,4.6476,4.5555,4.4696,4.391,4.2932,0.0,0.0,0.0,0.0,0.0,0.0,0.0,0.0,0.0,0.0,0.0,0.0,0.0,0.0,0.0,0.0,0.0,0.0,0.0,0.0,0.0,0.0,0.0,0.0,0.0,0.0,0.0,3.1579,3.1704,0.0,0.0,0.0,0.0,0.0,0.0,0.0,0.0,0.0,0.0,0.0,3.7796,3.7573,0.0,0.0,0.0,0.0,0.0,0.0,0.0,0.0,0.0,0.0,0.0,0.0,4.0157,4.3029,4.469,4.6278,4.7847,4.8245,4.8516,4.8685,4.92,4.8838,4.7518,0.0,0.0,0.0,0.0,0.0,0.0,0.0,0.0,0.0,0.0,0.0,0.0,0.0,0.0,0.0,0.0,0.0,0.0,0.0,0.0,0.0,0.0,0.0,0.0,0.0,4.0783,0.0,0.0,0.0,0.0,0.0,0.0,0.0,0.0,0.0,0.0,0.0,4.3317,4.515,4.6273,4.7083,4.7629,4.6761,4.592,0.0,0.0,0.0,0.0,0.0,0.0,0.0,0.0,0.0,0.0,0.0,0.0,0.0,0.0,4.0083,3.8836,3.9026,3.9365,3.9365,0.0,0.0,0.0,0.0,0.0,0.0,0.0,0.0,0.0,0.0,0.0,0.0,0.0,0.0,3.4422,0.0,3.4606,0.0,0.0,0.0,0.0,0.0,0.0,0.0,0.0,3.9517,4.0329,4.1138,4.0616,4.0642,0.0,4.0624,3.9827,0.0,0.0,0.0,0.0,0.0,0.0,0.0,0.0,4.0983,4.3828,4.5498,4.6975,4.8308,4.8688,4.8933,4.9171,4.9686,4.9494,4.8495,4.6636,4.4989,0.0,0.0,0.0,0.0,0.0,0.0,0.0,0.0,0.0,0.0,0.0,0.0,0.0,0.0,0.0,0.0,0.0,0.0,0.0,0.0,0.0,0.0,0.0,4.1562,0.0,0.0,0.0,0.0,0.0,0.0,0.0,0.0,0.0,4.0551,4.235,4.4093,4.5681,4.6098,4.6362,4.6622,0.0,0.0,0.0,0.0,0.0,0.0,0.0,4.1106,4.0865,4.1457,4.2053,4.2337,4.1978,4.1826,4.2286,0.0,0.0,4.0882,4.1153,4.1677,4.1647,4.1582,4.1515,4.1445,4.1295,4.116,0.0,0.0,0.0,0.0,0.0,0.0,0.0,0.0,3.798,3.811,0.0,3.8306,0.0,0.0,0.0,0.0,0.0,3.9526,0.0,0.0,4.2039,4.2837,4.3579,4.3561,4.3579,4.3598,4.3561,4.3533,4.3359,4.0451,0.0,0.0,0.0,0.0,0.0,0.0,4.2314,4.4626,4.625,4.7563,4.8522,4.8806,4.9074,4.9425,5.0068,5.0114,4.9431,4.8649,4.7832,4.6985,4.46,0.0,0.0,0.0,0.0,0.0,0.0,0.0,0.0,0.0,0.0,0.0,0.0,0.0,0.0,0.0,0.0,0.0,0.0,0.0,0.0,4.2317,0.0,0.0,0.0,0.0,0.0,0.0,0.0,0.0,0.0,0.0,4.2176,4.3057,4.413,4.5755,0.0,0.0,0.0,0.0,4.4151,4.3438,4.2489,4.147,4.0341,4.0785,4.1052,4.0371,0.0,0.0,4.4567,4.4702,4.4736,4.4736,4.5365,4.5367,4.3913,4.4215,4.4668,4.4719,4.4719,4.4663,4.4501,4.4459,4.4399,4.0491,0.0,0.0,0.0,0.0,3.8688,3.9787,4.1468,4.157,4.1687,4.1812,4.183,0.0,0.0,0.0,0.0,0.0,0.0,4.3435,4.3709,4.4507,4.5296,4.6039,4.548,4.5516,4.6039,4.548,4.5204,4.5176,4.4287,4.2855,4.0928,0.0,0.0,0.0,0.0,4.2865,4.4663,4.6287,4.783,4.9341,4.9566,5.0205,5.1349,5.1878,5.2081,5.1941,5.1205,5.0139,4.874,4.7434,0.0,0.0,0.0,0.0,0.0,0.0,0.0,0.0,0.0,0.0,0.0,0.0,0.0,0.0,0.0,0.0,0.0,0.0,0.0,4.4274,4.3958,4.3016,0.0,0.0,0.0,0.0,0.0,0.0,0.0,0.0,0.0,4.3727,4.4204,4.4938,0.0,0.0,4.5517,4.5281,4.476,4.4195,4.3662,4.3039,0.0,0.0,4.2014,4.2696,4.2506,4.4776,4.6703,4.6906,4.7378,4.7733,4.7733,4.8342,4.8663,4.8274,4.7479,4.7192,4.7581,4.7733,4.7733,4.7673,4.7673,4.7641,4.437,4.2616,4.0543,4.047,4.1699,4.1829,4.2739,4.4116,4.4153,4.4227,4.4327,4.4345,4.43,4.4245,4.3769,0.0,0.0,0.0,4.5342,4.5691,4.6149,4.681,4.7516,4.7076,4.7104,4.7553,4.7443,4.7361,4.7379,4.7379,4.6452,4.4654,0.0,0.0,4.2535,4.3367,4.4421,4.5726,4.7362,4.8744,4.9825,5.0508,5.1343,5.2338,5.2729,5.297,5.3051,5.2637,5.1947,5.0952,5.013,4.8471,0.0,0.0,0.0,0.0,0.0,0.0,0.0,0.0,0.0,0.0,0.0,3.9289,0.0,0.0,0.0,0.0,4.4198,4.5468,4.6445,4.5683,0.0,0.0,0.0,0.0,0.0,0.0,0.0,4.1372,4.2137,4.3238,4.4947,4.5452,4.5993,4.6966,4.6266,4.5612,4.5398,0.0,4.4796,4.4278,4.4029,4.3623,4.2887,4.3634,4.459,4.5503,4.7344,4.8834,4.9189,4.9595,4.9848,4.9916,5.022,5.0625,5.0913,5.0236,4.9628,4.9831,4.9881,4.9865,4.9865,4.9898,4.9865,4.7293,4.7099,4.4643,4.3958,4.4507,4.4525,4.5075,4.5992,4.5992,4.6039,4.6067,4.6085,4.6067,4.5993,4.6076,0.0,4.6085,4.6177,4.6627,4.7397,4.7388,4.7773,4.848,4.848,4.8498,4.8508,4.9307,4.9684,4.9674,4.9674,4.9288,4.8462,4.6241,4.5002,4.4864,4.5716,4.657,4.7334,4.9039,5.0064,5.0372,5.1709,5.2504,5.2709,5.2967,5.3103,5.3105,5.3152,5.3178,5.3068,5.2332,5.1179,4.9526,0.0,0.0,0.0,0.0,0.0,0.0,0.0,0.0,0.0,0.0,0.0,0.0,0.0,0.0,0.0,4.6801,0.0,4.8198,4.7367,0.0,0.0,0.0,4.2656,4.2428,4.2936,4.3543,4.4128,0.0,0.0,4.6103,4.6828,4.7324,4.7388,4.6644,4.5999,4.5815,4.6098,4.6,4.5475,4.5469,4.549,4.5172,4.5713,4.6805,4.8614,4.9779,5.049,5.1066,5.1336,5.137,5.137,5.137,5.1589,5.2283,5.2283,5.2165,5.1488,5.1387,5.1387,5.1387,5.1387,5.1387,4.991,4.9845,4.9217,4.7941,4.6356,4.6356,4.6871,4.7689,4.7699,4.7709,4.7728,4.7719,4.7379,4.6847,4.7452,4.7737,4.7764,4.8426,4.915,4.9893,4.9911,5.0003,5.0196,5.0186,5.0215,5.0233,5.0417,5.0527,5.0508,5.0508,5.0438,5.0233,4.9092,4.7601,4.5872,4.6651,4.7255,4.7588,4.9335,5.0939,5.2429,5.369,5.4104,5.3606,5.3887,5.3755,5.3152,5.3166,5.289,5.2231,5.2,5.1159,4.9584,4.7596,0.0,0.0,0.0,0.0,0.0,0.0,0.0,0.0,0.0,4.1999,4.274,0.0,4.6225,0.0,4.7998,4.9101,4.9087,4.8303,0.0,0.0,4.5739,4.5665,4.6011,4.6522,4.7063,4.7553,4.7646,4.7905,4.8647,4.8885,4.9252,4.9783,4.9107,4.8455,4.8213,4.8518,4.8553,4.7936,4.7522,4.7365,4.7569,4.8403,4.9373,5.0491,5.1302,5.1843,5.2029,5.2537,5.2959,5.2959,5.2943,5.3027,5.3146,5.323,5.3162,5.2993,5.2959,5.2926,5.2976,5.2926,5.2942,5.082,5.082,5.082,4.9983,4.8697,4.8697,4.8973,4.9407,4.9416,4.9407,4.9407,4.9426,4.9159,4.8792,4.9214,4.9426,4.9462,4.9921,5.0362,5.0802,5.082,5.082,5.082,5.082,5.082,5.082,5.1169,5.1346,5.1415,5.1754,5.1798,5.155,5.0765,4.9575,4.8071,4.7727,4.7673,4.7855,5.002,5.2067,5.3871,5.4347,5.4375,5.4047,5.3554,5.3055,5.2593,5.224,5.1856,5.1414,5.1717,5.1164,4.9584,4.8326,4.6567,0.0,0.0,0.0,0.0,0.0,0.0,0.0,0.0,0.0,0.0,0.0,4.7507,4.8507,4.9755,5.0683,5.1068,5.0317,4.9572,4.9075,4.8848,4.8853,4.9034,4.9505,4.9843,4.9885,4.9769,4.9766,5.0098,5.0445,5.0812,5.1279,5.12,5.0759,4.9943,5.0068,5.0281,4.9998,4.9762,4.9623,4.9774,5.0511,5.12,5.1657,5.2334,5.2841,5.2841,5.3196,5.3501,5.3501,5.3501,5.3501,5.3501,5.3501,5.3501,5.3501,5.3501,5.3501,5.3501,5.3501,5.3501,5.1086,5.1114,5.1114,5.1104,5.1104,5.1104,5.1004,5.082,5.082,5.082,5.082,5.082,5.082,5.082,5.082,5.0857,5.0949,5.0949,5.1004,5.1114,5.1114,5.1114,5.1114,5.1114,5.1114,5.1143,5.1842,5.2216,5.2329,5.3029,5.3103,5.2604,5.1834,5.1164,5.0563,4.9019,4.8346,4.8592,5.1012,5.3086,5.4747,5.43,5.3962,5.3697,5.2455,5.164,5.1404,5.0741,5.0361,5.038,5.1024,5.0837,4.9569,4.8751,4.7381,0.0,4.3788,0.0,0.0,0.0,0.0,0.0,0.0,0.0,0.0,4.7191,4.8647,5.0842,5.1659,5.237,5.314,5.2505,5.2062,5.2059,5.2009,5.1836,5.1583,5.2008,5.215,5.1666,5.15,5.1316,5.1199,5.1738,5.2152,5.2189,5.2627,5.253,5.1465,5.1402,5.1619,5.1758,5.1858,5.1681,5.1626,5.2025,5.2418,5.252,5.2976,5.3484,5.345,5.3467,5.3501,5.3501,5.3501,5.3501,5.3501,5.3501,5.3501,5.3501,5.3501,5.3501,5.3501,5.3501,5.3501,5.2737,5.2737,5.2755,5.2755,5.2737,5.2737,5.2003,5.082,5.082,5.082,5.082,5.082,5.082,5.082,5.082,5.1151,5.1767,5.1775,5.2123,5.2726,5.2737,5.2755,5.2737,5.2755,5.2789,5.2835,5.2974,5.315,5.3313,5.3576,5.372,5.3757,5.3026,5.2357,5.1751,0.0,0.0,0.0,5.2281,5.3162,5.4282,5.4279,5.3301,5.1367,5.1047,0.0,4.8909,4.8682,4.8586,4.8586,4.8735,0.0,0.0,0.0,0.0,0.0,0.0,0.0,0.0,0.0,0.0,0.0,4.8356,4.8505,4.82,4.9959,5.158,5.2621,5.2876,5.3024,5.3159,5.3068,5.2962,5.2951,5.3445,5.3655,5.3381,5.3773,5.3915,5.3395,5.3147,5.2957,5.2742,5.2884,5.2957,5.2976,5.3104,5.3343,5.3633,5.3364,5.3151,5.2844,5.2888,5.2844,5.2455,5.2872,5.3213,5.3315,5.3365,5.3484,5.3501,5.3501,5.3501,5.3501,5.3501,5.3501,5.3501,5.3501,5.3501,5.3501,5.3501,5.3501,5.3501,5.3501,5.3501,5.3196,0.0,5.3196,5.3196,0.0,5.3196,5.2737,5.1985,5.1995,5.1977,5.1985,5.1985,5.1995,5.1985,5.1966,5.2186,5.2601,5.2645,5.2867,5.3243,5.3305,5.3355,5.3355,5.3355,5.3388,5.3444,5.3444,5.3602,5.387,5.3972,5.4116,5.4374,5.3634,5.3145,5.2919,5.2274,5.2157,5.2634,5.32,5.3725,5.4199,5.3894,5.2908,5.1256,0.0,0.0,0.0,0.0,0.0,0.0,0.0,0.0,0.0,0.0,0.0,4.9208,4.9241,4.9118,4.8853,4.9615,5.0311,5.0755,5.1885,5.1959,5.0526,5.185,5.304,5.3754,5.3853,5.401,5.4395,5.4434,5.4434,5.4448,5.4715,5.4795,5.4552,5.4564,5.4399,5.3944,5.3649,5.3437,5.3227,5.3196,5.3398,5.3728,5.3801,5.4077,5.4745,5.4348,5.3862,5.3922,5.4065,5.3969,5.353,5.3461,5.3568,5.3517,5.3501,5.3501,5.3501,5.3501,5.3501,5.3501,5.3501,5.3501,5.3501,5.3501,5.3501,5.3501,5.3501,5.3501,5.3501,5.3501,5.3501,5.3196,5.3196,5.3196,5.3196,5.3196,5.3196,5.3196,5.3196,0.0,0.0,0.0,5.3196,5.3196,5.3196,5.3217,5.3227,5.3227,5.3308,5.3361,5.3381,5.3521,5.358,5.3582,5.3582,5.3631,5.37,5.3738,5.3926,5.4275,5.4308,5.4484,5.4686,5.4132,5.3896,5.4031,5.3618,5.3345,5.3342,5.3966,5.4325,5.4319,5.3698,5.286,5.1842,5.0524,4.9779,4.9625,4.8933,4.8567,4.8567,4.924,4.9398,4.8963,5.0289,5.0921,5.0552,5.121,5.1721,5.1859,5.2661,5.3222,5.335,5.4564,5.4599,5.2887,5.3429,5.4104,5.4704,5.472,5.4991,5.5626,5.5689,5.5689,5.5703,5.5579,5.5413,5.5184,5.4833,5.4416,5.3981,5.366,5.3437,5.3246,5.3343,5.3647,5.4252,5.4491,5.4884,5.5464,5.506,5.4653,5.5036,5.503,5.483,5.43,5.3897,5.3684,5.3517,5.3501,5.3501,5.3501,5.3501,5.3501,5.3501,5.3501,5.3501,5.3501,5.3501,5.3501,5.3501,5.3619,5.3704,5.3704,5.3805,5.3907,5.3196,5.3196,5.3196,5.3196,5.3196,5.3196,5.3196,5.3196,5.3196,5.3196,5.3196,5.3196,5.3196,5.3196,5.3254,5.3287,5.3308,5.3474,5.3612,5.3727,5.3813,5.387,5.3934,5.3934,5.398,5.4107,5.4187,5.4305,5.453,5.4761,5.4944,5.5033,5.5036,5.5084,5.5179,5.5197,5.5209,5.5197,5.4663,5.4408,5.447,5.436,5.3514,5.1971,5.1673,5.1221,5.0539,5.0399,5.0341,5.0341,5.0457,5.0789,5.1433,5.1756,5.2272,5.299,5.3308,5.3495,5.3634,5.4438,5.5234,5.5893,5.6132,5.5728,5.4679,5.5151,5.5567,5.5609,5.5528,5.5549,5.5689,5.5689,5.5689,5.5678,5.5579,5.5426,5.5229,5.4859,5.4424,5.3981,5.366,5.3429,5.3369,5.3794,5.4234,5.4491,5.5152,5.5717,5.6235,5.6137,5.5973,5.6,5.5645,5.5056,5.4427,5.3947,5.3684,5.3517,5.3501,5.3501,5.3501,5.3501,5.3501,5.3501,5.3501,5.3501,5.3501,5.3501,5.3551,5.3619,5.4008,5.4414,5.4448,5.4888,5.5124,5.3196,5.3196,5.3196,5.3196,5.3196,5.3196,5.3196,5.3196,5.3196,5.3196,5.3196,5.3196,5.3196,5.3188,5.3274,5.332,5.342,5.3651,5.3851,5.4018,5.417,5.4274,5.4322,5.433,5.4382,5.4476,5.4528,5.4712,5.4914,5.5075,5.5216,5.5326,5.5401,5.548,5.551,5.5602,5.5665,5.5646,5.5286,5.4899,5.4511,5.4511,5.3895,5.2659,5.2601,5.2428,5.2087,5.2068,5.2068,5.2049,5.2073,5.2266,5.2685,5.3207,5.375,5.4294,5.4869,5.525,5.5352,5.5756,5.6151,5.6461,5.6433,5.6195,5.5705,5.5843,5.5917,5.5856,5.5756,5.5689,5.5689,5.5689,5.5689,5.5689,5.5579,5.5425,5.5236,5.4892,5.4498,5.4116,5.3775,5.3657,5.3873,5.4204,5.4821,5.5537,5.6381,5.7001,5.7274,5.7184,5.6927,5.6589,5.6049,5.5417,5.4757,5.4269,5.3914,5.3651,5.3551,5.3518,5.3501,5.3501,5.3501,5.3501,5.3501,5.3501,5.3518,5.3856,5.4025,5.416,5.4685,5.5124,5.5277,5.5784,5.5987,5.3196,5.3196,5.3196,5.3196,5.3196,5.3196,5.3188,5.3238,5.322,5.323,5.3269,5.323,5.3238,5.323,5.3349,5.3491,5.363,5.3898,5.4152,5.4342,5.4552,5.4687,5.4761,5.4769,5.478,5.4852,5.4895,5.5023,5.5223,5.5333,5.5432,5.5539,5.559,5.5618,5.5643,5.5682,5.5689,5.5689,5.5689,5.5395,5.478,5.478,5.4434,5.3837,5.376,5.376,5.376,5.378,5.378,5.378,5.3755,5.3805,5.388,5.4563,5.5051,5.5239,5.5953,5.6434,5.6515,5.6561,5.6577,5.6504,5.6444,5.639,5.6294,5.6125,5.5981,5.589,5.5791,5.5689,5.5689,5.5689,5.5689,5.5703,5.5596,5.5474,5.5301,5.4997,5.4723,5.4471,5.414,5.4164,5.4622,5.4897,5.5537,5.6811,5.7629,5.796,5.7997,5.7892,5.7565,5.7061,5.6456,5.5812,5.5199,5.4648,5.4205,5.3832,5.3651,5.3568,5.3517,5.3501,5.3501,5.3501,5.3501,5.3602,5.3754,5.416,5.4566,5.4803,5.5446,5.5969,5.6258,5.6647,5.6884,5.3196,5.3196,5.3196,5.3196,5.3196,5.3196,5.3241,5.3287,5.3297,5.3359,5.3469,5.3339,5.3308,5.3339,5.362,5.3775,5.3898,5.4265,5.4549,5.4758,5.4954,5.5114,5.5203,5.5236,5.5223,5.523,5.5295,5.5333,5.537,5.551,5.5602,5.5682,5.5698,5.5698,5.5698,5.5703,5.5689,5.5689,5.5689,5.567,5.5593,5.5593,5.5555,5.5478,5.5458,5.5478,5.5362,5.5478,5.5453,5.5472,5.542,5.5465,5.5546,5.5692,5.5867,5.6045,5.6271,5.6464,5.6575,5.6601,5.656,5.6506,5.6481,5.642,5.6303,5.6112,5.5973,5.59,5.5791,5.5689,5.5689,5.5689,5.5689,5.5703,5.5624,5.5539,5.5427,5.5142,5.5068,5.5346,5.5072,5.5086,5.5613,5.6129,5.6859,5.7611,5.7868,5.7978,5.7978,5.7904,5.7756,5.7449,5.691,5.6211,5.5531,5.497,5.4507,5.4078,5.38,5.3668,5.3551,5.3501,5.3501,5.3501,5.3501,5.3704,5.4211,5.4617,5.4888,5.553,5.619,5.6867,5.7459,5.768,5.7629,5.3196,5.3196,5.3196,5.3196,5.3206,5.3251,5.3326,5.342,5.3454,5.3573,5.3719,5.3766,5.3651,5.3522,5.3823,5.4036,5.4149,5.4514,5.4803,5.5035,5.5203,5.5333,5.5414,5.542,5.542,5.5426,5.5492,5.5522,5.5533,5.5613,5.5662,5.5703,5.5689,5.5689,5.5689,5.5689,5.5689,5.5689,5.5689,5.5689,5.5689,5.5689,5.5689,5.5689,5.5689,5.5689,5.5689,5.5689,5.5689,5.5689,5.5721,5.5778,5.5856,5.5956,5.6106,5.625,5.6373,5.6491,5.6598,5.6621,5.6581,5.655,5.6527,5.6454,5.6368,5.6141,5.5971,5.5894,5.5787,5.5689,5.5689,5.5689,5.5689,5.5678,5.5654,5.5742,5.6147,5.5927,5.5936,5.6274,5.6061,5.6012,5.6517,5.7118,5.7623,5.7941,5.7978,5.7978,5.7978,5.795,5.7862,5.7697,5.7326,5.6767,5.6059,5.5387,5.4865,5.4399,5.3964,5.3667,5.3534,5.3501,5.3501,5.3501,5.3501,5.3788,5.4448,5.504,5.548,5.6207,5.69,5.7561,5.7849,5.79,5.79,5.3196,5.3196,5.3196,5.3217,5.323,5.3326,5.3442,5.362,5.3719,5.3889,5.4072,5.4196,5.4152,5.3989,5.4152,5.4325,5.4514,5.4795,5.5042,5.5294,5.5389,5.5473,5.5551,5.5551,5.5556,5.5562,5.5596,5.5618,5.5629,5.5682,5.5689,5.5689,5.5689,5.5689,5.5689,5.5689,5.5689,5.5689,5.5689,5.5689,5.5689,5.5689,5.5689,5.5689,5.5689,5.5689,5.5689,5.5689,5.5714,5.573,5.5806,5.5866,5.5953,5.6064,5.6197,5.6329,5.6457,5.6534,5.66,5.6621,5.662,5.6593,5.6532,5.6465,5.6373,5.6178,5.6012,5.5883,5.5793,5.573,5.5689,5.5689,5.5785,5.5992,5.6011,5.6284,5.6964,5.6872,5.689,5.7268,5.706,5.6948,5.7354,5.7736,5.796,5.7978,5.7978,5.7978,5.7978,5.7978,5.7962,5.7869,5.7649,5.7208,5.6541,5.5851,5.5244,5.4697,5.4222,5.3799,5.3584,5.3551,5.3501,5.3501,5.3501,5.3923,5.482,5.5479,5.6071,5.6884,5.7492,5.7866,5.7883,5.79,5.79,5.3196,5.3196,5.3196,5.3233,5.3289,5.344,5.3659,5.3898,5.4099,5.4284,5.4478,5.4613,5.4704,5.4723,5.4642,5.4723,5.4952,5.5102,5.5275,5.5455,5.5556,5.5618,5.5678,5.5684,5.5678,5.5668,5.5687,5.5698,5.5698,5.5703,5.5689,5.5689,5.5689,5.5689,5.5689,5.5689,5.5689,5.5689,5.5689,5.5689,5.5689,5.5689,5.5689,5.5689,5.5689,5.5689,5.5689,5.5689,5.5735,5.5787,5.5866,5.5956,5.6066,5.6172,5.6285,5.645,5.657,5.66,5.6621,5.6621,5.662,5.6593,5.6538,5.6478,5.6422,5.6252,5.6118,5.5955,5.5957,5.5852,5.5906,5.5901,5.617,5.6843,5.694,5.7257,5.7951,5.7838,5.7935,5.8189,5.8004,5.7818,5.8047,5.804,5.799,5.7978,5.7978,5.7978,5.7978,5.7978,5.7985,5.7962,5.7815,5.7534,5.6899,5.6237,5.5642,5.5048,5.4507,5.4044,5.38,5.3618,5.3551,5.3501,5.3501,5.4025,5.5158,5.6004,5.6562,5.7154,5.7629,5.79,5.79,5.79,5.79,5.3196,5.3196,5.3243,5.3318,5.3451,5.367,5.3898,5.4158,5.4416,5.4661,5.4867,5.4983,5.5095,5.5178,5.5131,5.5136,5.5203,5.5339,5.5462,5.5562,5.5649,5.5687,5.5703,5.5689,5.5689,5.5689,5.5689,5.5689,5.5689,5.5689,5.5689,5.5689,5.5689,5.5689,5.5689,5.5689,5.5689,5.5689,5.5689,5.5689,5.5689,5.5689,5.5689,5.5689,5.5689,5.5689,5.5689,5.5765,5.5787,5.5847,5.5969,5.607,5.616,5.6307,5.6441,5.6561,5.6576,5.662,5.6621,5.6621,5.662,5.6613,5.654,5.6523,5.6399,5.6258,5.6308,5.6648,5.6661,5.6755,5.7137,5.6882,5.6901,5.7627,5.7857,5.8118,5.8684,5.8764,5.8797,5.9079,5.8718,5.8288,5.8183,5.8095,5.8008,5.7978,5.7978,5.7978,5.7978,5.7978,5.7978,5.7967,5.7862,5.7661,5.7294,5.6599,5.5954,5.5313,5.4738,5.4172,5.3799,5.3618,5.3517,5.3501,5.3501,5.4059,5.5209,5.6478,5.7036,5.746,5.79,5.79,5.79,5.79,5.79,5.3261,5.3303,5.338,5.3482,5.3669,5.3926,5.4203,5.4479,5.475,5.4971,5.5189,5.5275,5.5371,5.5456,5.5449,5.5456,5.5438,5.551,5.5568,5.5643,5.5692,5.5689,5.5689,5.5689,5.5689,5.5689,5.5689,5.5689,5.5689,5.5689,5.5689,5.5689,5.5689,5.5689,5.5689,5.5689,5.5689,5.5689,5.5689,5.5689,5.5689,5.5689,5.5857,5.6079,5.6148,5.6004,5.5754,5.5787,5.588,5.5969,5.607,5.6193,5.6319,5.6441,5.6557,5.6594,5.6619,5.662,5.6621,5.6621,5.6718,5.6984,5.6968,5.6971,5.7122,5.7049,5.723,5.7537,5.7544,5.7769,5.8344,5.8151,5.8055,5.8588,5.8679,5.9008,5.9687,5.9664,5.9597,5.9477,5.8979,5.8524,5.8297,5.8118,5.802,5.7978,5.7978,5.7978,5.7978,5.7978,5.7978,5.7978,5.792,5.778,5.7516,5.7005,5.6274,5.5621,5.4922,5.4332,5.3865,5.3685,5.3517,5.3501,5.3805,5.438,5.5361,5.6681,5.7375,5.7764,5.79,5.79,5.79,5.79,5.79,5.339,5.3511,5.3591,5.3729,5.3953,5.4202,5.4503,5.4806,5.5069,5.5256,5.5376,5.5449,5.5527,5.5585,5.5585,5.5618,5.566,5.5613,5.5643,5.5678,5.5703,5.5689,5.5689,5.5689,5.5689,5.5689,5.5689,5.5689,5.5689,5.5708,5.5708,5.5747,5.5843,5.5939,5.5805,5.5958,5.5862,5.592,5.5972,5.5901,5.5728,5.592,5.6305,5.6912,5.7056,5.6746,5.598,5.603,5.6206,5.6272,5.6338,5.6355,5.6703,5.6793,5.6712,5.6833,5.6738,5.6719,5.6738,5.6816,5.7245,5.7706,5.7827,5.8035,5.8445,5.8506,5.8463,5.8495,5.8425,5.8619,5.9311,5.9435,5.9415,5.9511,5.9511,5.9835,6.0384,6.0527,6.0191,5.9521,5.8984,5.8625,5.8407,5.8163,5.799,5.7978,5.7978,5.7978,5.7978,5.7978,5.7978,5.7978,5.7955,5.7892,5.7685,5.7394,5.6661,5.594,5.5212,5.4553,5.4077,5.3784,5.3568,5.3534,5.3788,5.4363,5.5023,5.6275,5.707,5.7459,5.7646,5.7849,5.79,5.79,5.79,5.3708,5.3804,5.3944,5.4125,5.4334,5.4645,5.4903,5.5102,5.5307,5.5443,5.5539,5.5602,5.5665,5.5657,5.5657,5.5692,5.5703,5.5687,5.5692,5.5742,5.5728,5.5708,5.5728,5.5728,5.5689,5.5689,5.5689,5.5708,5.5747,5.5747,5.5958,5.6478,5.6613,5.6915,5.7396,5.7492,5.7492,5.7492,5.7492,5.7486,5.7492,5.7473,5.7629,5.7851,5.7961,5.7883,5.7754,5.7742,5.7814,5.7914,5.8062,5.8168,5.8253,5.8351,5.8377,5.8378,5.8379,5.8398,5.8398,5.8359,5.8417,5.8663,5.8661,5.8687,5.8861,5.878,5.8921,5.9278,5.9267,5.949,6.019,6.0396,6.0358,6.0396,6.0396,6.0429,6.0645,6.0494,6.0038,5.9496,5.9034,5.87,5.8429,5.8156,5.802,5.7978,5.7978,5.7978,5.7978,5.7978,5.7978,5.7978,5.7985,5.7973,5.7792,5.7559,5.7043,5.6298,5.556,5.4817,5.4333,5.3914,5.3718,5.3619,5.389,5.4313,5.5006,5.57,5.6478,5.712,5.7374,5.7612,5.7815,5.79,5.7883,5.4054,5.4152,5.4351,5.4525,5.4711,5.4995,5.517,5.5314,5.5461,5.5573,5.5629,5.5668,5.5901,5.6132,5.6189,5.6382,5.6646,5.667,5.6665,5.6492,5.5882,5.5862,5.6189,5.6549,5.6665,5.6665,5.6665,5.6665,5.667,5.6684,5.6959,5.742,5.7478,5.7723,5.8256,5.8294,5.8294,5.8294,5.8256,5.8292,5.8289,5.8295,5.8492,5.8802,5.8916,5.9183,5.9537,5.9625,5.9419,5.9013,5.896,5.906,5.9133,5.9158,5.9199,5.9199,5.9199,5.918,5.9199,5.9101,5.9353,5.9479,5.9529,5.9623,5.9727,5.9649,5.9815,6.0122,6.0102,6.0204,6.0671,6.0781,6.08,6.0781,6.0762,6.0783,6.0691,6.0421,6.003,5.9556,5.914,5.8784,5.8468,5.8242,5.8054,5.8001,5.7978,5.7978,5.7978,5.7978,5.7978,5.7978,5.7978,5.7944,5.7874,5.7631,5.7363,5.6683,5.5943,5.5207,5.4553,5.4173,5.3898,5.3702,5.3805,5.4093,5.4702,5.5158,5.5818,5.6393,5.6934,5.7205,5.7374,5.7798,5.7883,5.4426,5.456,5.4742,5.4884,5.505,5.5331,5.5561,5.5613,5.5823,5.5975,5.5967,5.6088,5.6401,5.6959,5.7055,5.7415,5.8127,5.8088,5.8006,5.7665,5.6838,5.6434,5.7074,5.7684,5.7948,5.8069,5.8102,5.814,5.7986,5.8006,5.8338,5.8333,5.8357,5.8429,5.8665,5.8486,5.8632,5.8715,5.8619,5.8638,5.8615,5.8582,5.8967,5.9824,5.9944,6.0329,6.0935,6.1131,6.0647,5.942,5.9416,5.9523,5.9412,5.9355,5.9531,5.957,5.9394,5.9492,5.9414,5.9609,5.9819,6.0391,6.0431,6.0629,6.1023,6.088,6.076,6.0829,6.0754,6.0729,6.0781,6.08,6.08,6.08,6.08,6.0753,6.0623,6.038,6.0076,5.9727,5.9308,5.8875,5.8553,5.8312,5.8133,5.8031,5.7978,5.7978,5.7978,5.7978,5.7978,5.7978,5.7978,5.7967,5.792,5.7792,5.751,5.7158,5.6452,5.5773,5.4953,5.4506,5.4108,5.3916,5.377,5.4042,5.4313,5.4753,5.5125,5.5581,5.6089,5.6545,5.69,5.7171,5.7494,5.4889,5.5045,5.513,5.521,5.5416,5.612,5.6485,5.6641,5.7288,5.7475,5.7588,5.7607,5.7665,5.7934,5.7953,5.8107,5.8352,5.8371,5.8294,5.8236,5.7915,5.7723,5.7934,5.8184,5.8352,5.8371,5.8448,5.8294,5.8294,5.8429,5.8684,5.9184,5.9204,5.9511,6.0037,6.0096,6.0209,6.022,6.0239,6.0229,6.0204,6.02,6.0461,6.0758,6.0853,6.1081,6.1431,6.1569,6.1532,6.1086,6.1005,6.1033,6.0937,6.0937,6.0898,6.0898,6.0957,6.0996,6.0996,6.0976,6.1127,6.1287,6.1171,6.121,6.1295,6.1139,6.1007,6.093,6.0841,6.08,6.08,6.08,6.08,6.08,6.08,6.0771,6.0654,6.052,6.0254,5.9826,5.9444,5.9033,5.8609,5.8327,5.8145,5.8024,5.7978,5.7978,5.7978,5.7978,5.7978,5.7978,5.7978,5.7978,5.7944,5.7851,5.7709,5.7528,5.7012,5.6452,5.5601,5.4861,5.4474,5.4126,5.3932,5.409,5.4109,5.4347,5.4635,5.494,5.5464,5.6007,5.6005,5.6208,5.6615,5.5432,5.5842,5.5931,5.6203,5.661,5.7228,5.7486,5.7582,5.8033,5.8294,5.8294,5.8294,5.8486,5.8781,5.88,5.9031,5.9319,5.9358,5.9377,5.9377,5.9377,5.9165,5.8992,5.9088,5.9358,5.9358,5.9319,5.9377,5.9377,5.9338,5.9608,5.996,6.0079,6.0379,6.0737,6.0905,6.0948,6.092,6.1001,6.1051,6.1079,6.1104,6.1185,6.1285,6.1369,6.1449,6.1568,6.1659,6.1712,6.1694,6.1697,6.1699,6.1699,6.1699,6.1699,6.1699,6.1699,6.168,6.1699,6.1717,6.1688,6.1643,6.1534,6.1423,6.1274,6.1101,6.0976,6.0908,6.0841,6.0806,6.08,6.08,6.08,6.08,6.08,6.0765,6.068,6.0494,6.0246,5.9893,5.9515,5.912,5.8638,5.84,5.8219,5.8054,5.7978,5.7978,5.7978,5.7978,5.7978,5.7978,5.7978,5.7978,5.7978,5.7909,5.7839,5.7673,5.7425,5.6923,5.6248,5.5399,5.4983,5.4631,5.4285,5.408,5.417,5.419,5.4226,5.4601,5.5094,5.5365,5.5433,5.5569,5.5943,5.6141,5.6874,5.7007,5.749,5.8085,5.8348,5.8404,5.8429,5.866,5.8698,5.8698,5.8602,5.9108,5.964,5.9665,6.005,6.0691,6.0531,6.0627,6.0569,6.0531,6.0248,5.9762,6.0204,6.0473,6.055,6.0742,6.0677,6.0529,6.0644,6.0727,6.0717,6.0795,6.0875,6.0957,6.1001,6.1032,6.106,6.1113,6.1181,6.1233,6.1273,6.1376,6.1465,6.1489,6.1574,6.1659,6.1715,6.1717,6.1717,6.1699,6.1699,6.1699,6.1699,6.1699,6.1699,6.1699,6.1699,6.1699,6.1714,6.1678,6.1601,6.1526,6.1401,6.1209,6.1079,6.0974,6.088,6.0835,6.0806,6.08,6.08,6.08,6.08,6.08,6.0741,6.0617,6.0428,6.0213,5.995,5.9552,5.9149,5.8801,5.8516,5.8316,5.8042,5.7978,5.7978,5.7978,5.7978,5.7978,5.7978,5.7978,5.7978,5.7978,5.7978,5.7909,5.7815,5.7637,5.7258,5.6801,5.6138,5.5661,5.5251,5.4922,5.4631,5.4447,5.4388,5.4262,5.4302,5.4799,5.497,5.5073,5.5278,5.5585,5.7754,5.7974,5.7983,5.8104,5.8379,5.8948,5.9242,5.93,5.9954,6.0108,6.0223,6.0223,6.03,6.0473,6.0454,6.0652,6.0768,6.08,6.08,6.08,6.08,6.0723,6.0517,6.0754,6.0768,6.0787,6.08,6.0829,6.0858,6.088,6.0897,6.0946,6.099,6.1011,6.1061,6.1139,6.12,6.124,6.1312,6.1366,6.1419,6.144,6.1486,6.1573,6.1631,6.1662,6.1694,6.1698,6.1699,6.1699,6.1699,6.1699,6.1699,6.1699,6.1699,6.1699,6.1699,6.1699,6.1717,6.1709,6.1667,6.1582,6.1483,6.134,6.1152,6.1051,6.0951,6.0852,6.0787,6.08,6.08,6.08,6.08,6.08,6.08,6.0753,6.0623,6.0525,6.0301,5.9975,5.9594,5.9197,5.877,5.8505,5.8286,5.8047,5.7978,5.7978,5.7978,5.7978,5.7978,5.7978,5.7978,5.7978,5.7978,5.7978,5.7955,5.7927,5.7768,5.7661,5.7202,5.684,5.6357,5.5947,5.5578,5.5299,5.5044,5.4757,5.467,5.4614,5.457,5.4791,5.4997,5.512,5.5291,5.8496,5.8871,5.8858,5.9108,5.9511,5.9915,6.0108,6.0185,6.0575,6.08,6.08,6.08,6.08,6.08,6.08,6.0781,6.08,6.08,6.08,6.0812,6.0829,6.0846,6.0852,6.0869,6.0875,6.0852,6.0846,6.0891,6.0932,6.0964,6.0981,6.1056,6.1112,6.1174,6.1204,6.1274,6.137,6.1403,6.1467,6.1505,6.1541,6.1574,6.1601,6.1626,6.1687,6.1715,6.1698,6.1699,6.1699,6.1699,6.1699,6.1699,6.1699,6.1699,6.1699,6.1699,6.1699,6.1699,6.1716,6.1707,6.1641,6.1553,6.1437,6.1263,6.111,6.0995,6.0908,6.0829,6.08,6.08,6.08,6.08,6.08,6.08,6.08,6.0747,6.0623,6.0493,6.0261,5.9893,5.9488,5.9064,5.8712,5.8454,5.8264,5.8031,5.799,5.7978,5.7978,5.7978,5.7978,5.7978,5.7978,5.7978,5.7978,5.7978,5.7978,5.7973,5.7927,5.7881,5.7697,5.737,5.7051,5.6643,5.6239,5.5989,5.5719,5.542,5.5184,5.5191,5.5148,5.504,5.5063,5.5336,5.5438,5.9088,5.9704,5.9704,6.0127,6.0723,6.0762,6.0742,6.0762,6.08,6.08,6.08,6.08,6.08,6.0806,6.0818,6.0823,6.0835,6.0835,6.0852,6.0858,6.0908,6.0924,6.0921,6.0959,6.1,6.0962,6.0951,6.0966,6.1022,6.1046,6.1095,6.1169,6.1271,6.1313,6.1344,6.1434,6.151,6.1543,6.157,6.1592,6.1611,6.167,6.1687,6.1695,6.1697,6.1698,6.1699,6.1699,6.1699,6.1699,6.1699,6.1699,6.1699,6.1699,6.1699,6.1699,6.1699,6.1699,6.1693,6.168,6.1621,6.1505,6.135,6.119,6.1056,6.0953,6.088,6.0829,6.08,6.08,6.08,6.08,6.08,6.08,6.08,6.0722,6.0597,6.044,6.0143,5.9769,5.9399,5.8996,5.8632,5.8356,5.8179,5.8031,5.802,5.7978,5.7978,5.7978,5.7978,5.7978,5.7978,5.7978,5.7978,5.7978,5.7978,5.7978,5.7985,5.7985,5.7973,5.7768,5.7443,5.7258,5.6923,5.663,5.6407,5.616,5.5982,5.5886,5.579,5.5703,5.5677,5.5648,5.5686,6.0454,6.0594,6.0589,6.0666,6.0787,6.08,6.08,6.08,6.0806,6.0787,6.0787,6.0806,6.0812,6.0823,6.0863,6.0903,6.096,6.0965,6.0951,6.0967,6.0995,6.1001,6.1017,6.1069,6.1147,6.1174,6.1134,6.1115,6.116,6.1221,6.1258,6.1356,6.1434,6.1468,6.148,6.1543,6.1616,6.1635,6.1666,6.1674,6.1684,6.1691,6.1716,6.1699,6.1699,6.1699,6.1699,6.1699,6.1699,6.1699,6.1699,6.1699,6.1699,6.1699,6.1699,6.1699,6.1698,6.1715,6.1684,6.1635,6.1592,6.149,6.1335,6.1152,6.1007,6.0943,6.0863,6.0823,6.08,6.08,6.08,6.08,6.08,6.08,6.0794,6.0747,6.0597,6.0408,6.0135,5.9727,5.9326,5.8937,5.8598,5.8312,5.8145,5.8031,5.799,5.7978,5.7978,5.7978,5.7978,5.7978,5.7978,5.7978,5.7978,5.7978,5.7978,5.7978,5.7978,5.7978,5.7997,5.7985,5.7815,5.7583,5.7412,5.717,5.6979,5.6811,5.6639,5.647,5.642,5.6383,5.6314,5.6227,5.6227,6.08,6.08,6.08,6.08,6.08,6.08,6.08,6.0793,6.0835,6.0852,6.0858,6.09,6.0914,6.0902,6.0948,6.099,6.1031,6.106,6.1056,6.1051,6.1079,6.1137,6.1156,6.1202,6.1303,6.1357,6.1331,6.1324,6.1344,6.1385,6.1434,6.1483,6.1534,6.1566,6.1604,6.1642,6.1679,6.1708,6.171,6.1712,6.1699,6.1699,6.1699,6.1719,6.1719,6.1699,6.1699,6.1699,6.1699,6.1699,6.1699,6.1719,6.1738,6.1757,6.1738,6.1776,6.1715,6.1687,6.1643,6.1577,6.1498,6.1379,6.1236,6.1093,6.0971,6.0878,6.0841,6.0812,6.08,6.08,6.08,6.08,6.08,6.08,6.08,6.0716,6.0597,6.0421,6.0064,5.9667,5.928,5.8905,5.8529,5.8286,5.8099,5.8031,5.799,5.7978,5.7978,5.7978,5.7978,5.7978,5.7978,5.7978,5.7978,5.7978,5.7978,5.7978,5.7978,5.7978,5.7978,5.7978,5.7985,5.7862,5.7721,5.7534,5.7449,5.7258,5.715,5.7023,5.6933,5.6842,5.6834,5.6825,5.6781,6.08,6.08,6.08,6.0812,6.0823,6.0823,6.0829,6.0852,6.0903,6.093,6.0935,6.0994,6.1011,6.1012,6.1046,6.1098,6.1154,6.1167,6.1163,6.1181,6.1233,6.1308,6.1344,6.1397,6.145,6.1489,6.153,6.1547,6.1514,6.1535,6.1565,6.1591,6.1599,6.1636,6.1683,6.1688,6.1715,6.1717,6.1717,6.1698,6.1699,6.1699,6.1816,6.1953,6.1973,6.209,6.2402,6.2461,6.2441,6.2422,6.2383,6.2305,6.2246,6.2225,6.2224,6.2163,6.1903,6.1668,6.1587,6.148,6.1394,6.1295,6.1134,6.1006,6.0916,6.0839,6.0806,6.08,6.08,6.08,6.08,6.08,6.08,6.08,6.0794,6.0753,6.0597,6.0387,6.0049,5.9658,5.9253,5.8864,5.8494,5.8212,5.8042,5.8013,5.7978,5.7978,5.7978,5.7978,5.7978,5.7978,5.7978,5.7978,5.7978,5.7978,5.7978,5.7978,5.7978,5.7978,5.7978,5.7978,5.7967,5.7973,5.7909,5.7768,5.7733,5.7679,5.7534,5.7412,5.7363,5.7289,5.7232,5.7206,5.7188,6.08,6.0781,6.0806,6.0835,6.088,6.0905,6.0914,6.0981,6.0981,6.1001,6.1012,6.1069,6.11,6.1135,6.1236,6.1299,6.134,6.1349,6.135,6.1353,6.1419,6.1462,6.1498,6.156,6.1671,6.1744,6.176,6.1636,6.178,6.1814,6.1667,6.1676,6.1746,6.1715,6.1871,6.2069,6.1699,6.1758,6.1797,6.1816,6.1855,6.1875,6.2265,6.2656,6.289,6.3105,6.3574,6.3652,6.373,6.3789,6.3887,6.3945,6.4004,6.4003,6.3997,6.3517,6.2676,6.1587,6.1679,6.1698,6.1596,6.1537,6.1278,6.0992,6.1142,6.1124,6.1089,6.08,6.0839,6.0916,6.0954,6.0819,6.08,6.08,6.08,6.0735,6.0597,6.0408,6.0064,5.9641,5.9225,5.8825,5.8451,5.8212,5.799,5.799,5.7978,5.7978,5.7978,5.7978,5.7978,5.7978,5.7978,5.7978,5.7978,5.7978,5.7978,5.7978,5.7978,5.7978,5.7978,5.7978,5.7978,5.7967,5.7944,5.7932,5.7886,5.7851,5.7857,5.7768,5.7661,5.7601,5.7565,5.7565,5.7534,6.0894,6.0858,6.0886,6.0916,6.095,6.095,6.1001,6.1056,6.1092,6.1146,6.1177,6.1256,6.1285,6.133,6.1401,6.1434,6.1479,6.1514,6.1517,6.1536,6.1584,6.159,6.1615,6.1691,6.1824,6.2348,6.249,6.2863,6.2705,6.2157,6.1711,6.1849,6.2185,6.248,6.248,6.293,6.3144,6.3223,6.3223,6.3183,6.3164,6.3183,6.334,6.3711,6.373,6.4004,6.4258,6.4297,6.4297,6.4297,6.4297,6.4297,6.4297,6.4273,6.4282,6.4144,6.3493,6.2986,6.2894,6.2722,6.2523,6.2462,6.2334,6.2367,6.2271,6.2164,6.2166,6.2237,6.1781,6.1575,6.1402,6.105,6.0858,6.0819,6.0993,6.0793,6.0674,6.0388,6.0109,5.9648,5.9215,5.8815,5.8462,5.819,5.8001,5.7978,5.7978,5.7978,5.7978,5.7978,5.7978,5.7978,5.7978,5.7978,5.7978,5.7978,5.7978,5.7978,5.7978,5.7978,5.7978,5.7978,5.7978,5.7978,5.7967,5.7967,5.7978,5.7955,5.7909,5.7927,5.7927,5.7827,5.7768,5.7804,5.7804,6.1012,6.1001,6.1016,6.1031,6.1046,6.1069,6.1113,6.1185,6.1244,6.1299,6.136,6.1409,6.15,6.1534,6.1537,6.1569,6.1604,6.163,6.1805,6.1861,6.199,6.2176,6.246,6.2525,6.2765,6.332,6.3319,6.3592,6.3593,6.3183,6.2538,6.2382,6.3046,6.3301,6.3476,6.3769,6.4062,6.4062,6.4101,6.4121,6.416,6.418,6.4355,6.4531,6.4629,6.4726,6.4922,6.5019,6.5039,6.5078,6.5117,6.5194,6.5152,6.5183,6.5119,6.5022,6.4693,6.4575,6.4256,6.3942,6.3694,6.3502,6.3407,6.3099,6.3159,6.3295,6.3275,6.3083,6.2743,6.2441,6.2287,6.18,6.1762,6.1589,6.1416,6.1139,6.0866,6.0585,6.0155,5.9605,5.9178,5.8805,5.8465,5.8179,5.8031,5.799,5.7978,5.7978,5.7978,5.7978,5.7978,5.7978,5.7978,5.7978,5.7978,5.7978,5.7978,5.7978,5.7978,5.7978,5.7978,5.7978,5.7978,5.7978,5.7978,5.7978,5.7978,5.7978,5.7978,5.7955,5.7944,5.7967,5.7955,5.7978,5.7978,6.1217,6.127,6.1141,6.1139,6.12,6.1256,6.1306,6.1373,6.1434,6.1473,6.149,6.1563,6.1613,6.1686,6.1766,6.1809,6.1735,6.1689,6.226,6.2734,6.2954,6.3273,6.355,6.3786,6.3984,6.418,6.4219,6.4277,6.4375,6.4492,6.4121,6.416,6.4199,6.4199,6.4316,6.4551,6.4707,6.4707,6.4687,6.4609,6.459,6.4609,6.4863,6.539,6.5566,6.5859,6.6621,6.6484,6.6387,6.6386,6.6327,6.6302,6.6177,6.6181,6.612,6.5999,6.592,6.5775,6.5479,6.4633,6.3771,6.3507,6.3528,6.3698,6.3762,6.3487,6.3372,6.3545,6.3435,6.3262,6.3224,6.3102,6.2724,6.2531,6.2186,6.1971,6.1524,6.0761,6.0304,5.9649,5.9159,5.8774,5.8465,5.8167,5.8031,5.799,5.7978,5.7978,5.7978,5.7978,5.7978,5.7978,5.7978,5.7978,5.7978,5.7978,5.7978,5.7978,5.7978,5.7978,5.7978,5.7978,5.7978,5.7978,5.7978,5.7978,5.7978,5.7978,5.7978,5.7978,5.7978,5.7978,5.7978,5.7978,5.7978,6.1391,6.1426,6.1409,6.1409,6.1366,6.1412,6.1456,6.1514,6.1547,6.1598,6.1643,6.1648,6.1677,6.1836,6.2326,6.2504,6.2587,6.3117,6.3451,6.3669,6.3885,6.4023,6.4277,6.4492,6.4531,6.498,6.5117,6.5469,6.5937,6.5703,6.5859,6.5781,6.5332,6.5156,6.5195,6.5508,6.5742,6.5801,6.584,6.5879,6.5898,6.5898,6.6055,6.6328,6.6406,6.6543,6.6836,6.6875,6.6894,6.6892,6.6868,6.6817,6.6777,6.6767,6.6663,6.6558,6.6446,6.6299,6.6156,6.5432,6.5064,6.4965,6.4929,6.482,6.4705,6.482,6.4878,6.4801,6.4352,6.4128,6.4064,6.3622,6.316,6.3179,6.3078,6.2836,6.2316,6.1557,6.0719,6.0177,5.9375,5.8714,5.8446,5.8174,5.8065,5.7978,5.7978,5.7978,5.7978,5.7978,5.7978,5.7978,5.7978,5.7978,5.7978,5.7978,5.7978,5.7978,5.7978,5.7978,5.7978,5.7978,5.7978,5.7978,5.7978,5.7978,5.7978,5.7978,5.7978,5.7978,5.7978,5.7978,5.7978,5.7978,5.7978,6.1537,6.1563,6.1628,6.1591,6.1545,6.1549,6.1595,6.1619,6.1633,6.1846,6.2077,6.2102,6.2261,6.2612,6.3042,6.3375,6.3514,6.3905,6.4375,6.459,6.4687,6.4824,6.498,6.5195,6.5566,6.5898,6.6035,6.6348,6.6699,6.6855,6.6738,6.6543,6.6348,6.6055,6.6133,6.6523,6.6894,6.6894,6.6894,6.6894,6.6836,6.6816,6.6797,6.6836,6.6816,6.6836,6.6875,6.6872,6.6867,6.684,6.6806,6.6757,6.6719,6.6644,6.6558,6.6446,6.634,6.6206,6.6091,6.6003,6.5938,6.5672,6.5711,6.5743,6.5884,6.5884,6.5628,6.5686,6.5243,6.4955,6.4916,6.457,6.4352,6.4455,6.3929,6.3629,6.3191,6.251,6.1554,6.0734,5.9881,5.9032,5.8425,5.8174,5.8065,5.7978,5.7978,5.7978,5.7978,5.7978,5.7978,5.7978,5.7978,5.7978,5.7978,5.7978,5.7978,5.7978,5.7978,5.7978,5.7978,5.7978,5.7978,5.7978,5.7978,5.7978,5.7978,5.7978,5.7978,5.7978,5.7978,5.7978,5.7978,5.7978,5.7978,6.1635,6.1696,6.1697,6.1664,6.1604,6.1668,6.1696,6.1716,6.1802,6.2238,6.2927,6.2988,6.3379,6.3926,6.4121,6.4258,6.4316,6.4473,6.4902,6.5449,6.5605,6.6055,6.6367,6.6543,6.6387,6.6758,6.6738,6.6699,6.6894,6.6894,6.6894,6.6894,6.6719,6.668,6.6836,6.6855,6.6894,6.6894,6.6894,6.6894,6.6894,6.6894,6.6894,6.6894,6.6873,6.6871,6.687,6.682,6.6808,6.6794,6.6727,6.6656,6.6596,6.6484,6.6392,6.6321,6.625,6.6126,6.6013,6.5954,6.5897,6.5884,6.5884,6.5884,6.5884,6.5884,6.5884,6.5878,6.5724,6.5724,6.5769,6.5731,6.5551,6.532,6.4782,6.4469,6.4034,6.3321,6.2347,6.1452,6.0477,5.9544,5.874,5.8186,5.8054,5.7978,5.7978,5.7978,5.7978,5.7978,5.7978,5.7978,5.7978,5.7978,5.7978,5.7978,5.7978,5.7978,5.7978,5.7978,5.7978,5.7978,5.7978,5.7978,5.7978,5.7978,5.7978,5.7978,5.7978,5.7978,5.7978,5.7978,5.7978,5.7978,5.7978,6.1684,6.1712,6.1712,6.1673,6.1673,6.1692,6.1712,6.1811,6.2302,6.3047,6.375,6.3847,6.3945,6.4375,6.4922,6.5156,6.5234,6.5918,6.6348,6.6367,6.6406,6.6601,6.6855,6.6894,6.6894,6.6894,6.6894,6.6894,6.6894,6.6894,6.6894,6.6894,6.6894,6.6894,6.6894,6.6894,6.6894,6.6894,6.6894,6.6894,6.6894,6.6894,6.6893,6.6893,6.6847,6.6821,6.6838,6.6773,6.6743,6.6713,6.6638,6.653,6.645,6.6329,6.6259,6.6193,6.6119,6.6036,6.596,6.591,6.5884,6.5884,6.5884,6.5884,6.5884,6.5884,6.5884,6.5884,6.5884,6.5884,6.5865,6.5846,6.5743,6.5743,6.5462,6.5352,6.4935,6.4016,6.309,6.2266,6.1338,5.9716,5.8621,5.8207,5.8013,5.7978,5.7978,5.7978,5.7978,5.7978,5.7978,5.7978,5.7978,5.7978,5.7978,5.7978,5.7978,5.7978,5.7978,5.7978,5.7978,5.7978,5.7978,5.7978,5.7978,5.7978,5.7978,5.7978,5.7978,5.7978,5.7978,5.7978,5.7978,5.7978,5.7978,6.1716,6.1737,6.203,6.2148,6.2148,6.2148,6.2284,6.2655,6.3223,6.3945,6.4609,6.4765,6.498,6.5312,6.5723,6.6055,6.6133,6.6582,6.6875,6.6894,6.6875,6.6875,6.6875,6.6894,6.6894,6.6894,6.6894,6.6894,6.6894,6.6894,6.6894,6.6894,6.6894,6.6894,6.6894,6.6894,6.6894,6.6894,6.6894,6.6894,6.6892,6.689,6.6866,6.686,6.6809,6.6751,6.6732,6.6695,6.6637,6.6596,6.6505,6.6387,6.6282,6.619,6.6129,6.6076,6.6013,6.5954,6.5916,6.5904,6.5884,6.5884,6.5884,6.5884,6.5884,6.5884,6.5884,6.5884,6.5884,6.5884,6.5884,6.5884,6.5884,6.5884,6.5833,6.571,6.5379,6.4436,6.3744,6.2918,6.1905,6.0214,5.8656,5.826,5.799,5.7978,5.7978,5.7978,5.7978,5.7978,5.7978,5.7978,5.7978,5.7978,5.7978,5.7978,5.7978,5.7978,5.7978,5.7978,5.7978,5.7978,5.7978,5.7978,5.7978,5.7978,5.7978,5.7978,5.7978,5.7978,5.7978,5.7978,5.7978,5.7978,5.7978,6.1758,6.1875,6.2676,6.3027,6.3047,6.3144,6.3594,6.4277,6.4336,6.4844,6.5625,6.5644,6.5937,6.664,6.6836,6.6797,6.6758,6.6855,6.6875,6.6894,6.6894,6.6894,6.6894,6.6894,6.6894,6.6894,6.6894,6.6894,6.6894,6.6894,6.6894,6.6894,6.6875,6.6871,6.6872,6.6852,6.6872,6.6871,6.6871,6.6868,6.6862,6.6833,6.6801,6.6765,6.6716,6.6655,6.6615,6.6557,6.6489,6.6435,6.6339,6.6235,6.6126,6.6048,6.602,6.5984,6.5916,6.5897,6.5884,6.5884,6.5884,6.5884,6.5884,6.5884,6.5884,6.5884,6.5884,6.5884,6.5884,6.5884,6.5884,6.5884,6.5884,6.5872,6.5833,6.5681,6.5479,6.488,6.4245,6.3436,6.2444,6.0978,5.9299,5.8584,5.807,5.7978,5.7978,5.7978,5.7978,5.7978,5.7978,5.7978,5.7978,5.7978,5.7978,5.7978,5.7978,5.7978,5.7978,5.7978,5.7978,5.7978,5.7978,5.7978,5.7978,5.7978,5.7978,5.7978,5.7978,5.7978,5.7978,5.7978,5.7978,5.7978,5.7978,6.2617,6.2715,6.3555,6.3906,6.4023,6.459,6.5,6.5215,6.5234,6.5723,6.6504,6.6523,6.6621,6.6894,6.6894,6.6894,6.6894,6.6894,6.6894,6.6894,6.6894,6.6894,6.6894,6.6894,6.6894,6.6894,6.6894,6.6894,6.6894,6.6894,6.6891,6.6894,6.6842,6.6821,6.6796,6.6772,6.6792,6.6815,6.6796,6.6788,6.6769,6.6725,6.6701,6.6646,6.6588,6.6526,6.645,6.6408,6.6349,6.6264,6.6149,6.6066,6.6042,6.5959,6.5935,6.5935,6.591,6.5884,6.5884,6.5884,6.5884,6.5884,6.5884,6.5884,6.5884,6.5884,6.5884,6.5884,6.5884,6.5884,6.5884,6.5884,6.5891,6.5859,6.58,6.5611,6.5371,6.4951,6.4339,6.3573,6.2602,6.1202,5.9585,5.8682,5.8198,5.807,5.7978,5.7978,5.7978,5.7978,5.7978,5.7978,5.7978,5.7978,5.7978,5.7978,5.7978,5.7978,5.7978,5.7978,5.7978,5.7978,5.7978,5.7978,5.7978,5.7978,5.7978,5.7978,5.7978,5.7978,5.7978,5.7978,5.7978,5.7978,5.7978,6.3515,6.3633,6.4453,6.5,6.539,6.5879,6.6113,6.6113,6.6094,6.6465,6.6855,6.6875,6.6894,6.6894,6.6894,6.6894,6.6894,6.6894,6.6894,6.6894,6.6894,6.6894,6.6894,6.6894,6.6894,6.6894,6.6893,6.6875,6.687,6.6866,6.6858,6.6809,6.6757,6.6726,6.671,6.6688,6.667,6.6684,6.6693,6.6674,6.6642,6.6609,6.656,6.6513,6.6446,6.636,6.6293,6.6239,6.6205,6.6126,6.6034,6.5988,6.5978,6.5923,6.5884,6.5904,6.5904,6.5884,6.5884,6.5884,6.5884,6.5884,6.5884,6.5884,6.5884,6.5884,6.5884,6.5884,6.5884,6.5884,6.5884,6.5878,6.5878,6.5859,6.5688,6.5509,6.519,6.4846,6.4226,6.3531,6.2405,6.1066,5.9891,5.9011,5.8309,5.8088,5.7978,5.7978,5.7978,5.7978,5.7978,5.7978,5.7978,5.7978,5.7978,5.7978,5.7978,5.7978,5.7978,5.7978,5.7978,5.7978,5.7978,5.7978,5.7978,5.7978,5.7978,5.7978,5.7978,5.7978,5.7978,5.7978,5.7978,5.7978,5.7978,6.4394,6.4473,6.5332,6.6113,6.6816,6.6836,6.6836,6.6894,6.6816,6.6894,6.6894,6.6894,6.6894,6.6894,6.6894,6.6894,6.6894,6.6894,6.6894,6.6894,6.6894,6.6894,6.6894,6.6893,6.6871,6.6889,6.6865,6.6816,6.6787,6.6774,6.6738,6.6705,6.6678,6.6648,6.6587,6.6549,6.6516,6.6465,6.6494,6.6506,6.6529,6.6479,6.6388,6.6342,6.6263,6.6172,6.6109,6.6074,6.6074,6.6019,6.599,6.594,6.5929,6.5904,6.5904,6.5884,6.5884,6.5884,6.5884,6.5884,6.5884,6.5884,6.5884,6.5884,6.5884,6.5884,6.5884,6.5884,6.5884,6.5884,6.5884,6.5853,6.582,6.5722,6.5571,6.5318,6.4993,6.453,6.3888,6.3196,6.2375,6.114,6.0639,5.9795,5.8994,5.8455,5.8217,5.8235,5.7997,5.7997,5.7978,5.7978,5.7978,5.7978,5.7978,5.7978,5.7978,5.7978,5.7978,5.7978,5.7978,5.7978,5.7978,5.7978,5.7978,5.7978,5.7978,5.7978,5.7978,5.7978,5.7978,5.7978,5.7978,5.7978,5.7978,6.5273,6.539,6.6211,6.6738,6.6894,6.6894,6.6894,6.6894,6.6894,6.6894,6.6894,6.6894,6.6894,6.6894,6.6894,6.6894,6.6894,6.6894,6.6894,6.6894,6.6894,6.6872,6.6872,6.6844,6.682,6.6815,6.6783,6.6732,6.6703,6.6659,6.6637,6.6609,6.6568,6.6491,6.644,6.6408,6.6348,6.6288,6.6266,6.6303,6.6344,6.6314,6.6235,6.6161,6.6088,6.6058,6.6009,6.6005,6.5983,6.5941,6.5929,6.5916,6.5884,6.5884,6.5884,6.5884,6.5884,6.5884,6.5884,6.5884,6.5884,6.5884,6.5884,6.5884,6.5884,6.5884,6.5884,6.5884,6.5878,6.5878,6.5859,6.582,6.5735,6.5592,6.5401,6.5093,6.4768,6.4131,6.3523,6.2872,6.2186,6.1685,6.122,6.0603,5.982,5.9343,5.9049,5.8811,5.8253,5.807,5.7997,5.7978,5.7978,5.7978,5.7978,5.7978,5.7978,5.7978,5.7978,5.7978,5.7978,5.7978,5.7978,5.7978,5.7978,5.7978,5.7978,5.7978,5.7978,5.7978,5.7978,5.7978,5.7978,5.7978,5.7978,6.6172,6.623,6.6699,6.6894,6.6894,6.6894,6.6894,6.6894,6.6894,6.6894,6.6894,6.6894,6.6894,6.6894,6.6894,6.6894,6.6894,6.6894,6.6894,6.6894,6.6868,6.6844,6.6817,6.678,6.6739,6.6704,6.6635,6.6602,6.6563,6.6523,6.6487,6.6425,6.638,6.6335,6.6271,6.6225,6.6177,6.6116,6.6069,6.6116,6.6185,6.6156,6.6108,6.6032,6.6005,6.5952,6.594,6.594,6.5916,6.591,6.5904,6.5904,6.5884,6.5884,6.5884,6.5884,6.5884,6.5884,6.5884,6.5884,6.5884,6.5884,6.5884,6.5884,6.5884,6.5884,6.5884,6.5878,6.5852,6.584,6.5787,6.5747,6.5552,6.5394,6.5098,6.4785,6.4242,6.3613,6.3235,6.2885,6.2377,6.2089,6.1667,6.13,6.0529,5.9857,5.9636,5.9251,5.8701,5.8198,5.8107,5.7978,5.7978,5.7978,5.7978,5.7978,5.7978,5.7978,5.7978,5.7978,5.7978,5.7978,5.7978,5.7978,5.7978,5.7978,5.7978,5.7978,5.7978,5.7978,5.7978,5.7978,5.7978,5.8015,5.8088,6.6855,6.6894,6.6894,6.6894,6.6894,6.6894,6.6894,6.6894,6.6894,6.6893,6.689,6.6893,6.6894,6.6894,6.6894,6.6894,6.6891,6.6868,6.6865,6.6839,6.6809,6.6774,6.6732,6.6684,6.6634,6.6552,6.6478,6.6422,6.6384,6.6359,6.6284,6.6201,6.6162,6.6127,6.6112,6.6074,6.6058,6.6007,6.6007,6.6079,6.6079,6.6029,6.6002,6.5972,6.5935,6.5884,6.5884,6.5884,6.5884,6.5884,6.5884,6.5884,6.5884,6.5884,6.5884,6.5884,6.5884,6.5884,6.5884,6.5884,6.5884,6.5884,6.5884,6.5884,6.5884,6.5884,6.5884,6.5872,6.5826,6.5754,6.572,6.5571,6.5379,6.5079,6.4766,6.4407,6.3776,6.3217,6.302,6.2818,6.2622,6.2365,6.2126,6.1777,6.13,6.0621,6.0077,5.96,5.9141,5.8682,5.84,5.8143,5.7978,5.7978,5.799,5.7978,5.7978,5.7978,5.7978,5.7978,5.7978,5.7978,5.7978,5.7978,5.7978,5.7978,5.7978,5.7978,5.7978,5.8033,5.7978,5.7997,5.8088,5.8143,5.8253,6.6894,6.6894,6.6894,6.6894,6.6894,6.6894,6.6893,6.6892,6.6889,6.6884,6.6839,6.682,6.6844,6.6887,6.6836,6.6818,6.6814,6.6809,6.6779,6.6747,6.6711,6.6666,6.6605,6.6534,6.6466,6.6384,6.6286,6.6267,6.6245,6.6186,6.614,6.6109,6.6094,6.6093,6.6081,6.6128,6.6265,6.6255,6.6294,6.6397,6.6622,6.6468,6.598,6.591,6.5891,6.5884,6.5884,6.5884,6.5884,6.5884,6.5942,6.5961,6.5884,6.5884,6.5884,6.5884,6.5884,6.5884,6.5884,6.5884,6.5884,6.5884,6.5884,6.5884,6.5884,6.5884,6.5891,6.5872,6.582,6.5714,6.5625,6.5371,6.5139,6.4703,6.4339,6.3912,6.3363,6.3116,6.2953,6.2842,6.2738,6.2627,6.2591,6.2328,6.2126,6.1539,6.1135,6.0609,5.971,5.9196,5.8756,5.851,5.8235,5.8008,5.8008,5.799,5.7978,5.7978,5.7978,5.7978,5.7978,5.7978,5.7978,5.7978,5.7978,5.7978,5.7978,5.7978,5.8107,5.8143,5.8033,5.8015,5.8198,5.851,5.8841]}]]